GFSSGP_sfc_30mbdewp_000.txt.gz
Dewpoint
73 72 70 68 56 45 48 50 49 50 53 56 57 55 57 59 54 53 64 67 67 67 69 69 72 72 72 72 72 73 73 73 74 73 72 71 73 73 74 74 73 73 73 72 72 72 71 71 71
69 69 67 60 40 39 44 47 48 51 54 56 57 57 55 57 61 63 64 66 66 65 65 67 73 73 71 71 72 72 72 72 73 72 72 72 73 73 73 73 73 73 72 72 72 72 71 71 71
65 66 58 42 32 38 43 48 52 54 54 54 56 57 56 58 61 61 64 66 65 66 66 69 73 72 71 71 73 73 73 73 73 72 72 72 72 73 73 73 72 72 72 72 71 71 71 72 72
62 60 56 35 29 38 45 50 54 54 55 55 55 56 59 60 61 62 65 65 65 67 68 70 71 72 71 72 73 73 73 73 73 72 72 72 73 73 72 72 72 72 72 72 72 72 71 71 72
59 51 35 32 35 39 45 51 53 52 53 53 53 54 58 63 63 64 66 66 65 66 68 68 73 73 72 72 73 73 72 73 73 73 72 73 72 72 72 73 72 72 72 72 71 72 72 72 72
49 45 32 30 35 41 45 52 53 53 55 55 53 57 59 63 64 65 66 67 66 66 67 69 73 74 74 73 74 74 73 73 74 73 73 73 72 73 72 72 72 71 71 71 71 72 72 72 72
45 38 34 34 37 40 44 49 50 53 55 53 54 55 60 61 64 66 67 66 66 66 68 69 69 73 74 74 74 74 73 73 72 73 73 73 73 72 73 72 72 71 72 72 72 71 71 72 72
46 39 34 36 37 37 44 48 51 50 54 55 55 55 58 60 64 65 66 66 66 67 68 70 71 71 70 71 74 74 73 71 71 73 73 73 73 72 71 71 72 72 71 71 71 71 71 72 72
49 38 33 35 38 40 46 46 52 53 55 56 56 54 57 60 63 64 65 66 67 67 68 69 70 71 71 69 71 72 72 72 72 72 73 71 66 67 67 70 71 72 71 71 72 72 72 71 71
42 38 34 35 39 42 46 46 52 53 54 54 57 57 58 60 62 62 64 65 65 66 67 67 68 70 70 68 70 70 68 66 66 66 67 66 68 69 67 70 71 72 72 71 72 71 70 70 64
35 37 38 38 39 43 45 47 51 48 50 51 55 57 59 60 61 61 62 63 64 65 66 68 67 70 69 68 69 68 67 66 67 69 69 67 68 67 68 67 67 66 69 66 68 67 65 67 66
31 33 34 38 42 43 45 47 48 48 47 50 54 58 59 60 60 60 61 62 63 64 65 66 68 69 69 71 69 68 66 66 66 67 70 69 68 68 69 67 68 69 66 67 67 65 68 67 66
26 27 29 32 40 42 46 46 47 49 51 52 56 59 59 59 59 60 60 62 63 64 65 66 68 70 70 71 67 67 67 66 65 66 68 67 66 69 69 69 69 68 67 66 67 67 67 67 65
24 25 27 30 38 43 46 48 49 49 50 55 57 59 58 59 59 60 60 61 62 64 65 66 68 70 70 70 69 68 68 66 66 65 65 69 67 69 68 67 67 67 67 66 67 68 68 66 64
25 29 38 37 40 44 46 48 48 50 53 56 57 58 58 59 60 60 61 62 63 64 65 66 68 70 71 71 71 70 68 67 66 66 68 69 69 70 68 67 67 67 68 70 68 68 66 64 63
25 29 30 39 43 46 46 37 47 52 54 56 57 58 58 59 59 61 62 62 63 64 66 67 67 68 70 70 70 69 67 67 67 66 67 70 70 70 69 68 67 67 68 67 66 65 63 62 61
27 26 28 40 44 47 46 38 47 52 53 53 56 56 58 59 60 62 62 63 63 65 67 68 68 67 68 70 70 70 68 70 70 69 69 68 69 68 69 67 67 69 68 68 66 64 64 60 58
25 26 28 30 43 45 44 40 48 51 51 51 55 56 56 57 59 61 62 63 64 66 68 69 68 69 70 71 72 69 69 69 68 68 71 70 71 69 69 68 68 68 68 66 65 65 62 62 59
24 28 28 29 40 43 40 40 43 52 51 51 53 56 56 55 57 60 63 64 65 66 68 69 69 70 71 71 67 67 65 66 68 67 71 71 70 70 70 68 68 69 68 65 65 62 60 57 59
24 25 27 30 40 41 38 39 42 46 52 50 51 54 57 56 57 60 63 63 64 66 68 70 70 70 72 69 68 67 67 65 67 67 69 70 70 70 69 69 68 69 63 65 63 62 59 57 59
24 25 27 31 40 41 37 39 39 41 49 51 51 52 55 56 56 59 61 62 63 65 68 69 71 71 72 70 69 70 70 70 68 68 70 71 72 72 71 71 68 68 63 56 62 62 60 55 62
22 24 27 30 34 34 39 31 32 36 45 49 52 51 51 56 57 58 59 61 62 64 66 69 71 72 72 72 69 69 67 64 63 64 64 68 71 71 71 70 69 64 59 60 61 60 60 61 56
21 23 25 27 32 33 36 34 31 37 37 43 49 51 51 51 55 57 59 60 62 63 65 68 71 72 72 72 72 70 70 65 64 64 68 70 70 71 68 70 66 64 61 63 63 61 62 59 58
20 23 25 26 27 28 31 32 27 29 35 34 42 48 51 50 51 55 57 59 60 62 64 66 69 72 72 72 72 72 68 68 63 66 65 64 64 68 69 70 66 63 60 63 62 62 62 61 60
17 23 24 23 23 24 30 30 28 26 27 31 28 39 50 50 50 53 56 58 60 61 63 65 68 71 72 72 72 72 72 70 69 68 66 62 61 62 66 70 66 62 64 62 61 61 60 61 59
16 20 21 19 18 20 26 26 25 29 28 27 28 36 46 50 49 51 54 57 59 61 62 64 66 70 71 71 72 73 73 71 70 69 65 63 61 59 62 69 65 63 62 62 60 59 58 58 58
16 17 21 20 20 17 17 25 26 26 30 30 33 38 42 48 49 49 53 56 58 60 63 65 68 69 70 70 71 73 73 72 68 68 69 66 65 60 65 66 64 61 62 60 59 57 57 57 58
11 19 19 20 19 18 18 19 23 25 23 22 29 38 41 47 49 48 51 54 57 59 61 64 66 68 69 69 70 71 71 72 71 70 70 67 67 66 64 64 61 61 61 60 60 57 57 58 54
11 13 19 20 19 17 18 19 21 23 24 24 22 37 38 44 49 50 49 51 56 57 59 62 65 67 68 68 69 69 69 70 71 71 73 71 69 67 65 64 60 60 60 60 60 59 56 56 56
9 14 19 19 22 20 18 16 19 21 23 22 21 22 25 41 47 51 51 52 54 57 57 59 62 65 67 68 70 69 69 69 70 72 72 70 68 66 65 63 63 61 59 59 60 59 55 55 55

GFSSGP_sfc_30mbdewp_003.txt.gz
Dewpoint
72 71 71 69 60 52 48 46 49 49 52 53 53 59 57 56 57 55 67 67 65 65 67 69 71 72 73 74 73 73 73 73 74 73 73 73 73 74 74 73 72 72 72 72 72 71 71 71 71
68 68 68 62 48 48 48 48 49 50 52 53 53 55 55 59 60 63 64 64 64 63 64 67 73 72 72 73 73 72 72 72 72 72 72 72 73 73 72 72 72 72 72 72 71 71 71 71 71
67 65 63 56 41 42 45 49 48 50 51 52 52 55 58 59 60 62 64 64 63 65 67 70 73 72 73 73 73 73 73 72 72 72 71 71 72 73 72 72 71 72 72 71 71 71 71 71 72
63 59 57 31 28 40 47 47 48 49 50 52 54 55 57 57 59 61 62 63 65 67 67 71 72 72 72 73 74 73 73 73 73 72 71 72 72 71 71 72 71 71 72 71 71 71 71 71 72
60 54 46 28 30 37 46 47 48 48 49 50 53 55 56 59 61 62 62 63 65 66 66 69 73 72 73 73 74 73 73 73 73 72 72 73 72 71 72 72 71 71 71 71 72 72 72 71 72
54 44 36 26 29 35 43 47 47 47 49 51 54 55 58 61 61 62 63 65 65 66 66 69 72 73 73 73 73 72 73 73 74 73 73 72 72 72 72 71 71 71 71 71 71 71 71 71 72
50 47 35 29 32 32 38 44 43 46 49 50 55 55 59 60 62 62 65 65 65 66 67 68 70 72 74 74 73 73 73 73 73 73 73 72 72 72 72 71 70 71 72 71 71 71 71 71 72
44 39 30 38 30 29 35 41 42 45 48 52 54 55 57 61 62 64 65 65 64 65 67 67 68 69 70 71 73 73 73 72 72 73 72 72 71 71 69 69 71 71 71 71 71 71 72 71 71
38 39 32 33 40 33 36 37 43 47 48 49 51 54 58 61 61 63 65 65 65 66 67 67 67 69 70 70 73 73 72 70 72 71 72 70 67 68 68 70 70 71 71 71 71 71 71 70 71
38 46 36 32 41 35 37 36 41 44 47 49 51 55 59 61 60 60 63 65 64 65 65 65 67 69 69 65 71 68 66 66 66 65 67 67 66 69 67 69 71 71 71 71 71 70 70 70 67
33 43 40 35 35 38 37 37 40 42 44 48 51 54 58 60 60 60 62 62 61 61 62 67 69 70 70 71 67 67 66 65 65 66 67 65 66 68 69 71 69 69 69 70 70 69 67 65 64
29 37 36 36 37 39 36 38 38 39 41 47 51 54 57 59 59 59 60 60 60 62 62 65 69 70 69 69 67 65 64 63 64 65 68 69 67 67 66 69 68 68 68 66 67 66 66 66 66
26 30 31 31 36 37 40 38 36 38 42 47 52 53 55 57 59 59 59 59 60 61 63 64 66 68 68 71 65 64 64 63 63 64 67 67 65 69 69 68 66 67 67 67 65 65 65 65 65
26 28 27 29 32 37 39 39 41 39 44 47 52 53 54 56 57 58 59 59 60 61 62 63 66 69 70 70 69 67 65 66 63 63 64 68 68 70 67 69 68 67 67 68 64 67 67 66 63
25 24 29 30 30 35 37 38 37 40 46 47 51 53 53 55 56 57 59 60 61 62 63 64 65 68 70 70 70 68 66 64 65 63 65 66 68 67 69 68 67 65 68 69 68 68 67 64 57
22 25 25 31 30 33 37 35 40 43 44 45 50 53 53 54 54 57 58 59 61 62 63 65 64 66 69 71 71 69 66 68 65 65 66 67 69 70 69 67 66 67 66 67 67 67 63 58 56
24 22 24 31 32 36 37 38 42 45 43 44 47 51 53 54 55 57 58 59 60 62 64 65 66 65 68 72 70 69 68 68 69 68 67 70 69 70 69 67 66 68 68 67 66 65 62 56 56
24 23 25 33 30 37 36 39 42 44 45 41 45 48 52 53 54 56 58 59 60 62 64 66 67 67 68 70 71 69 67 68 68 68 68 68 69 70 70 67 68 68 67 65 66 65 60 59 59
23 24 24 26 28 34 36 36 39 44 45 43 43 45 49 51 54 56 58 59 60 62 64 67 68 71 70 69 70 68 67 66 66 65 69 71 70 70 70 69 69 68 67 66 62 61 57 57 57
21 22 25 26 29 31 33 35 36 45 45 45 44 44 46 49 51 55 58 59 60 62 64 68 69 71 71 70 71 68 67 65 63 64 67 69 70 69 69 70 66 66 65 65 63 62 59 56 58
21 21 23 24 35 36 33 34 34 38 45 47 45 45 46 47 48 54 57 59 60 62 65 69 71 72 72 71 70 69 69 67 67 65 67 69 70 70 71 70 70 69 65 53 63 61 60 55 59
18 22 24 24 31 32 30 29 33 33 37 45 46 46 46 47 49 51 56 59 59 61 65 68 72 73 73 73 69 69 66 63 61 61 62 66 70 70 70 70 68 68 61 62 60 60 61 60 54
17 19 23 24 28 38 28 27 30 32 33 38 45 47 46 46 49 50 55 58 59 61 63 67 72 73 73 73 71 68 68 62 62 60 66 65 70 68 66 67 69 67 60 61 62 61 62 61 57
17 19 22 22 24 24 28 29 31 33 32 34 39 45 48 48 47 52 53 56 58 60 62 65 72 74 74 73 73 71 69 67 61 61 64 64 64 67 66 65 68 66 58 61 62 62 62 61 61
15 18 18 20 20 20 24 29 38 32 30 32 31 35 44 48 48 50 54 55 58 60 62 65 70 74 74 73 73 73 71 70 68 67 65 63 60 61 68 66 70 65 62 61 61 62 61 61 59
13 16 17 18 19 20 22 23 26 30 29 27 30 28 36 46 49 48 52 56 59 60 64 65 68 73 74 73 73 74 73 69 67 68 65 63 61 61 64 67 67 66 61 62 61 59 59 59 59
9 13 18 18 20 19 19 22 24 29 30 28 27 26 27 41 47 48 49 54 57 59 63 65 68 71 73 71 74 74 74 73 67 68 70 66 65 61 61 65 67 65 61 62 61 59 60 58 58
4 11 15 17 18 17 17 18 20 25 25 24 27 26 28 34 46 48 48 52 56 58 61 65 68 71 71 71 73 73 73 74 72 71 69 67 67 65 65 65 66 64 62 63 63 60 60 59 57
4 5 13 17 17 16 17 19 20 25 28 25 26 24 26 34 44 48 48 50 53 55 58 62 65 68 70 71 70 71 71 72 72 71 70 70 68 69 66 68 66 63 62 62 62 61 59 61 60
6 5 7 16 21 17 18 17 21 21 23 24 25 24 26 33 40 46 48 48 51 54 55 58 61 63 68 70 71 71 71 71 71 72 71 72 71 70 68 68 66 61 62 62 62 60 58 57 57

GFSSGP_sfc_30mbdewp_009.txt.gz
Dewpoint
72 72 69 68 58 55 51 51 55 53 54 56 58 59 59 60 56 54 66 69 68 70 71 72 73 73 74 74 75 75 75 75 76 75 75 75 74 74 74 73 73 73 72 71 71 71 71 70 70
72 70 65 60 54 49 52 54 52 55 56 57 58 58 59 58 62 64 67 68 68 69 71 72 74 74 74 75 75 74 73 74 75 75 75 75 74 74 73 72 72 72 72 71 71 71 72 71 71
70 69 64 59 53 46 49 54 54 58 59 57 56 58 60 61 63 65 66 66 67 68 70 72 74 73 74 74 74 74 74 74 74 74 75 74 74 73 72 72 72 72 72 71 71 71 71 72 71
66 68 62 55 49 52 51 55 58 57 57 57 58 59 60 63 64 65 66 65 67 69 71 74 74 74 73 74 74 74 74 74 74 74 74 73 73 72 72 71 71 71 71 71 71 72 71 71 72
68 65 57 54 48 50 52 56 60 54 55 57 58 58 60 61 63 65 63 67 68 69 72 73 74 74 74 74 74 74 73 73 73 74 74 73 73 72 71 71 71 71 71 71 71 70 71 71 72
59 60 52 43 44 47 50 52 54 53 55 56 58 58 59 62 63 63 65 67 68 69 71 73 74 74 74 73 73 74 74 73 74 74 73 73 73 73 72 71 71 71 71 71 71 70 71 71 71
53 52 47 42 40 42 50 52 54 54 56 56 59 57 59 61 63 64 66 66 66 69 70 72 73 73 74 74 74 74 74 74 74 74 73 73 72 72 72 70 70 71 71 71 72 70 71 71 71
54 52 46 45 40 35 44 45 56 53 55 59 59 56 57 62 63 64 65 65 68 69 70 71 73 73 74 74 74 73 73 74 73 73 73 72 72 71 71 71 70 70 70 71 71 71 70 70 71
55 50 47 46 40 34 40 48 52 54 57 58 59 58 62 62 63 64 64 65 66 68 70 71 72 73 73 73 73 73 73 73 73 73 73 72 71 71 71 70 72 71 71 70 71 71 71 71 71
40 45 43 43 42 35 38 48 51 53 56 57 58 60 62 63 63 63 64 65 65 67 69 70 71 72 72 72 73 73 72 72 72 72 71 71 70 70 72 71 67 71 70 70 71 71 71 71 71
37 38 41 40 40 36 37 38 43 51 53 56 58 60 62 63 63 63 64 64 65 67 67 69 70 71 71 70 72 73 71 70 70 70 70 69 71 68 69 69 63 68 70 70 69 70 70 69 65
34 37 38 40 41 38 36 36 42 43 52 56 59 62 62 62 63 63 62 64 65 66 66 68 70 70 71 72 72 72 70 69 69 71 69 71 71 69 69 62 70 70 68 70 68 69 70 67 67
33 34 35 38 41 37 36 36 41 43 55 57 57 59 61 61 62 62 62 63 64 64 66 67 69 71 71 71 70 69 69 69 69 70 70 68 71 69 69 69 69 71 70 69 69 70 68 68 67
29 30 35 34 33 40 37 35 40 47 56 57 57 56 58 62 62 62 61 61 62 67 68 69 71 71 71 71 71 70 69 68 68 70 69 70 71 70 69 70 68 69 70 71 69 69 67 66 65
26 24 24 27 28 32 40 42 37 46 50 56 57 57 57 58 60 60 60 60 63 66 69 70 71 72 70 71 71 71 71 66 66 68 71 71 70 69 71 70 69 70 70 70 68 68 65 63 64
23 20 19 23 26 28 38 41 42 42 49 52 55 56 57 57 57 58 58 60 60 63 68 70 70 71 71 71 71 71 69 70 68 71 70 71 71 72 71 69 70 69 69 69 69 68 66 66 62
18 17 18 20 26 32 34 38 37 37 47 48 52 53 55 57 57 59 58 59 62 64 68 69 69 69 70 71 71 71 68 69 69 69 71 72 71 71 69 70 69 68 70 69 66 66 66 60 58
16 17 18 20 27 33 36 38 40 40 41 47 49 50 52 54 56 59 58 60 63 65 67 66 69 70 70 71 72 71 70 71 71 71 68 69 69 70 70 70 69 70 69 66 66 65 63 61 61
18 18 19 20 30 33 38 41 41 40 42 43 48 49 50 52 54 58 59 60 62 66 66 67 67 71 71 70 71 71 71 71 69 69 71 70 70 71 70 70 70 70 69 67 66 64 60 60 63
17 18 19 21 29 31 42 42 41 39 37 40 44 48 50 51 52 56 57 59 61 65 66 67 66 71 71 72 71 71 70 70 70 70 70 70 72 71 71 70 70 69 69 67 64 62 61 62 62
17 18 19 21 26 32 42 43 44 40 40 43 45 46 49 50 51 54 56 58 59 64 67 68 67 69 72 73 72 71 71 70 70 70 71 72 72 72 70 71 70 69 68 67 63 62 61 58 63
19 20 20 20 21 25 36 34 44 42 45 47 47 43 46 49 51 53 56 57 59 64 66 68 69 70 71 72 71 70 69 67 69 69 69 71 73 72 70 70 71 69 66 65 64 64 62 63 59
18 21 20 20 20 32 31 30 34 44 45 45 46 42 43 46 49 53 56 57 59 62 66 70 70 70 72 71 71 70 69 68 69 70 69 72 73 72 72 72 72 68 63 65 65 62 60 64 61
11 18 20 20 20 19 29 29 32 38 45 48 45 43 43 44 47 53 55 58 58 63 66 69 71 71 72 71 72 71 70 69 67 67 69 71 71 70 72 71 70 67 65 64 63 63 62 63 63
7 9 14 16 18 18 20 29 33 35 37 41 43 42 44 44 46 48 55 57 58 62 65 69 71 71 73 72 71 72 70 69 68 67 70 70 69 71 71 71 69 66 65 65 64 63 64 63 62
6 7 10 14 17 18 20 20 23 34 38 41 44 45 45 45 45 48 54 56 59 60 65 68 71 71 73 73 73 71 72 69 68 70 70 70 69 70 70 70 69 67 65 67 66 64 64 63 62
8 5 7 10 17 19 19 19 21 33 35 38 40 43 43 44 45 47 52 56 59 60 66 67 71 72 73 73 73 72 72 71 70 71 71 70 68 69 69 71 70 68 66 66 65 64 62 65 63
7 10 6 6 7 12 15 19 22 26 35 40 40 40 41 43 45 48 50 55 59 61 64 67 70 72 73 72 74 73 73 71 71 71 70 71 68 69 68 70 71 70 66 64 65 63 64 63 63
9 5 5 8 8 10 15 18 23 23 35 40 39 39 40 43 44 48 51 54 59 61 63 66 70 72 73 74 74 73 73 72 71 72 71 70 69 69 69 69 71 69 67 66 66 63 62 64 60
10 10 5 8 8 14 11 13 24 20 33 39 38 38 36 39 44 48 50 54 59 61 62 65 70 71 73 73 74 74 74 74 72 71 72 72 69 69 70 70 68 69 67 67 66 63 63 61 62

GFSSGP_sfc_30mbdewp_012.txt.gz
Dewpoint
72 72 70 67 58 57 51 52 55 53 54 58 58 58 59 60 56 54 66 69 68 69 70 72 72 73 74 75 75 75 74 74 75 75 74 73 73 73 73 72 72 72 71 71 72 71 71 70 70
72 70 65 59 54 50 50 54 52 55 57 59 60 59 59 59 63 64 66 68 69 70 71 72 73 74 74 75 75 75 74 74 75 75 74 73 73 73 72 72 72 72 71 71 71 72 72 71 71
67 68 62 59 54 48 49 53 56 57 57 55 58 60 60 61 64 66 67 68 70 70 71 72 74 74 74 74 74 74 74 73 74 74 73 72 72 72 72 72 72 72 72 72 71 71 71 72 71
64 64 61 58 51 51 54 58 57 57 57 58 59 58 62 64 65 66 68 68 68 70 72 73 74 73 74 74 74 73 73 73 74 74 73 72 72 72 72 72 71 72 72 72 71 71 71 71 72
63 64 56 55 51 52 57 56 58 57 56 57 57 59 60 63 65 66 66 67 68 70 72 73 73 74 74 74 73 73 72 72 74 74 72 72 72 72 71 71 71 71 71 71 71 71 71 71 72
59 61 52 44 45 52 57 58 61 57 58 59 59 59 60 64 65 65 66 68 70 71 72 73 73 73 74 73 73 73 72 72 74 74 73 72 73 72 71 71 71 71 72 72 71 71 71 71 71
55 52 49 45 46 52 56 60 56 57 58 58 59 58 61 63 64 66 68 69 70 71 72 72 72 71 72 74 73 73 73 72 73 73 73 73 72 72 71 70 71 71 71 72 71 70 71 71 70
54 54 45 47 43 45 53 55 57 57 57 60 60 58 60 62 64 66 67 68 69 70 72 73 73 72 73 74 73 73 73 73 73 73 72 72 72 72 71 71 70 71 70 71 71 70 70 70 70
58 49 41 44 44 46 54 54 56 58 58 58 58 60 62 63 64 65 65 67 68 70 72 73 73 73 74 74 73 73 73 73 73 72 72 73 72 71 71 72 71 71 71 70 71 70 70 71 71
55 46 43 45 44 46 52 54 56 57 57 57 59 61 62 63 64 64 65 66 68 69 70 72 72 73 73 73 72 73 73 73 73 73 73 73 71 70 72 71 67 69 71 71 71 71 71 72 70
44 41 42 44 44 49 53 54 56 56 56 57 59 61 62 63 63 64 65 66 67 69 70 71 72 72 72 72 73 73 72 72 72 72 71 71 71 69 69 68 65 65 70 69 69 69 70 70 66
35 36 39 41 40 44 50 53 56 56 56 59 61 61 62 62 63 64 64 65 67 68 69 70 71 71 71 71 73 72 71 70 70 70 70 70 70 67 67 63 69 68 70 67 70 68 69 69 67
31 32 34 39 41 39 40 50 55 54 58 60 61 62 62 62 62 64 65 65 67 68 68 69 70 71 71 71 71 72 70 69 69 69 71 71 69 67 67 68 69 68 70 69 69 69 69 68 67
30 30 29 34 39 39 36 42 47 55 58 60 60 61 62 62 63 63 64 64 65 67 67 69 70 70 71 71 71 70 70 69 69 69 70 70 70 68 68 67 68 69 70 70 69 69 67 65 64
29 26 25 24 30 37 40 42 50 56 58 60 60 61 62 62 63 62 63 63 65 65 66 68 70 70 71 70 70 70 70 69 69 69 70 70 71 69 69 69 69 70 70 70 68 67 65 63 64
20 21 20 21 24 39 38 42 53 56 57 59 60 61 62 62 62 62 61 63 63 65 66 67 69 71 70 70 71 71 70 68 68 69 70 70 70 70 70 70 69 69 69 69 68 68 66 65 59
19 19 19 18 22 40 38 39 48 56 56 56 57 60 60 61 62 62 62 62 63 66 68 68 68 70 70 71 71 71 69 69 69 70 71 70 70 71 70 69 69 68 70 68 66 66 65 60 58
18 17 17 17 18 34 37 39 43 55 56 56 56 56 57 60 62 61 62 61 64 67 69 69 69 69 70 71 71 70 69 69 71 70 70 71 71 72 69 70 69 68 69 67 66 64 63 60 61
17 17 17 18 21 35 35 37 40 50 54 55 56 56 56 56 58 59 59 61 62 66 68 69 69 69 70 70 69 69 68 69 69 71 69 70 70 70 69 70 70 70 69 66 66 64 60 59 63
15 14 16 18 20 28 38 37 40 46 49 52 53 55 56 56 57 58 58 61 62 66 68 68 69 69 69 69 69 70 70 70 70 70 70 69 69 70 70 70 70 70 69 67 65 62 60 61 62
15 13 14 17 19 32 40 39 40 41 44 47 50 52 54 55 55 57 58 60 62 65 67 67 69 69 69 70 70 71 71 70 70 70 70 70 71 70 71 71 70 69 69 66 63 61 60 58 62
17 18 16 17 19 19 38 31 41 42 40 42 47 49 50 52 54 56 58 58 61 64 66 66 68 71 70 71 70 69 68 68 69 69 70 71 71 71 71 70 70 68 67 66 63 62 61 60 58
17 18 20 19 20 21 22 30 36 43 42 45 45 46 49 51 52 53 57 58 59 62 65 66 66 71 71 71 70 70 68 68 68 69 69 70 72 72 71 70 70 68 66 65 63 63 61 64 58
17 12 16 21 20 19 25 31 31 41 40 43 44 46 47 50 51 52 56 57 59 61 64 66 66 67 71 71 70 70 69 68 68 68 68 70 72 72 71 71 71 68 65 65 63 62 60 64 63
13 9 7 10 15 17 20 27 30 36 42 42 43 44 46 48 50 51 53 55 57 59 63 66 67 67 69 71 70 70 69 69 68 67 68 70 71 71 71 71 71 68 64 64 63 63 61 63 62
12 10 7 7 12 15 19 20 24 34 42 44 43 44 47 44 48 51 53 55 56 59 63 66 68 67 69 70 70 70 70 69 69 68 70 69 70 70 70 71 70 67 65 64 63 63 63 63 61
14 8 8 7 16 13 16 20 22 25 37 43 44 45 45 44 45 48 53 55 56 58 63 66 68 68 69 70 69 70 71 70 69 70 70 70 70 69 70 71 69 67 65 65 64 63 62 64 62
12 11 7 7 5 6 10 17 18 20 23 35 40 44 44 44 44 46 49 54 57 58 63 66 68 69 70 71 70 70 70 71 70 69 70 70 69 70 70 70 69 67 65 66 65 64 63 63 64
13 10 9 7 5 4 7 9 16 19 22 28 41 44 44 45 45 45 47 54 57 58 63 66 68 68 70 71 71 71 71 70 71 70 70 71 69 68 69 69 69 67 66 65 64 64 63 61 62
15 12 8 6 6 7 5 6 19 19 21 28 35 42 45 45 45 47 47 51 56 59 63 65 68 69 69 71 71 71 72 71 70 70 70 71 70 68 69 69 69 69 67 64 65 63 62 62 61

GFSSGP_sfc_30mbdewp_015.txt.gz
Dewpoint
72 72 71 67 57 56 52 52 56 52 53 59 58 56 58 60 57 52 66 68 68 69 70 70 71 72 73 74 74 73 73 73 73 73 73 72 73 73 72 72 72 72 71 72 71 71 71 70 70
72 68 65 59 53 49 50 55 53 56 59 60 60 59 59 59 63 64 66 68 68 69 71 71 72 73 73 73 74 73 73 73 73 73 73 73 73 72 72 72 72 72 71 71 71 72 71 71 70
69 68 62 58 54 49 50 54 56 58 59 57 59 60 60 61 64 64 67 68 68 70 71 72 72 73 73 73 73 74 74 73 73 73 73 73 72 72 72 72 72 72 72 72 72 71 71 71 70
64 63 61 56 51 52 53 57 57 57 57 59 59 59 62 64 64 66 68 69 69 70 71 73 72 72 72 73 73 73 73 73 73 72 72 72 72 72 72 72 72 72 72 72 71 71 71 71 69
64 62 55 55 51 52 57 55 59 57 57 58 59 59 61 64 66 67 68 69 69 70 72 73 73 73 72 72 72 72 72 73 73 72 72 72 72 71 71 71 72 71 72 72 71 71 71 71 70
60 61 51 47 46 53 56 55 59 57 58 59 59 59 61 66 66 67 67 68 70 70 72 73 73 73 73 72 72 72 72 73 73 73 72 72 72 71 71 71 71 71 71 72 71 71 71 70 70
58 54 48 46 49 53 55 58 59 57 57 58 59 58 62 64 66 66 67 69 70 71 72 72 72 72 72 73 72 72 72 72 73 73 72 72 73 72 71 71 71 71 71 71 71 70 70 69 69
58 53 48 46 50 51 56 59 58 58 57 60 60 57 59 64 65 66 68 69 70 71 72 72 71 71 72 73 72 72 72 72 73 72 72 72 72 72 71 71 70 70 70 71 71 70 70 70 68
60 52 46 44 46 47 55 56 58 59 59 58 59 60 61 64 66 67 67 68 69 71 72 72 71 71 73 73 72 72 72 72 72 72 72 73 72 72 72 72 71 72 71 70 70 70 70 69 69
57 51 46 45 45 52 55 55 57 58 58 58 59 61 63 64 66 66 66 67 68 69 71 72 72 72 73 73 73 73 73 73 73 73 72 73 71 70 71 71 70 69 71 71 70 70 70 70 69
56 52 48 45 43 53 54 55 57 57 56 58 58 61 62 64 65 65 66 67 67 69 70 72 72 73 73 73 72 73 73 73 73 73 72 72 70 71 72 70 68 64 70 69 69 69 69 69 67
43 47 51 45 39 53 54 55 56 56 55 59 60 61 62 63 64 64 66 67 67 68 69 71 72 72 73 72 72 73 72 72 72 72 72 71 70 68 68 64 67 67 69 67 67 69 69 69 68
43 41 35 36 37 50 54 55 55 56 58 59 60 61 62 63 64 64 66 67 68 68 69 70 71 72 72 71 72 72 72 71 70 70 70 70 69 69 67 65 69 68 69 69 69 69 69 68 66
29 30 30 30 28 49 53 55 55 56 58 60 60 61 62 62 63 64 65 66 67 68 69 70 70 71 71 70 71 72 71 70 69 69 70 70 70 69 67 65 68 68 69 69 69 69 67 64 64
27 25 23 24 25 46 51 51 54 56 60 60 60 61 62 62 63 64 64 65 67 68 69 69 70 70 70 70 70 70 70 70 69 68 70 70 70 69 68 67 68 69 70 70 69 67 65 63 61
22 21 22 24 23 29 46 44 51 58 59 59 60 61 61 62 62 63 64 65 66 67 67 68 69 70 70 70 70 70 70 70 69 69 70 70 70 69 69 69 69 69 69 70 68 67 66 63 59
19 22 21 22 21 38 38 39 54 58 59 59 60 60 61 62 63 63 63 64 65 66 67 68 69 69 70 70 71 70 70 70 69 69 69 70 71 70 70 70 70 69 69 68 67 66 65 59 58
20 19 19 19 22 37 38 41 54 57 58 58 59 60 61 61 62 62 62 63 64 65 66 67 69 70 70 70 71 71 70 69 69 69 70 70 71 71 70 69 69 68 69 68 66 64 64 60 60
19 18 19 19 21 30 35 39 54 56 57 58 59 59 61 61 62 62 62 62 63 65 66 67 67 68 70 69 70 69 69 68 69 70 70 71 71 71 70 69 69 68 68 67 66 64 61 58 62
19 18 17 17 19 23 30 35 53 55 56 57 58 59 60 61 61 62 62 62 61 65 67 67 67 68 69 69 69 69 69 69 69 70 70 70 71 71 70 69 69 69 69 67 66 62 59 60 62
18 18 17 16 19 26 36 38 43 54 55 56 56 57 59 59 60 62 61 61 61 64 67 68 68 68 68 69 69 70 70 69 69 69 69 69 70 70 70 69 69 69 69 68 65 62 58 58 62
19 18 17 15 15 14 36 32 39 46 53 54 55 56 56 56 58 59 60 59 60 63 66 68 68 68 68 69 68 68 67 66 68 69 70 70 70 70 70 70 70 69 69 67 64 62 60 59 59
19 20 19 20 18 18 20 25 29 41 45 47 51 53 55 56 56 57 59 59 60 62 65 67 68 68 68 68 68 68 67 67 68 69 69 70 70 71 71 70 70 69 68 67 64 62 61 60 58
21 19 16 19 19 15 18 21 20 36 40 42 45 49 52 54 55 56 57 58 60 62 65 67 67 68 68 69 68 68 67 67 67 68 68 68 70 71 71 71 70 68 67 66 64 63 61 63 60
20 16 14 11 12 13 16 21 21 29 41 41 43 44 49 50 52 54 55 57 58 61 64 66 66 68 69 69 69 69 68 68 67 67 68 68 69 70 71 70 70 69 66 65 64 62 60 63 62
17 16 12 9 10 12 18 18 20 28 33 43 42 44 45 48 50 52 53 55 58 59 63 65 66 66 69 70 69 69 69 69 68 68 67 68 69 70 71 71 70 70 66 65 64 62 61 62 62
14 14 14 10 16 11 16 19 21 22 26 37 42 42 44 46 48 50 52 53 56 58 61 65 65 65 68 70 70 70 70 69 69 68 68 68 70 70 70 71 70 69 67 64 63 62 62 63 61
15 14 10 9 9 8 9 12 13 20 22 29 39 43 43 46 46 49 50 52 54 57 59 63 65 65 65 68 69 69 70 70 69 69 68 68 69 70 70 71 70 69 66 65 63 62 62 63 62
13 13 11 11 8 7 6 8 13 18 21 24 32 42 44 46 46 46 49 51 53 56 58 62 65 65 65 66 68 68 69 70 69 69 69 69 69 69 70 70 70 68 66 65 64 63 62 62 62
11 12 11 10 8 8 7 7 17 16 18 22 24 34 41 44 46 45 46 49 52 55 57 62 64 66 65 67 68 68 68 69 70 69 69 70 70 69 69 69 69 68 67 65 64 63 63 61 60

GFSSGP_sfc_30mbdewp_018.txt.gz
Dewpoint
72 72 71 67 58 55 52 52 56 52 54 59 57 56 57 60 56 51 66 68 68 68 69 70 70 71 73 74 74 73 73 72 73 73 72 73 72 72 72 72 72 72 72 71 71 71 71 70 70
73 70 66 59 52 48 49 55 53 56 58 60 60 60 59 59 63 64 65 68 68 69 70 70 71 73 73 73 73 73 72 72 73 72 72 73 72 72 72 72 71 71 71 71 71 71 70 70 70
69 68 62 57 52 48 49 54 56 58 59 59 59 60 60 61 63 64 67 68 69 70 70 71 72 74 73 72 73 74 73 72 72 72 73 72 72 72 72 72 72 72 72 72 71 71 70 70 69
67 63 62 55 50 52 52 56 57 58 58 59 60 59 62 64 63 66 67 68 69 70 71 72 72 72 73 72 74 74 72 72 72 72 72 72 72 72 72 72 72 72 72 71 71 71 71 68 68
65 61 54 51 51 52 55 58 58 56 58 58 59 58 60 64 66 66 67 68 69 70 72 72 73 73 73 73 73 73 72 72 72 72 72 72 72 72 72 72 72 72 72 71 71 71 70 70 70
58 61 50 47 46 52 56 56 59 57 58 59 58 59 62 65 65 67 68 68 70 71 72 72 73 72 73 72 73 73 73 73 73 72 72 72 71 71 71 71 71 72 71 71 70 70 69 69 72
57 53 49 49 48 52 55 57 59 58 58 58 58 59 63 64 66 67 68 69 70 71 72 72 72 71 72 72 72 72 72 73 73 72 72 73 72 71 71 71 71 70 71 71 70 70 69 69 70
60 53 50 45 49 50 57 58 59 57 57 59 60 57 60 64 66 67 68 69 69 71 72 72 72 72 72 72 72 72 72 72 73 73 72 72 72 72 71 71 70 71 70 70 70 69 69 69 69
60 54 49 45 50 49 58 56 59 59 58 58 59 60 61 65 66 67 68 68 69 70 72 72 71 71 72 72 72 72 72 72 72 72 72 73 72 72 71 72 71 72 71 70 69 69 69 69 69
58 53 49 47 47 49 56 56 58 58 57 58 59 61 64 64 65 66 66 66 68 69 71 71 71 71 73 73 72 72 72 72 72 72 72 73 72 71 71 71 70 69 72 71 70 70 69 69 68
59 54 52 48 47 48 55 56 57 58 56 58 59 61 63 64 65 66 66 66 67 69 70 71 71 72 73 73 73 72 72 73 73 73 72 72 71 70 72 71 69 65 68 69 69 69 69 70 67
54 51 54 50 46 52 54 56 56 57 56 57 61 62 63 64 64 65 66 67 67 69 70 71 72 72 73 73 72 72 72 72 72 72 72 71 70 70 69 67 64 67 68 68 67 69 69 69 67
50 47 44 43 42 43 54 55 55 57 57 60 61 62 62 64 64 65 66 67 67 68 69 71 72 72 73 72 72 72 72 72 71 71 71 71 70 69 67 67 68 68 69 69 69 69 69 68 66
32 36 40 34 31 41 53 54 55 56 59 59 61 61 62 63 64 65 66 66 67 68 68 70 71 72 72 71 71 72 72 71 71 70 70 70 69 69 69 68 67 69 69 69 69 69 67 64 64
27 27 28 28 28 37 52 53 54 57 58 59 60 61 62 63 64 64 65 66 67 68 68 69 71 72 71 71 70 71 71 71 70 69 69 70 70 70 69 67 67 69 70 70 69 67 66 63 60
23 21 22 25 28 44 50 46 55 57 58 58 59 60 61 62 63 64 65 66 67 68 68 69 69 70 70 70 70 70 70 70 69 69 69 70 70 70 69 68 68 69 70 70 68 68 67 63 59
21 22 22 23 23 33 51 42 52 57 58 58 59 59 61 62 62 64 65 65 66 67 68 69 69 69 70 70 70 70 70 70 69 69 69 69 70 70 69 69 70 70 68 69 68 67 65 59 59
21 20 20 21 23 40 47 41 51 57 58 58 59 60 61 61 62 63 64 65 66 67 68 68 69 69 69 69 70 70 70 70 69 69 69 70 70 70 70 69 70 69 69 68 66 65 63 60 61
23 20 20 20 22 28 38 41 53 57 58 58 59 59 60 61 62 63 63 65 65 67 67 68 68 69 69 69 69 70 69 69 69 69 69 70 71 71 70 70 69 68 68 68 66 64 61 59 62
20 19 19 19 19 19 19 24 51 56 57 58 58 59 60 61 62 62 63 63 64 65 66 67 68 69 70 69 69 69 70 69 69 69 70 70 71 71 70 70 69 69 68 67 66 63 60 60 61
20 19 19 19 18 21 28 31 37 55 56 57 58 59 60 60 61 62 62 62 63 64 65 66 67 68 69 69 69 69 69 69 69 69 69 69 70 71 71 70 69 69 69 68 66 64 59 58 62
20 20 19 17 15 15 33 21 38 49 55 56 57 59 59 60 61 61 62 62 62 63 65 66 67 67 69 69 69 68 68 67 68 68 69 69 70 70 71 70 70 69 69 69 67 64 61 60 59
21 21 19 18 16 16 21 20 21 45 53 54 55 57 59 60 60 61 61 62 62 62 63 66 67 68 68 69 68 68 67 67 67 68 68 69 70 70 70 70 70 69 69 69 67 64 61 60 59
21 19 17 20 19 15 17 18 19 36 47 53 54 55 56 57 59 59 61 62 62 62 62 65 67 67 68 68 68 68 67 67 67 67 68 68 70 70 71 70 70 70 69 68 67 64 62 61 60
20 18 15 13 14 15 17 18 18 26 40 44 51 53 55 56 57 57 58 60 61 61 62 65 67 67 68 68 68 68 67 67 67 67 67 68 68 70 70 71 70 69 68 67 66 64 62 63 62
18 17 15 10 10 13 18 16 18 21 33 41 42 46 50 53 56 57 57 58 60 60 61 64 66 67 68 68 68 68 68 68 67 67 67 67 68 69 71 71 71 70 68 67 65 64 62 62 63
17 16 16 12 15 11 15 18 20 24 24 35 40 41 43 48 51 54 56 57 58 59 61 64 65 67 67 68 68 68 68 68 68 68 68 68 69 69 70 71 71 70 68 67 65 63 62 61 62
15 16 15 14 11 9 11 11 14 21 22 26 34 41 43 44 47 50 52 55 57 58 61 63 65 65 67 68 68 68 69 69 69 68 68 68 68 70 70 71 71 70 68 67 65 63 63 62 62
15 13 13 15 12 8 8 10 15 15 22 22 24 35 41 43 45 47 50 52 54 56 59 62 64 65 65 68 69 68 69 69 69 69 68 68 69 69 70 70 70 70 68 67 65 64 63 62 62
18 15 13 11 10 10 9 8 15 14 16 20 23 30 40 44 45 47 48 50 52 54 57 60 63 64 65 66 68 69 69 69 69 69 69 69 69 70 70 70 70 70 68 67 66 65 63 62 62

GFSSGP_sfc_30mbdewp_021.txt.gz
Dewpoint
70 70 70 66 58 57 52 53 56 52 53 58 56 57 56 60 56 53 67 67 67 68 68 70 71 72 73 73 73 73 73 73 73 73 72 72 72 72 72 72 72 72 71 71 71 71 70 70 70
71 70 67 60 54 49 50 55 53 55 58 58 59 59 59 59 62 64 65 66 66 66 67 68 72 74 73 73 74 73 72 72 73 72 72 72 72 72 72 71 71 71 71 71 71 71 70 70 70
70 68 62 58 52 48 50 54 56 57 58 57 59 60 60 60 63 64 66 66 66 66 66 68 72 74 73 73 73 73 72 72 73 72 73 72 72 72 72 72 72 72 71 72 71 70 70 69 69
67 65 62 56 49 52 51 55 56 57 58 59 59 59 62 64 63 65 66 66 65 67 67 71 73 73 73 73 73 72 72 72 72 73 72 72 72 72 72 71 72 72 72 71 71 71 69 68 68
65 61 56 52 48 53 55 57 57 56 57 58 59 58 60 64 66 65 66 65 65 66 68 70 73 73 73 74 73 72 72 72 72 72 72 72 72 72 72 72 72 72 71 71 70 70 70 70 70
59 60 50 46 46 53 54 57 57 56 58 58 58 58 61 66 65 65 65 65 66 66 68 70 72 74 73 74 73 72 72 72 72 72 72 72 72 71 71 72 72 71 71 70 70 69 69 70 70
57 53 49 48 46 51 54 58 57 57 57 56 58 57 63 64 65 65 65 66 66 68 68 69 69 71 72 73 72 72 72 73 72 72 73 72 72 71 71 71 71 70 70 70 70 70 69 70 70
59 54 50 47 47 49 56 55 58 57 57 58 58 57 60 63 65 66 66 66 66 68 68 70 68 69 70 71 72 72 72 73 73 72 72 72 72 71 71 71 71 71 70 69 69 69 69 69 69
61 55 49 45 48 49 57 56 58 59 57 57 58 59 60 64 65 65 65 65 66 67 68 69 68 69 71 70 71 71 72 72 72 72 72 72 72 72 71 72 71 71 70 69 69 69 69 69 70
59 54 49 48 48 43 55 56 58 57 56 56 58 61 63 64 64 63 63 63 64 65 66 68 69 69 70 69 71 71 70 69 70 70 71 70 71 72 71 71 71 69 71 70 70 69 69 68 62
60 54 53 48 47 45 51 56 57 57 55 55 57 60 62 63 63 62 62 63 63 65 66 67 69 70 69 69 70 70 70 70 70 72 72 71 72 71 72 71 70 67 68 67 68 68 69 70 64
56 56 54 48 47 47 51 56 56 57 55 56 58 60 61 62 62 61 62 63 63 65 66 67 69 70 70 70 69 69 69 70 70 70 73 71 70 71 71 70 68 68 67 69 69 68 70 69 68
56 50 48 46 45 41 46 54 54 56 56 57 60 60 60 61 61 62 62 63 64 65 66 67 69 70 70 71 69 69 70 70 69 71 71 70 69 71 71 69 69 69 69 69 70 70 70 68 66
44 42 32 36 37 33 43 48 55 55 58 59 60 60 60 60 60 62 63 64 66 66 66 67 69 70 70 70 70 70 70 70 70 69 69 71 69 70 70 70 68 69 70 70 71 71 68 66 65
31 25 25 26 28 29 40 50 52 55 58 59 60 60 60 61 61 62 64 65 66 67 67 68 69 70 70 70 71 70 69 69 68 68 70 70 71 71 72 71 68 69 71 72 71 70 68 63 60
25 25 20 23 25 33 40 28 49 57 57 58 59 59 60 61 61 63 64 65 66 67 67 68 69 69 70 70 71 69 69 69 68 68 68 69 71 72 72 71 69 70 71 71 70 70 68 65 60
21 20 22 23 25 39 44 31 41 56 56 57 58 59 59 61 62 63 64 65 66 67 68 68 69 69 70 70 70 69 69 69 68 68 68 69 70 71 71 71 70 72 70 70 70 69 68 63 60
17 18 21 23 25 29 39 39 45 55 56 56 58 58 59 60 61 63 64 65 66 67 68 68 68 69 70 70 70 69 68 68 67 68 68 70 71 71 72 71 71 71 70 69 69 69 66 62 62
17 17 20 21 22 30 34 38 45 54 56 56 57 57 58 59 60 62 64 64 65 67 68 69 69 69 70 69 67 67 66 67 68 69 70 72 72 72 72 70 71 71 69 70 70 68 65 61 64
18 16 19 21 21 21 24 28 33 50 55 56 57 57 58 59 60 62 63 64 65 66 67 69 69 70 70 69 68 67 67 67 69 69 70 71 72 72 72 71 71 71 69 70 70 68 63 60 63
17 14 16 20 20 20 23 23 30 48 53 56 57 58 58 58 59 61 62 63 64 65 67 69 70 71 71 70 69 69 70 71 70 69 70 71 72 72 73 72 71 71 71 69 70 68 65 60 63
12 15 16 19 20 19 26 21 32 36 49 53 55 57 58 58 60 60 62 63 63 65 67 69 70 70 70 71 69 69 67 66 67 68 69 70 72 72 72 72 72 72 70 70 70 69 66 63 59
14 18 17 19 19 19 19 22 24 41 45 51 54 56 57 58 59 60 61 62 63 64 66 67 69 70 70 72 70 70 68 67 67 68 70 71 71 72 72 72 72 72 71 71 71 69 67 64 60
24 22 22 22 20 17 19 19 21 27 35 44 51 55 57 58 58 60 61 62 63 64 64 66 68 69 70 71 71 71 70 69 67 68 68 68 69 69 71 72 72 72 71 71 71 70 68 65 62
21 18 15 13 14 15 19 20 21 26 35 33 46 52 55 58 58 59 61 62 63 64 65 65 68 69 70 70 70 71 70 70 70 69 68 67 68 68 70 72 72 71 72 71 71 70 68 66 63
20 16 9 8 8 11 22 18 20 24 26 36 40 47 52 56 58 59 60 62 64 64 65 65 66 68 69 70 70 71 71 70 69 69 67 67 67 68 70 72 72 72 72 71 70 69 68 66 65
19 18 15 11 16 12 12 16 22 25 25 31 36 39 46 51 55 57 59 61 63 64 65 65 66 68 69 69 70 70 71 70 69 69 70 68 70 68 70 71 72 72 72 71 70 68 68 66 65
18 19 15 13 6 6 10 16 13 23 24 28 33 36 39 43 49 54 57 59 61 62 64 65 66 67 68 69 69 70 70 70 70 70 70 69 69 70 69 70 71 72 72 72 71 69 68 66 65
17 17 16 14 11 3 2 4 21 24 31 28 30 33 36 40 44 48 54 58 60 61 62 64 65 67 68 69 69 69 70 70 70 70 70 70 70 71 70 71 71 71 71 71 71 70 68 66 65
19 17 17 13 17 12 8 5 19 21 26 32 29 32 37 43 46 47 49 53 56 59 60 62 64 65 67 68 69 69 70 70 70 70 70 71 71 71 72 71 71 71 71 71 71 70 68 67 66

GFSSGP_sfc_30mbdewp_024.txt.gz
Dewpoint
70 70 69 67 59 56 51 51 53 50 52 54 56 55 55 59 55 56 67 68 69 69 70 70 72 72 71 72 73 73 73 73 73 72 72 72 72 72 73 72 72 71 71 71 71 71 70 70 70
67 68 67 61 55 50 50 52 50 52 55 56 57 57 57 58 61 64 66 67 68 67 67 68 72 73 72 73 73 73 72 73 72 72 72 73 72 72 72 71 71 72 71 71 71 70 70 70 70
68 67 61 57 50 46 48 53 53 54 56 55 57 59 59 60 63 64 66 67 66 66 66 69 73 74 73 73 73 73 72 72 73 73 72 73 72 72 72 72 71 71 72 71 70 70 69 69 69
67 66 61 55 46 49 50 53 54 55 56 56 57 57 61 63 63 64 65 65 65 65 65 72 73 73 73 73 73 72 72 72 72 72 72 72 72 72 71 72 69 71 71 71 70 70 70 68 68
65 59 55 51 46 49 52 55 55 54 55 56 56 57 60 63 64 64 64 64 63 64 66 69 74 73 73 73 73 72 72 72 72 72 72 72 72 72 71 72 71 71 71 70 70 70 70 69 70
60 58 49 39 43 50 52 54 54 54 55 57 56 58 62 64 63 64 63 63 63 63 64 68 73 73 74 73 72 72 72 72 72 72 72 72 72 72 72 72 71 71 70 70 69 69 70 70 70
58 51 44 43 43 47 51 54 53 53 55 55 56 57 61 62 63 63 63 63 63 64 63 66 68 71 72 74 72 72 72 72 72 72 72 72 71 71 71 71 71 70 70 69 69 69 69 70 70
57 53 45 43 43 47 52 54 55 54 55 56 57 56 59 62 63 63 63 63 63 64 62 63 65 66 69 70 72 72 72 72 72 72 72 72 71 71 71 70 71 70 69 69 69 69 69 68 69
59 51 42 42 43 46 53 53 56 57 55 55 56 56 60 63 63 62 63 63 64 63 62 62 63 65 67 67 70 72 72 72 72 72 72 71 67 68 69 71 71 70 69 69 69 68 68 69 69
55 48 42 43 42 41 47 52 56 54 54 53 56 57 61 62 62 61 62 62 64 62 62 61 62 64 65 64 67 67 66 65 65 65 68 67 68 69 69 70 71 69 70 70 70 69 69 67 57
52 48 45 43 43 42 44 52 55 52 51 52 56 59 61 61 61 61 61 61 61 62 62 62 63 64 65 63 66 65 65 64 67 69 68 68 69 69 67 67 67 65 67 67 66 67 63 68 61
50 49 49 45 43 42 39 49 53 52 50 53 57 59 60 60 60 60 59 60 60 62 62 63 64 65 65 64 65 64 63 64 64 65 69 69 68 68 68 66 66 66 64 66 64 65 64 65 68
50 45 44 44 43 41 37 44 48 52 53 54 57 58 59 59 59 59 59 59 60 61 62 63 65 67 66 66 64 62 63 63 63 66 67 67 67 69 68 68 67 67 65 65 67 65 64 67 65
44 46 43 33 33 36 33 40 47 50 54 55 57 57 58 58 58 59 59 59 60 61 62 63 65 67 67 67 67 65 66 64 65 64 63 69 68 69 67 68 66 66 66 67 66 66 67 64 62
41 37 29 27 29 30 30 32 43 48 55 56 56 57 57 58 58 59 59 60 61 62 62 64 66 67 68 69 69 68 65 65 64 63 65 68 69 71 71 68 67 65 69 67 67 66 66 62 59
28 27 26 29 30 29 31 31 42 50 54 55 56 57 57 57 57 58 59 60 61 63 64 65 65 66 68 68 69 67 65 65 63 62 63 67 70 72 71 69 67 67 69 67 66 65 64 62 59
22 24 27 29 29 31 34 32 37 49 52 53 56 57 57 57 57 58 60 61 62 65 66 67 67 67 68 69 69 68 66 66 63 62 62 67 70 71 71 70 68 70 68 67 66 67 65 61 58
22 22 24 26 29 29 30 33 34 45 48 51 55 56 56 57 58 59 60 61 62 65 67 68 68 68 69 69 70 67 65 65 64 63 63 66 69 70 72 69 68 68 68 67 69 67 65 61 54
21 22 23 25 29 28 30 30 32 41 48 48 54 56 56 57 58 59 61 62 63 64 66 68 68 69 70 68 67 65 63 63 63 63 66 69 70 71 72 70 68 68 68 68 68 68 66 60 58
20 18 20 24 26 24 27 27 31 37 47 48 52 55 56 56 57 59 60 61 61 63 66 68 68 69 70 69 67 64 63 62 63 64 67 70 71 72 72 72 70 68 68 69 69 68 62 61 57
18 18 19 21 24 23 24 25 27 27 36 46 49 53 55 56 56 58 59 60 61 62 65 67 69 69 70 68 67 66 65 65 64 65 67 69 71 71 73 71 70 70 69 69 70 69 66 59 58
15 16 17 17 20 22 26 23 27 28 33 39 45 50 53 55 57 57 58 59 60 62 65 67 69 70 70 70 67 67 64 64 64 66 65 67 71 71 71 72 71 71 69 69 70 69 67 67 58
14 9 12 14 15 19 22 23 24 28 29 32 40 45 51 53 56 57 58 58 59 61 64 66 69 71 71 71 69 68 67 65 65 65 66 70 70 71 70 71 71 72 72 70 71 70 70 66 61
17 12 10 13 13 15 20 23 23 25 29 31 39 45 50 53 55 57 58 58 58 60 63 65 69 72 72 71 71 71 70 68 65 66 65 66 68 69 70 70 70 70 71 71 71 71 70 68 64
18 16 12 8 8 11 18 20 23 25 26 30 31 36 49 52 54 55 58 59 58 60 62 65 68 71 71 71 71 71 71 70 69 68 68 66 65 65 68 71 71 71 72 71 72 72 70 70 66
18 15 7 6 4 6 15 17 20 24 27 28 30 30 43 51 54 54 57 59 60 60 63 64 67 70 70 70 72 73 73 70 69 70 67 67 65 65 66 69 71 71 71 72 72 71 70 69 68
19 16 11 6 11 9 7 13 18 23 24 26 27 29 33 48 52 54 55 58 60 62 64 66 67 70 70 69 72 73 73 72 68 70 71 68 69 66 67 69 71 71 71 71 72 71 70 69 69
17 18 10 8 7 7 4 9 13 18 23 25 26 28 31 41 50 52 55 56 59 61 63 65 67 69 70 70 71 71 71 73 72 72 71 70 69 70 67 70 70 70 71 71 72 70 70 70 68
15 15 14 10 7 5 5 3 13 16 22 23 26 28 30 37 43 48 51 54 56 59 62 64 66 67 68 69 70 71 70 70 72 71 72 73 71 71 71 71 70 70 70 71 72 71 68 70 69
16 15 15 11 12 10 8 4 11 15 17 24 24 27 29 32 36 41 44 50 54 57 59 61 64 65 67 68 71 71 71 71 70 72 72 73 72 72 72 71 71 70 70 71 72 71 68 70 69

GFSSGP_sfc_30mbdewp_027.txt.gz
Dewpoint
69 70 70 67 59 56 53 53 51 50 52 53 55 57 57 57 58 57 64 68 65 67 68 71 72 71 71 72 73 73 73 72 73 72 72 72 72 71 71 71 71 71 71 71 71 70 70 70 70
66 68 68 64 57 52 49 51 50 52 53 55 55 55 56 57 61 64 66 66 65 66 67 66 73 72 72 73 73 73 72 73 72 72 73 72 72 71 71 71 71 71 71 71 70 70 70 70 69
67 67 64 57 56 49 46 54 52 52 54 55 56 58 59 59 63 63 67 68 67 68 66 68 73 73 73 73 73 72 72 73 73 72 72 72 72 71 71 70 71 72 71 70 70 69 69 69 68
66 65 62 56 52 44 49 52 52 52 53 54 55 57 60 62 63 65 66 66 64 65 64 71 73 73 73 73 72 72 72 73 73 72 72 72 72 71 71 70 71 71 71 70 69 70 69 68 68
65 60 55 53 50 45 48 51 54 53 53 53 55 56 60 62 63 65 66 65 64 65 65 70 74 74 73 72 72 72 72 73 72 72 72 72 72 71 71 72 71 70 70 70 70 70 70 70 70
62 58 52 47 41 44 48 50 54 54 53 54 57 59 61 63 63 64 64 64 65 65 63 69 73 74 73 72 72 72 72 72 72 72 72 72 72 72 72 71 71 70 70 70 69 70 69 69 71
58 56 53 50 42 43 45 49 51 51 51 52 56 58 61 61 63 63 63 63 64 63 62 65 68 71 73 73 72 72 72 72 72 72 72 71 71 71 71 71 70 70 69 69 69 69 69 70 70
56 52 48 47 47 43 45 44 48 53 52 55 58 58 59 62 62 63 63 62 64 62 61 62 65 67 69 70 72 72 72 72 72 72 71 71 71 70 70 71 70 70 69 69 69 69 69 69 69
55 51 46 39 41 43 46 43 49 53 53 54 55 58 60 61 61 62 62 62 63 61 59 61 62 65 67 66 70 72 72 72 72 71 71 71 70 71 71 70 70 69 69 69 68 68 68 69 69
51 52 54 40 38 40 45 45 47 50 51 52 53 58 60 60 60 61 61 62 62 62 58 59 60 62 64 62 68 67 66 65 66 66 66 72 68 69 69 69 70 70 69 69 68 68 68 69 67
48 48 55 40 40 39 42 47 47 44 47 51 54 58 59 59 60 61 61 62 62 61 57 58 60 62 62 63 64 63 62 62 64 65 67 69 68 68 68 69 66 65 68 68 67 67 67 61 62
43 47 53 41 41 39 40 46 47 45 44 50 55 58 59 58 58 58 59 60 59 58 58 58 60 62 61 62 62 60 60 60 61 63 68 68 68 66 66 68 65 65 68 69 69 67 64 68 63
42 43 44 45 43 40 37 41 48 46 45 49 55 57 58 58 58 57 57 58 58 58 58 58 61 65 65 63 61 60 60 60 60 63 65 65 69 67 67 66 68 67 68 70 64 66 65 65 66
40 42 43 41 39 37 36 35 43 48 48 50 54 56 57 57 57 57 57 57 58 59 59 59 62 65 65 65 64 61 61 61 61 61 63 67 68 67 69 68 68 67 70 69 65 65 68 63 63
39 38 41 42 35 34 35 33 40 47 51 51 54 55 56 56 57 57 57 57 58 59 60 61 63 65 66 66 66 64 62 61 61 61 63 67 69 69 71 69 67 70 68 68 67 66 68 65 57
36 37 36 35 33 32 32 30 35 46 51 51 53 53 55 56 56 57 58 58 58 59 61 62 62 64 66 66 67 65 63 62 61 60 62 66 69 70 71 67 66 69 67 65 66 65 59 60 57
27 27 30 32 32 31 31 32 39 43 49 51 52 53 53 55 55 57 58 58 59 60 62 63 63 64 66 68 67 67 65 64 61 60 60 67 69 70 71 67 69 69 69 64 64 64 62 57 54
24 23 25 26 30 31 30 32 37 44 46 48 51 53 53 53 54 57 58 58 59 61 63 65 65 67 69 68 70 66 64 64 62 60 60 69 69 70 71 69 68 69 69 67 66 67 62 59 53
25 23 22 25 29 28 31 33 33 37 42 43 49 52 53 53 54 55 57 58 59 61 64 66 67 69 69 68 67 65 63 63 61 61 62 64 67 70 71 69 69 68 68 68 67 66 64 56 57
25 24 22 23 25 28 29 30 30 33 38 42 46 51 53 54 54 54 57 58 59 60 64 68 69 71 71 69 68 65 64 61 61 62 65 66 69 70 71 71 68 68 69 68 68 67 66 56 56
18 19 20 21 24 24 27 28 29 30 35 42 45 50 51 53 54 55 56 57 58 60 64 68 70 71 71 70 69 68 65 64 62 62 63 67 69 70 70 70 69 68 70 69 69 67 65 63 55
10 13 17 19 20 21 25 24 28 28 30 39 42 47 50 52 54 56 56 57 58 60 63 68 71 71 72 72 67 67 63 61 61 62 63 65 69 69 70 70 69 70 68 71 70 68 66 65 57
12 12 13 16 18 21 23 25 26 28 27 29 34 42 48 50 53 55 56 56 57 58 61 66 71 72 71 72 71 67 66 61 62 62 65 66 71 70 69 71 70 70 71 69 69 69 68 66 63
15 13 11 11 12 15 19 22 25 26 28 29 32 35 42 46 51 54 56 56 56 57 60 64 70 72 73 73 72 71 67 64 62 64 63 64 65 69 71 69 72 71 71 69 71 71 69 69 63
16 13 8 5 5 10 15 18 22 25 25 28 30 32 36 42 49 53 56 56 56 57 60 63 70 72 73 73 72 72 71 69 70 69 64 63 63 63 69 71 72 70 72 70 71 72 70 70 67
16 13 8 5 3 3 11 15 18 24 26 26 30 31 38 42 48 52 55 57 57 58 61 63 68 72 73 73 73 73 73 70 68 68 65 64 62 63 66 73 72 72 72 72 72 71 70 70 69
17 13 11 5 5 3 2 9 15 19 22 25 27 30 33 39 45 51 54 56 58 58 62 64 67 71 73 73 74 74 74 72 68 69 71 68 68 64 68 71 72 72 72 72 73 70 71 70 70
17 15 10 8 6 5 5 9 10 18 22 24 27 28 30 33 44 49 52 55 58 58 61 64 67 71 72 72 73 73 74 74 72 72 72 69 69 70 69 69 70 72 72 73 73 70 71 72 70
16 16 13 10 6 6 9 7 11 17 21 23 25 27 29 30 41 48 52 54 57 59 59 62 66 69 71 72 72 72 73 73 74 73 73 73 73 73 71 72 71 72 72 73 73 72 70 72 71
17 15 17 12 12 6 7 8 14 13 16 23 25 27 27 29 37 46 49 51 53 57 59 61 63 65 70 71 72 72 72 73 73 74 73 74 73 73 74 73 73 73 72 73 73 73 68 71 71

GFSSGP_sfc_30mbdewp_030.txt.gz
Dewpoint
71 70 69 67 60 58 53 54 58 53 52 55 57 58 56 58 57 54 66 67 65 67 68 71 72 71 72 74 74 73 73 73 73 72 72 72 72 71 72 72 72 71 71 71 71 70 70 70 70
67 68 69 65 57 50 53 55 54 53 52 54 55 55 57 59 59 62 64 66 65 66 65 68 72 72 73 74 74 73 72 72 73 72 72 72 72 72 72 72 71 71 71 70 70 70 70 69 69
65 68 65 60 57 52 51 54 54 53 54 55 56 59 59 60 60 61 62 64 63 65 63 70 73 73 73 74 73 73 73 73 72 72 72 71 72 71 71 71 72 71 71 70 70 69 69 69 69
67 66 65 58 53 54 52 52 53 52 55 56 57 58 61 61 62 62 60 59 61 65 65 72 72 73 73 73 73 73 73 72 72 72 72 72 71 71 70 71 70 71 70 70 70 69 69 69 69
66 61 57 55 53 52 50 52 54 53 52 56 59 58 61 64 65 62 61 61 63 64 68 69 74 74 74 73 73 72 72 72 72 72 72 72 71 72 72 71 70 70 70 70 70 70 70 70 70
63 59 53 51 48 47 49 51 52 54 54 57 58 59 61 64 65 65 65 63 65 66 65 70 74 74 73 73 73 72 72 72 72 72 72 72 72 72 72 71 70 70 70 70 70 69 69 70 68
59 56 53 53 49 45 49 53 51 53 50 56 59 58 61 63 65 65 65 65 61 63 65 70 71 72 73 73 73 72 72 72 72 72 72 71 71 71 71 71 70 70 70 69 69 69 69 69 70
58 59 56 55 47 48 47 50 52 52 52 57 59 58 60 63 65 64 65 63 64 60 65 68 69 69 70 71 72 72 72 72 72 72 71 71 71 70 70 71 71 70 69 69 69 69 69 69 69
58 55 52 53 47 49 44 50 53 52 53 55 58 59 62 62 62 63 63 64 63 61 62 64 65 69 70 70 71 71 71 71 72 71 71 71 71 70 71 70 70 69 69 68 68 68 68 69 70
52 55 53 53 51 48 46 44 47 49 50 54 58 60 61 62 62 61 62 62 62 60 59 61 64 66 68 65 71 71 69 69 70 69 59 64 72 70 71 68 70 69 69 69 68 68 70 67 68
48 50 49 49 50 43 45 42 46 45 48 55 57 58 60 61 61 61 62 62 62 59 58 61 64 66 65 66 69 68 67 67 68 70 61 67 71 71 70 69 68 70 67 67 66 68 68 68 67
43 53 53 51 50 39 47 50 43 46 48 55 58 58 60 60 60 61 62 61 60 59 58 59 63 65 64 67 65 65 64 64 66 66 71 71 68 70 71 70 69 68 69 69 69 69 68 67 67
41 50 50 51 51 37 48 53 49 49 48 54 58 58 58 59 60 60 62 61 61 61 58 60 64 66 67 68 63 62 63 61 66 69 68 70 68 71 70 70 67 70 70 65 70 69 70 69 62
41 41 46 48 49 39 35 47 48 49 47 53 56 57 57 57 58 59 61 61 61 61 58 61 65 67 68 67 68 66 63 61 63 64 68 69 70 70 70 69 68 71 70 70 69 66 63 66 66
38 38 39 41 40 36 35 33 39 49 47 49 54 56 56 56 56 57 59 58 60 58 59 63 65 66 68 68 68 66 64 61 61 66 69 67 70 71 69 70 69 70 71 69 70 68 65 65 64
36 35 36 39 40 36 33 29 43 49 47 49 52 54 55 56 55 57 57 57 59 58 60 63 62 66 67 68 69 67 65 63 64 63 67 68 69 71 72 69 69 68 71 69 68 68 68 66 64
34 31 33 36 37 35 31 30 33 48 47 50 50 53 54 56 56 57 56 58 58 60 63 64 63 66 67 70 69 68 67 67 65 64 66 68 70 71 72 70 71 71 68 70 67 67 68 61 57
31 30 30 33 35 33 30 30 37 42 53 49 52 51 53 54 55 57 57 58 59 62 65 65 64 67 69 69 70 69 68 66 66 64 64 70 71 72 72 71 70 71 68 70 69 68 63 61 56
32 28 25 26 30 32 29 33 37 44 51 54 50 52 51 53 54 57 57 58 60 63 65 65 67 69 70 69 69 68 66 66 66 66 68 72 71 72 73 72 69 70 69 70 68 67 65 59 58
31 28 24 23 24 26 30 28 35 44 49 51 50 56 52 52 53 56 57 57 58 62 66 67 68 70 71 70 70 68 68 67 66 65 68 70 70 72 72 72 70 70 70 70 70 69 66 59 57
29 28 25 23 22 25 29 28 31 38 40 41 47 52 51 53 53 55 57 57 58 63 66 69 69 72 71 71 71 70 70 68 66 65 68 69 71 72 72 72 72 70 71 69 71 70 68 64 58
22 28 24 23 21 20 23 22 31 32 33 37 40 46 50 53 54 55 57 57 59 62 66 70 71 72 72 72 70 69 67 65 65 65 66 68 70 72 73 73 73 72 71 70 70 71 69 67 62
15 15 19 19 19 19 21 21 23 32 31 32 39 45 53 52 53 55 56 58 59 61 66 70 72 72 73 71 72 70 68 66 65 66 66 68 72 72 72 73 73 73 72 71 71 71 70 71 64
12 10 10 11 14 17 19 20 23 26 31 30 36 39 47 49 53 56 56 58 58 61 65 68 72 72 73 73 71 72 69 67 65 65 65 69 71 72 72 73 73 73 72 72 72 72 72 70 70
12 10 9 9 9 12 17 19 23 25 32 31 31 35 41 48 51 56 57 58 58 60 64 66 72 72 72 73 71 72 71 69 70 68 66 67 67 70 71 73 74 73 73 73 72 73 73 72 70
12 10 11 10 9 7 10 13 18 23 25 32 32 33 38 43 49 54 58 58 59 59 62 65 71 72 73 72 73 71 74 70 68 71 66 67 67 67 72 72 73 73 74 73 74 74 73 73 72
14 12 12 8 7 5 5 9 14 19 22 25 25 31 34 39 43 52 56 59 59 59 62 65 69 72 73 72 73 73 72 73 69 69 71 69 68 67 70 73 72 73 73 74 73 72 74 72 72
16 15 12 10 8 7 5 10 11 16 21 24 27 27 32 37 42 50 55 58 59 59 61 64 68 71 73 73 73 73 72 73 72 69 71 69 70 69 71 73 73 73 73 74 74 73 73 72 73
14 16 14 11 9 7 10 6 14 20 22 26 27 27 31 38 43 48 54 58 60 59 60 63 65 70 72 73 73 73 74 73 72 72 71 73 71 73 70 74 74 74 73 74 74 73 72 73 72
15 15 17 15 15 10 12 11 17 21 23 24 25 28 31 34 44 46 51 56 59 59 60 62 64 67 71 73 73 73 73 74 73 71 72 73 74 72 74 73 73 73 73 73 73 73 71 72 73

GFSSGP_sfc_30mbdewp_033.txt.gz
Dewpoint
71 69 69 67 60 57 53 52 59 56 55 58 58 59 60 59 56 52 67 67 68 69 71 72 73 73 73 74 73 73 73 73 73 74 73 72 71 72 72 72 71 72 71 71 71 71 70 70 70
70 69 69 65 56 49 51 57 57 57 56 57 58 59 59 57 62 64 64 67 68 68 70 72 73 73 73 74 74 74 72 72 73 73 73 72 72 73 72 71 71 71 71 70 70 70 70 70 70
68 69 64 60 56 50 52 56 57 55 56 57 58 60 60 59 63 63 65 66 66 66 69 72 73 73 73 73 73 73 73 73 73 73 72 72 72 72 72 72 71 71 70 70 70 69 69 69 69
66 66 65 58 54 55 55 55 56 54 58 59 59 58 59 61 61 64 65 64 64 65 71 73 73 73 73 73 73 73 72 73 73 73 72 72 71 71 71 71 71 70 70 70 70 69 69 69 70
67 64 58 55 55 58 57 56 56 56 57 59 59 57 59 60 63 64 63 62 64 67 72 73 74 74 74 73 73 73 73 73 73 73 72 72 72 72 71 71 71 71 71 71 71 71 70 70 70
63 58 53 51 53 55 56 54 56 56 58 60 60 60 62 59 59 60 60 61 65 69 71 73 74 74 74 72 73 73 72 72 73 73 73 72 72 73 72 71 71 70 70 70 70 70 70 70 69
59 56 52 52 54 53 51 54 54 58 58 59 60 60 63 59 60 59 59 62 66 67 70 73 73 73 73 73 72 72 72 72 72 72 72 72 72 71 71 71 71 70 70 70 70 70 70 70 69
59 54 51 54 52 52 59 52 55 56 58 60 61 60 61 62 63 63 63 64 66 69 71 72 73 72 73 73 72 72 72 72 72 72 72 71 71 71 71 71 71 70 69 69 69 69 69 69 70
62 56 50 54 51 50 54 53 55 58 58 59 59 62 64 64 65 64 63 64 63 68 69 70 71 71 72 72 72 72 72 72 72 71 72 70 71 71 70 71 71 70 69 69 68 68 69 69 69
58 55 54 54 52 51 54 54 52 57 58 60 62 63 63 64 64 63 63 63 62 65 67 68 69 70 70 70 71 71 71 72 71 70 65 67 67 70 71 70 71 70 69 69 68 69 68 70 68
56 52 53 51 50 55 52 53 56 57 57 60 61 62 63 63 63 63 63 63 62 63 64 65 68 69 68 70 70 71 71 70 71 61 67 68 70 71 71 70 71 70 67 67 68 68 68 68 68
50 52 52 50 50 49 49 51 52 53 58 61 61 62 62 62 62 62 62 63 61 60 61 64 66 68 67 68 69 70 69 69 70 66 68 68 69 70 70 69 69 69 68 69 70 70 70 67 66
46 51 48 46 49 49 49 48 49 55 59 60 61 61 61 61 61 62 62 63 62 59 60 63 66 67 68 67 67 67 67 67 69 68 68 70 65 69 70 71 70 69 69 65 63 69 66 67 64
45 49 48 49 47 49 48 45 52 57 59 59 60 61 61 60 61 62 62 61 61 60 59 63 65 68 67 65 65 64 66 65 69 70 70 69 70 70 70 70 69 69 69 65 68 68 62 64 66
45 42 49 49 47 46 51 49 50 57 58 57 59 60 60 60 61 61 61 61 61 61 60 63 63 67 67 67 69 67 67 63 66 68 71 70 69 70 69 68 70 70 69 69 70 68 65 62 64
43 41 39 47 47 46 46 44 47 53 57 57 57 59 60 60 60 62 61 61 61 61 62 64 63 67 67 66 68 68 65 66 66 68 68 69 70 70 70 70 69 69 70 71 70 68 68 66 65
38 38 36 35 39 40 38 40 47 50 53 56 57 56 57 59 59 61 62 61 61 62 64 64 64 66 69 68 68 67 67 67 68 69 68 68 69 71 71 70 69 71 68 69 69 68 68 65 63
35 36 34 33 35 39 37 34 49 49 51 56 58 56 56 56 57 59 61 61 60 63 63 64 65 65 68 68 69 67 66 68 68 68 68 69 70 71 71 71 70 69 68 69 69 66 62 58 58
36 37 33 33 34 35 36 34 46 55 58 55 55 58 56 56 56 57 58 58 60 64 63 65 66 67 67 69 68 67 65 67 67 66 69 69 71 71 72 72 71 71 68 70 68 66 65 57 61
31 33 34 32 30 33 34 32 49 53 54 55 55 56 56 55 56 57 57 58 60 63 65 64 68 68 67 69 67 69 69 68 67 65 71 71 71 72 72 71 70 71 70 70 68 68 66 62 59
29 30 31 31 28 25 29 32 48 50 51 52 52 54 57 54 55 57 57 57 60 64 64 66 67 69 68 69 69 69 69 68 67 66 69 72 71 72 71 72 71 71 71 70 70 70 67 61 62
27 30 31 30 29 24 23 28 34 44 46 48 52 56 56 55 54 57 57 57 60 64 65 66 67 71 69 71 70 68 66 67 67 65 66 70 70 72 72 72 71 71 70 68 70 70 68 66 57
29 29 28 29 28 25 23 25 29 40 44 49 53 56 58 59 55 56 57 57 59 64 66 66 68 71 70 70 70 70 68 68 66 65 66 68 70 72 72 72 71 71 72 70 68 70 70 70 65
30 29 23 27 25 20 20 21 23 31 36 44 49 55 58 52 53 56 57 58 58 64 67 68 68 71 71 71 71 70 69 67 67 66 65 69 70 70 72 73 72 72 72 71 69 71 71 68 70
27 23 17 13 16 15 16 17 20 27 35 35 46 53 52 51 50 57 57 57 58 64 66 69 70 71 71 70 70 72 70 68 67 66 66 68 70 70 71 73 72 73 72 72 71 71 72 70 69
22 18 11 9 11 11 12 12 17 23 27 33 40 49 49 54 56 56 56 57 58 61 65 70 70 70 72 72 70 69 73 70 67 70 66 68 69 71 71 72 73 72 72 72 72 71 72 72 70
17 14 12 11 15 12 10 10 12 14 19 21 33 38 49 53 54 55 56 57 58 60 64 68 70 70 71 72 71 70 70 73 68 66 70 66 69 68 71 72 74 73 72 72 73 72 71 73 71
18 15 12 10 10 10 11 10 10 11 13 21 25 32 41 52 52 55 56 57 58 59 63 66 71 70 71 71 72 71 70 71 72 68 67 71 67 69 69 72 72 73 73 73 72 73 73 72 72
15 16 13 13 13 12 13 13 14 13 15 22 22 28 34 44 53 56 57 58 59 59 62 65 68 71 71 71 71 72 71 70 72 71 68 69 71 70 69 72 72 72 72 74 73 72 73 73 72
19 15 15 12 13 14 13 13 21 23 18 22 23 27 36 41 52 57 58 58 59 58 61 64 66 70 71 72 71 71 72 72 70 72 72 67 71 70 73 74 73 73 73 73 74 73 72 71 72

GFSSGP_sfc_30mbdewp_036.txt.gz
Dewpoint
70 69 69 67 59 57 53 54 59 57 58 59 59 58 57 59 57 52 66 67 69 70 72 73 73 73 73 73 73 73 73 72 73 73 72 73 73 73 72 72 72 71 71 71 71 71 70 70 69
70 68 68 65 56 49 50 58 56 57 58 60 60 60 59 58 63 64 65 68 69 71 72 73 73 74 73 74 73 73 72 72 73 72 72 73 72 71 72 72 71 71 71 71 71 70 70 70 70
69 69 64 60 55 47 52 57 58 58 59 58 59 60 59 60 63 63 66 68 69 70 72 72 74 74 73 73 72 73 72 72 72 73 72 72 72 72 72 71 71 71 70 70 70 70 70 70 69
67 67 65 57 54 55 54 55 58 57 59 59 59 56 60 63 62 65 67 67 68 70 71 73 73 73 73 72 73 73 72 73 72 72 72 71 71 72 71 71 71 71 71 70 70 70 69 69 69
67 64 57 55 55 57 58 58 59 58 59 58 58 58 59 62 64 65 66 66 66 70 72 73 74 74 73 72 73 73 73 73 73 72 72 72 72 71 71 71 71 71 71 71 71 70 70 70 69
63 60 52 51 52 55 56 59 61 60 59 58 58 60 59 63 63 63 64 64 69 71 72 73 74 74 73 72 73 72 73 72 73 72 72 72 73 71 71 71 71 71 70 70 70 70 70 69 70
60 54 51 52 54 55 56 60 59 59 58 57 59 59 58 61 62 62 62 66 70 71 72 73 73 72 72 73 73 72 72 73 73 73 73 72 72 72 71 71 71 70 70 70 70 70 70 70 69
59 53 51 53 52 54 60 60 60 59 59 61 60 58 56 60 60 59 61 68 69 70 73 73 73 72 73 73 72 72 72 72 72 72 72 71 71 71 71 71 71 70 69 69 69 69 70 69 69
63 50 48 48 53 54 60 57 60 61 60 59 61 62 58 59 58 58 61 66 68 71 72 73 72 72 73 72 72 72 72 72 72 71 71 72 71 71 71 71 71 70 69 69 69 69 70 70 69
60 52 49 52 55 54 60 58 59 59 59 60 62 60 59 59 57 60 63 66 68 69 71 72 71 71 72 72 72 71 71 72 72 71 69 69 69 69 70 72 71 70 69 69 70 69 69 70 67
59 54 56 55 55 53 54 55 59 59 59 61 61 60 60 59 61 62 63 66 67 68 69 70 70 71 71 70 71 71 71 71 71 69 64 67 68 70 71 71 71 69 67 68 67 68 69 69 68
54 58 57 54 52 51 50 56 58 57 59 62 63 62 62 62 62 62 63 63 66 67 67 68 69 70 69 70 70 70 70 70 70 64 67 68 68 69 70 69 69 69 69 69 69 69 69 68 65
52 53 54 54 52 49 50 51 51 55 61 62 62 62 62 62 62 63 63 62 64 65 65 66 69 69 68 68 68 70 69 69 70 65 67 69 68 69 70 70 68 69 69 67 64 68 68 66 64
49 50 50 50 49 48 48 48 52 60 62 61 61 61 62 62 63 63 62 62 62 63 64 65 68 68 68 67 66 68 68 68 69 69 67 69 66 69 70 70 69 69 69 68 65 67 63 63 64
42 46 46 49 47 47 48 47 54 60 61 61 61 61 61 62 62 62 62 62 61 61 62 64 66 67 67 66 64 66 66 67 68 69 69 69 70 70 70 70 68 68 68 68 69 68 65 63 63
41 43 43 46 47 47 48 45 56 60 59 60 60 60 60 61 62 62 62 62 62 60 61 63 65 67 66 66 66 66 65 66 68 69 70 69 69 71 70 69 69 70 70 71 70 68 66 65 65
33 36 40 41 48 46 47 44 57 59 59 59 59 59 60 60 61 61 62 62 62 61 61 62 64 67 66 68 67 67 67 67 67 69 69 70 71 71 70 70 69 69 70 69 68 68 69 65 65
31 36 37 38 38 45 46 43 57 58 58 59 59 59 59 60 60 61 61 61 61 62 62 62 62 67 67 68 67 66 66 67 69 68 68 69 70 71 71 69 70 70 68 69 69 65 62 57 59
32 34 36 37 37 35 37 47 56 57 57 58 59 59 59 59 60 61 61 61 61 63 63 62 62 66 67 67 66 65 64 64 67 68 68 69 70 71 71 71 70 69 67 69 67 66 64 57 60
29 30 34 37 38 34 35 46 54 56 56 57 58 59 59 59 59 60 61 61 60 63 63 63 63 65 67 66 67 66 65 66 66 67 68 68 70 71 71 71 70 70 68 69 68 68 65 59 60
28 28 29 34 35 33 31 45 47 52 56 57 58 58 58 57 56 59 60 61 61 62 63 64 64 64 66 67 68 69 68 66 66 67 69 69 71 72 72 70 70 70 70 69 69 68 65 57 62
26 28 28 30 30 30 28 35 49 52 53 53 53 55 57 57 56 58 58 60 60 63 63 65 65 66 66 68 66 66 65 66 67 66 67 70 71 72 72 71 71 70 71 70 69 70 67 63 57
28 28 28 28 29 29 29 25 47 52 51 50 51 52 54 57 56 56 56 58 59 62 63 65 67 66 66 69 67 66 66 67 68 66 66 69 71 72 71 71 71 70 71 69 69 70 69 67 61
33 29 28 28 28 25 27 25 24 49 49 49 49 51 51 56 56 56 57 57 59 62 63 65 68 67 67 69 68 67 66 67 66 66 65 67 70 70 72 71 71 70 71 70 68 69 70 69 67
33 29 27 25 23 22 26 22 23 45 48 49 48 49 53 56 55 55 57 56 58 62 63 65 66 69 68 69 69 68 68 68 67 66 65 67 68 69 71 72 71 71 71 71 70 69 71 69 69
32 29 27 24 21 20 19 17 17 22 43 45 49 50 54 55 55 55 56 57 57 63 64 64 66 67 69 69 69 69 69 68 67 67 66 66 69 69 69 72 72 72 72 71 70 70 70 71 69
29 29 24 15 14 12 14 12 13 15 17 38 49 52 54 55 55 54 56 57 58 62 64 65 65 66 69 69 69 70 70 69 69 68 68 67 69 70 70 71 72 72 72 71 71 70 70 72 71
30 23 23 18 13 10 12 11 10 12 12 17 44 51 54 56 54 53 56 57 57 61 64 66 66 66 69 69 69 69 70 72 70 68 68 70 68 69 71 71 72 72 72 72 72 72 71 71 71
25 22 18 19 14 10 10 11 14 12 13 12 35 46 52 54 53 52 55 57 57 59 63 67 68 67 69 70 70 69 68 69 72 69 67 67 70 69 69 71 71 72 72 72 71 72 72 71 70
27 22 16 12 11 13 14 12 20 15 15 15 20 49 51 52 53 53 55 56 57 58 62 66 69 68 69 70 71 70 70 69 69 72 70 68 68 70 69 71 71 72 72 72 71 71 71 73 71

GFSSGP_sfc_30mbdewp_039.txt.gz
Dewpoint
70 70 69 67 58 57 53 54 58 56 59 60 58 56 57 60 57 52 66 67 70 70 72 73 73 73 72 72 73 72 72 73 73 72 72 72 72 72 71 71 71 71 71 71 71 70 70 70 70
70 69 68 65 56 49 50 58 57 58 60 61 60 60 58 59 61 64 65 69 71 71 72 73 74 73 73 72 73 72 72 72 72 72 72 72 73 72 72 72 72 71 71 71 70 70 70 70 70
69 68 63 60 54 48 50 56 58 59 60 59 59 59 60 60 63 63 66 70 71 72 73 73 73 73 73 72 72 72 73 71 72 72 72 72 72 71 71 71 71 71 71 70 70 70 70 69 69
67 67 65 58 53 54 54 57 59 59 61 60 58 57 61 63 62 66 68 70 71 72 72 73 72 73 72 72 72 72 72 72 73 73 72 72 72 71 71 71 71 71 70 70 70 70 69 69 68
67 64 58 55 55 55 57 60 60 59 60 59 58 58 60 62 66 67 68 69 70 71 72 73 73 73 72 73 72 72 72 72 72 72 72 71 71 71 71 71 71 71 71 71 70 70 70 69 69
63 60 52 50 51 55 58 60 60 59 61 59 58 58 59 64 65 66 67 68 70 72 73 73 73 72 73 72 73 72 73 72 72 72 73 72 72 72 71 71 71 71 70 70 70 69 70 70 69
62 55 50 52 53 55 58 61 60 60 59 58 60 57 61 63 65 65 65 68 70 72 73 73 73 72 72 72 72 73 72 73 73 72 73 72 72 72 71 71 71 70 70 69 69 69 69 69 69
60 52 52 53 52 54 60 60 61 60 59 60 58 56 58 61 63 63 66 69 71 72 73 72 72 72 73 73 72 72 72 73 72 72 72 72 72 71 71 72 71 70 69 69 69 70 70 69 69
61 52 50 49 51 54 58 59 61 62 60 60 61 58 60 62 62 62 67 69 69 71 72 73 72 72 72 72 72 72 72 72 72 71 71 72 71 71 71 71 71 70 69 69 69 70 69 69 69
60 50 49 51 55 55 58 60 60 60 59 60 58 59 61 60 59 62 66 67 68 69 72 72 72 72 72 72 71 72 72 72 72 72 71 69 70 69 70 72 71 70 70 70 71 70 70 70 66
60 54 54 53 55 56 57 58 60 59 59 61 57 58 59 57 59 61 66 67 67 69 71 71 71 72 72 71 71 71 71 71 71 70 68 68 68 69 71 70 71 68 67 68 68 69 69 68 68
58 58 58 56 55 56 57 57 58 59 59 61 57 58 56 56 59 62 65 67 67 69 70 71 71 71 71 71 71 71 71 71 71 68 65 66 68 69 70 70 69 69 68 68 68 68 69 68 65
55 57 56 58 57 55 53 55 58 59 61 61 58 57 55 57 60 63 65 67 67 68 69 69 70 70 70 70 70 70 70 70 70 67 66 68 68 68 70 69 68 68 69 68 63 68 66 65 64
51 53 54 53 52 52 50 56 56 59 62 60 58 56 56 58 62 63 64 65 66 67 67 68 69 69 69 69 68 68 69 69 69 69 64 68 67 68 69 69 69 69 69 68 66 68 62 63 64
42 46 43 46 49 48 49 47 50 61 61 61 58 57 58 60 62 63 63 64 65 66 66 66 68 69 68 68 66 67 68 68 68 69 68 68 67 69 70 69 69 68 69 67 68 69 67 63 64
37 39 39 43 46 48 47 44 59 61 60 60 60 59 59 60 62 63 63 62 64 64 64 65 67 68 67 67 66 65 66 67 67 69 69 69 69 70 69 69 68 69 68 68 69 68 66 65 64
27 34 40 42 45 48 46 49 59 61 60 59 60 60 60 61 62 63 63 63 62 62 63 64 66 67 67 66 66 65 65 66 67 69 69 69 70 71 70 69 69 70 70 70 69 68 68 64 65
30 33 36 37 41 47 46 47 58 60 60 59 60 60 60 60 62 62 62 62 63 61 61 63 64 66 67 66 67 67 67 67 68 68 69 69 70 71 70 70 69 69 68 69 68 64 63 58 61
31 34 37 38 40 41 46 46 57 59 59 59 60 59 59 60 61 62 62 62 62 62 60 62 63 65 67 66 66 66 65 66 68 69 69 69 70 72 70 69 70 69 67 68 67 65 60 59 59
26 26 31 35 36 36 36 44 56 58 58 59 59 59 59 59 60 61 61 62 61 62 61 61 62 64 67 66 66 65 65 65 66 67 68 68 70 71 71 69 70 69 68 69 68 66 64 58 61
25 24 27 32 34 36 37 42 46 57 58 59 60 59 60 59 60 60 60 60 61 61 62 62 62 63 66 66 67 67 66 66 66 66 68 68 69 70 71 71 70 69 69 68 68 68 63 56 62
24 26 28 29 30 29 33 38 52 55 56 57 59 59 59 59 59 60 60 60 60 60 63 63 62 62 65 66 66 65 63 62 63 65 67 68 69 70 72 71 70 70 70 69 68 69 67 58 58
27 28 28 28 28 28 29 29 46 54 55 55 57 58 59 60 59 59 59 61 61 61 63 63 63 63 64 66 65 65 63 63 66 66 66 68 70 70 71 71 70 70 70 70 70 69 68 65 58
31 28 28 28 27 25 27 28 27 47 52 54 56 57 58 58 58 59 60 60 61 61 62 63 64 64 64 66 65 65 64 65 66 66 65 67 69 70 71 71 71 70 70 70 69 69 69 68 65
32 28 25 24 24 25 28 27 28 43 50 52 54 55 56 55 58 57 58 59 60 61 62 63 64 64 64 65 66 65 65 66 66 66 66 66 68 69 70 71 71 70 70 71 69 68 69 69 69
31 30 28 24 24 26 26 24 25 32 48 51 53 53 52 52 56 57 57 58 60 61 62 63 65 65 65 66 66 66 66 66 66 66 67 66 67 68 69 71 71 71 71 71 71 70 69 70 68
32 31 31 25 18 22 26 17 18 23 37 49 50 51 50 50 53 56 57 57 58 60 62 63 64 65 66 66 67 67 67 67 67 67 67 66 67 68 69 70 71 71 71 71 71 70 69 70 70
33 32 30 25 23 19 18 16 20 20 24 37 48 50 50 50 52 54 56 57 57 60 62 63 64 65 66 67 67 68 68 68 68 68 67 67 67 69 69 69 70 71 72 72 71 70 70 70 70
25 29 31 30 22 21 11 16 16 16 18 20 39 46 48 50 52 54 56 56 57 58 62 63 63 64 66 67 67 68 68 69 68 68 68 69 67 68 69 70 70 70 71 71 71 71 70 69 69
24 27 23 27 24 18 17 17 16 15 17 17 24 41 49 52 53 54 55 55 57 57 61 63 63 64 65 68 67 68 69 70 70 69 68 68 69 69 69 70 70 71 71 71 71 71 71 70 70

GFSSGP_sfc_30mbdewp_042.txt.gz
Dewpoint
69 69 69 67 56 56 51 53 57 58 57 60 55 54 56 59 56 52 65 67 69 69 72 72 72 72 71 72 73 72 72 73 72 72 73 72 72 72 71 71 71 71 71 71 70 70 70 69 70
69 69 68 64 55 50 50 57 55 58 60 62 58 59 58 58 62 64 65 69 69 71 72 72 73 72 72 73 72 72 73 73 72 72 72 72 72 72 71 71 72 71 70 70 70 69 70 70 70
69 68 64 60 53 48 50 56 58 60 61 60 59 60 60 60 63 64 67 70 71 72 72 73 73 73 72 72 72 73 71 72 72 72 72 71 72 71 71 72 71 71 71 70 70 69 69 69 69
66 67 65 58 53 53 55 57 59 60 62 61 59 58 61 63 62 66 70 71 71 72 73 73 72 72 72 72 72 72 72 72 72 72 72 71 71 71 71 71 71 71 70 70 70 69 69 68 68
68 65 58 56 54 55 57 62 62 60 61 59 59 58 60 63 66 69 70 71 71 72 72 72 73 72 72 72 72 72 72 72 72 72 71 71 71 71 71 71 71 71 70 70 70 69 69 69 69
63 61 54 50 50 55 59 61 61 60 61 58 58 58 60 65 66 68 70 70 71 72 72 72 73 72 72 72 72 72 72 72 72 72 72 72 72 71 71 71 71 70 70 70 70 70 70 69 69
62 56 51 51 53 55 59 61 60 61 60 58 59 57 61 64 66 68 68 70 72 72 72 73 72 72 72 72 72 73 72 73 72 72 72 72 72 72 71 71 70 69 69 69 69 69 69 70 70
61 53 51 53 51 55 58 60 62 60 59 60 59 56 58 63 65 65 68 70 71 72 72 73 71 72 72 72 73 72 73 73 73 73 72 72 72 71 71 72 71 69 69 69 69 68 69 69 69
60 55 51 50 51 54 59 59 62 63 58 59 59 59 61 64 64 66 68 69 70 71 72 72 71 72 72 72 72 72 73 72 72 72 72 72 71 71 71 71 70 69 69 69 70 70 68 69 69
60 54 50 51 54 55 57 60 60 60 59 59 59 61 63 63 62 65 65 65 68 69 71 72 71 72 72 72 72 72 72 72 72 72 71 70 70 70 70 71 70 69 70 71 71 70 70 69 68
61 55 53 51 55 55 56 59 61 59 58 59 58 60 61 61 61 64 65 64 66 68 70 71 71 72 72 72 71 71 72 72 72 70 69 69 69 69 71 70 71 68 68 68 69 69 69 68 68
58 59 57 57 55 56 55 58 58 59 59 61 59 60 60 59 60 64 65 65 67 68 68 71 71 71 71 71 71 71 71 71 70 69 65 67 68 69 69 70 69 69 68 68 68 69 67 67 65
58 58 57 59 58 57 56 55 55 59 61 59 59 59 59 58 60 64 65 67 67 68 69 71 71 70 71 70 71 70 70 70 70 68 66 67 68 69 70 69 67 68 69 67 64 68 64 65 65
51 53 55 54 54 54 54 55 57 59 58 58 58 57 57 57 60 64 66 66 67 67 69 70 70 70 70 69 70 69 69 70 69 68 64 67 69 68 69 69 69 69 69 68 66 67 63 64 65
47 45 44 43 47 50 50 54 55 60 57 56 57 55 55 58 61 63 66 66 67 67 68 69 69 69 69 69 68 69 68 68 68 69 68 66 68 67 69 69 69 68 69 67 69 68 66 64 64
35 38 39 43 44 46 48 45 55 61 58 56 55 54 55 58 61 63 65 66 66 67 67 68 68 69 68 68 67 67 67 68 68 68 69 68 69 69 70 69 69 69 68 69 69 68 66 64 63
28 37 38 42 44 46 47 46 59 61 59 56 55 54 55 58 61 63 63 65 66 66 66 66 67 68 68 67 67 65 66 67 67 68 68 69 69 69 70 69 69 69 69 69 69 68 68 65 65
32 31 38 41 41 45 47 46 59 60 60 58 57 55 55 57 60 62 63 64 65 65 65 65 66 67 67 67 67 66 65 65 66 68 69 69 69 70 70 69 70 69 68 68 68 64 61 61 62
32 34 36 38 39 45 45 47 58 60 59 59 59 58 57 58 60 62 63 63 63 63 63 64 65 66 67 66 66 66 65 66 68 68 69 69 70 71 70 70 69 69 68 68 67 65 59 60 60
29 27 30 35 38 40 41 45 56 59 59 59 59 59 59 59 60 61 63 62 62 62 62 64 64 65 67 66 66 66 66 66 67 68 69 69 70 71 71 69 70 69 68 69 67 65 62 59 62
23 28 26 31 33 36 37 38 49 58 59 59 59 60 60 60 59 61 62 62 62 62 61 62 63 64 66 66 67 66 66 66 66 66 68 68 69 70 71 71 70 70 69 68 67 67 61 57 62
18 24 28 26 28 30 37 34 46 55 57 58 59 59 59 60 60 60 61 62 62 62 62 62 63 64 66 67 66 66 64 64 64 65 67 68 69 70 71 71 70 70 70 69 68 68 66 58 59
19 22 26 27 28 28 29 29 35 54 56 57 58 59 59 60 60 60 60 61 62 62 62 62 62 63 65 66 66 65 65 63 64 65 65 67 68 69 70 71 71 70 70 70 69 69 68 63 59
27 27 26 28 27 25 27 28 30 50 53 56 57 59 59 59 60 60 60 61 61 62 62 63 63 63 64 66 66 65 65 64 64 64 64 66 68 69 70 71 71 70 70 70 70 70 69 67 64
28 25 25 24 24 25 30 28 30 33 53 54 55 57 59 60 59 59 60 60 61 61 61 63 63 63 63 65 66 65 65 65 64 64 65 65 67 68 69 71 71 70 70 70 70 69 69 69 68
28 28 24 22 22 23 27 27 28 31 44 54 56 56 57 58 59 60 60 60 60 61 61 62 63 63 64 64 65 65 65 65 65 66 66 65 66 68 69 70 71 71 70 70 71 69 68 69 69
29 28 28 26 23 22 22 25 26 29 33 47 52 54 56 57 58 59 60 60 60 61 62 62 63 63 64 64 65 65 65 65 65 66 67 67 67 68 69 70 70 71 71 71 71 70 70 70 70
28 31 28 28 24 22 22 21 27 25 29 36 44 50 53 55 56 56 58 58 60 61 62 63 63 63 64 64 65 65 65 66 66 67 66 67 67 68 68 69 70 71 71 71 71 71 70 70 70
25 30 30 28 27 24 19 19 26 26 27 29 35 49 50 53 53 53 55 58 59 60 61 62 63 63 64 65 65 65 66 66 67 67 67 67 67 68 68 68 69 70 71 71 71 71 70 70 69
33 27 31 29 26 25 22 24 20 22 25 27 28 44 50 52 52 51 52 57 58 59 60 62 63 64 64 65 66 66 67 67 67 68 68 68 67 68 68 69 69 70 70 71 71 70 71 70 70

GFSSGP_sfc_30mbdewp_045.txt.gz
Dewpoint
68 68 68 66 57 56 50 53 57 57 55 59 54 54 54 57 54 53 65 65 65 66 69 71 72 72 73 73 73 73 73 72 72 73 72 73 72 72 72 71 71 71 71 71 70 70 69 69 71
68 68 68 64 54 51 51 56 55 58 57 60 57 58 58 57 61 64 64 65 65 66 69 69 72 72 73 73 73 72 73 72 72 72 72 72 72 71 72 72 71 70 70 71 70 70 70 70 71
67 67 63 59 55 49 50 56 58 60 61 57 58 60 60 59 63 63 65 65 66 67 70 70 72 73 72 72 73 73 72 73 72 73 72 72 71 71 71 71 71 71 70 71 70 70 69 69 68
66 66 65 57 53 53 55 58 59 60 62 61 59 58 61 63 63 64 66 66 66 68 68 72 72 73 72 73 72 72 72 73 72 72 72 71 71 72 71 71 71 71 71 70 69 69 69 69 69
66 65 58 55 54 55 57 60 62 60 61 61 59 58 60 63 65 66 66 66 66 66 69 70 72 73 72 73 71 73 73 72 72 72 71 71 71 71 71 71 71 70 70 70 69 69 69 68 69
63 61 54 50 51 55 59 60 60 61 60 59 59 58 60 65 66 66 66 66 66 66 68 70 72 72 73 72 72 72 73 72 72 72 72 72 71 71 71 71 70 70 70 70 70 70 69 69 69
61 58 52 50 52 55 58 60 60 61 59 58 59 57 62 64 66 66 66 66 67 67 68 70 69 71 72 72 72 72 72 73 72 73 73 72 72 72 71 70 70 69 69 69 69 69 70 69 69
62 55 50 52 51 54 58 60 64 62 59 59 59 57 59 63 66 66 66 66 67 67 69 70 69 71 71 72 72 72 72 72 73 72 72 72 72 72 72 71 70 69 68 68 68 69 69 69 70
60 55 53 49 51 54 58 59 62 61 59 58 58 58 61 65 66 66 65 66 67 67 68 68 70 70 72 72 72 73 72 73 72 72 73 73 71 71 69 70 70 69 69 70 70 68 69 69 70
60 55 52 52 51 53 58 59 61 60 58 59 59 59 63 64 64 64 64 64 64 66 68 68 68 69 71 71 71 72 70 69 70 71 72 72 71 70 69 69 70 70 70 70 71 71 70 67 66
59 54 54 51 53 55 57 59 61 58 57 59 58 60 62 63 63 63 63 63 63 66 68 69 69 71 70 70 70 71 70 70 71 72 70 71 70 70 69 68 69 67 68 67 69 69 67 69 65
57 59 57 57 54 55 56 58 57 59 58 60 60 61 62 60 61 62 62 63 64 66 67 70 69 70 70 71 70 70 70 70 69 69 70 70 69 69 69 68 68 68 68 69 69 68 68 67 67
57 58 58 58 57 56 56 55 55 57 60 60 60 61 60 59 60 61 61 62 65 66 67 69 70 70 71 71 70 70 70 69 69 68 68 69 69 70 70 69 68 69 70 68 68 67 66 67 65
49 55 56 54 54 54 54 53 55 59 60 59 60 60 59 58 59 61 62 62 64 65 66 69 70 70 71 69 71 70 70 69 68 68 66 69 70 71 71 70 69 70 71 70 69 67 65 66 67
48 48 46 47 47 50 51 50 54 59 59 59 58 59 58 58 59 60 62 62 63 64 66 68 69 69 70 70 70 68 68 68 68 69 68 68 71 70 71 71 70 70 70 69 70 69 67 64 65
33 37 35 43 47 47 47 45 53 59 59 58 58 58 58 57 58 60 61 62 64 64 66 68 67 68 68 68 69 67 66 67 68 69 70 70 70 71 72 71 70 71 70 69 69 67 64 66 63
33 20 29 34 45 47 47 45 55 58 58 57 57 56 56 56 57 60 62 62 64 66 66 67 68 67 67 68 68 67 67 67 68 68 69 70 71 71 72 71 71 71 71 71 69 69 68 65 62
24 23 35 32 43 46 46 45 57 59 57 56 56 55 55 56 57 60 62 63 65 66 67 66 67 68 68 68 68 66 65 66 67 68 68 70 70 71 72 71 71 71 71 69 69 65 63 66 64
31 33 27 38 41 44 44 45 54 59 58 56 55 55 54 55 57 60 61 63 65 66 66 67 66 67 68 67 65 64 62 64 66 68 70 71 70 71 72 71 71 71 70 69 69 66 64 62 63
23 29 31 35 38 42 43 44 47 57 58 58 56 55 54 55 57 59 61 62 64 65 66 67 66 67 68 66 66 64 65 66 67 70 70 71 70 72 73 72 70 71 69 70 69 68 62 62 62
21 20 28 29 30 36 38 39 41 55 58 59 59 57 56 55 56 59 61 62 63 64 66 66 66 67 68 67 67 68 68 68 67 68 69 70 71 72 73 72 71 71 70 69 69 68 64 60 63
14 18 23 29 30 31 38 37 40 44 55 57 58 59 58 57 57 58 60 62 62 63 65 66 67 67 67 68 66 66 63 63 65 66 68 69 71 71 72 73 72 72 71 70 70 70 66 63 60
17 18 17 17 27 30 31 33 38 46 49 54 57 58 59 59 58 58 59 61 62 63 64 65 67 67 68 69 67 67 65 64 66 66 68 70 71 71 71 72 72 71 71 71 71 71 70 65 61
22 20 21 19 15 17 29 31 33 39 47 51 55 58 59 59 60 60 60 61 62 62 64 64 66 67 68 68 68 68 67 66 66 66 65 66 68 69 71 71 72 72 72 72 72 72 71 69 66
26 24 21 18 18 10 19 29 31 36 44 47 52 56 58 59 60 60 60 60 62 62 63 65 65 66 67 67 68 68 68 68 67 67 65 65 65 67 69 72 72 71 72 72 72 72 71 71 69
26 24 19 16 15 8 16 26 30 34 35 46 50 53 58 59 59 60 60 61 62 63 64 64 65 66 66 67 68 68 69 66 66 67 65 65 64 65 68 71 71 72 72 72 72 71 71 71 70
24 25 24 19 25 20 12 19 29 33 34 36 45 52 56 58 59 59 60 61 62 63 64 65 65 66 66 66 68 68 69 68 66 67 68 66 67 65 69 70 71 71 71 72 72 71 71 71 71
28 25 26 24 18 16 17 16 16 27 31 35 37 46 53 56 58 59 60 60 61 62 63 64 65 66 66 66 67 67 68 69 68 68 68 67 67 68 66 70 70 71 71 72 72 71 71 72 71
25 25 26 26 25 17 14 17 23 23 33 34 36 40 48 54 57 58 60 61 61 61 62 63 64 65 66 66 66 67 67 68 68 68 68 69 68 69 69 70 70 71 71 71 72 71 71 72 72
25 30 26 25 27 27 24 18 26 27 29 32 33 36 40 50 54 57 59 60 60 62 62 63 63 64 65 66 66 67 67 67 67 68 68 69 69 69 69 70 70 71 71 71 71 71 69 71 71

GFSSGP_sfc_30mbdewp_048.txt.gz
Dewpoint
68 65 62 64 58 55 50 51 56 56 54 57 53 52 52 54 54 55 63 64 65 65 66 69 73 72 74 73 73 73 72 72 72 72 73 72 72 72 71 71 71 71 71 70 70 69 70 70 69
66 64 66 62 55 51 49 54 55 55 56 55 56 55 54 56 60 62 62 63 63 62 62 66 73 73 73 73 73 73 73 73 73 73 72 72 71 71 71 72 71 71 71 70 70 70 71 71 70
65 67 62 58 55 50 51 55 57 57 58 54 57 58 58 60 61 61 62 62 60 61 61 70 72 73 73 73 73 72 72 72 72 72 72 72 71 71 72 71 70 70 71 70 70 69 69 69 69
63 65 64 57 52 51 54 56 59 59 59 59 57 57 61 63 61 61 62 60 60 61 61 72 73 73 72 72 73 72 72 72 72 72 72 72 71 71 71 71 71 71 70 70 70 69 69 69 70
63 64 57 56 54 54 56 59 59 59 60 59 59 58 61 62 63 63 61 59 60 60 63 69 73 73 72 72 72 72 72 72 72 72 72 71 71 71 71 71 71 71 70 70 69 69 69 69 70
62 63 54 50 52 53 56 59 60 60 61 61 58 59 61 64 63 62 60 59 59 60 62 67 72 73 72 71 73 73 72 72 72 72 72 72 72 71 71 71 70 70 70 70 70 69 69 69 70
61 56 52 49 51 54 56 59 59 60 59 59 59 57 61 63 63 63 60 59 59 60 62 65 68 71 72 72 73 72 72 72 72 72 72 72 72 71 70 70 70 70 69 69 69 69 69 69 71
61 55 51 49 51 54 57 60 63 62 58 59 59 57 60 63 63 62 60 59 59 60 62 63 65 67 69 70 72 72 73 72 72 72 72 72 72 71 70 70 70 68 68 68 69 69 69 70 71
62 54 51 48 50 54 57 58 61 62 59 58 58 57 60 64 64 62 60 59 59 60 62 61 64 66 69 69 71 72 73 73 72 72 73 72 65 65 67 70 70 70 69 68 68 69 70 70 71
57 50 47 50 50 51 56 58 58 58 57 57 57 59 63 63 63 61 59 58 58 59 61 61 66 66 69 66 70 70 69 67 66 67 69 66 66 66 64 68 70 69 69 71 71 70 69 70 66
54 50 51 50 50 54 58 59 59 56 56 57 57 61 62 63 62 60 58 57 57 59 59 61 64 66 68 68 68 67 65 66 68 69 68 68 66 63 64 66 66 65 68 65 67 67 64 64 63
49 53 53 52 53 54 54 56 55 56 56 58 58 61 62 60 59 59 57 57 57 59 60 61 64 66 66 67 64 64 64 65 65 67 69 68 66 65 64 64 65 65 65 65 65 62 65 64 66
47 51 55 55 54 53 55 54 55 56 58 58 58 60 60 59 58 58 57 57 58 59 61 61 64 67 67 68 65 64 65 65 64 67 68 66 65 66 66 67 65 65 65 64 64 63 64 65 64
38 43 54 54 53 53 53 52 52 54 58 58 59 59 59 58 58 58 57 57 59 60 61 62 64 67 68 67 68 68 66 66 65 64 65 69 67 69 66 66 67 67 66 65 64 63 61 59 61
37 42 42 48 51 51 51 48 49 57 58 58 59 59 58 57 57 58 57 57 59 60 62 63 64 66 67 68 69 67 66 64 65 65 68 70 70 70 68 67 67 67 67 68 66 63 62 58 59
28 28 33 40 45 48 49 44 51 57 57 58 58 58 58 57 57 58 58 58 59 58 61 63 62 63 66 66 67 64 65 65 65 66 68 69 70 71 69 67 67 68 66 64 61 58 62 63 56
19 17 25 35 44 46 47 43 53 56 56 57 58 58 57 57 57 58 58 58 58 59 62 63 63 62 64 66 65 65 66 66 66 66 66 70 70 71 69 67 69 69 66 65 61 60 61 59 55
13 16 21 27 41 46 45 44 53 55 55 56 57 58 57 56 56 57 58 58 58 60 62 63 64 63 64 65 65 63 64 66 66 66 66 70 69 70 71 68 68 67 65 66 64 63 61 59 56
21 21 20 30 37 45 45 44 48 54 54 55 56 57 56 56 56 57 58 58 59 61 63 63 64 65 65 64 61 62 63 64 65 65 68 70 69 70 72 69 67 68 65 64 66 63 64 59 60
17 25 28 29 34 41 43 43 44 53 54 55 55 56 56 55 56 56 57 58 59 61 63 64 64 66 67 63 62 62 62 62 64 66 69 70 70 71 70 69 67 68 67 65 65 66 59 58 59
18 15 18 27 33 34 41 41 42 46 54 55 55 55 55 54 55 56 57 58 59 61 63 64 65 66 67 63 62 65 65 65 66 67 67 69 70 70 71 69 68 67 67 65 66 67 63 57 60
13 14 15 17 26 29 36 35 40 42 50 53 55 55 54 55 55 56 58 59 59 61 63 64 66 67 67 66 62 65 63 61 61 64 64 67 70 70 70 71 69 68 69 67 67 67 62 63 57
17 15 13 13 14 26 32 35 36 40 42 50 52 54 54 55 55 55 58 59 59 60 63 65 66 68 67 67 65 63 63 58 60 62 65 67 70 70 69 71 69 69 68 69 69 69 67 61 59
23 20 17 16 12 7 23 31 33 36 40 43 49 52 54 56 55 56 57 59 60 60 62 64 67 68 68 67 67 66 63 60 60 63 63 64 65 68 70 71 71 69 68 70 69 69 70 66 63
24 21 17 15 11 5 11 20 31 34 37 42 44 49 53 55 57 57 57 58 60 61 61 62 66 69 68 67 67 66 66 66 64 65 64 62 61 62 66 71 72 70 71 70 70 70 70 70 66
25 22 20 16 9 6 7 10 19 31 36 38 45 46 51 54 56 58 58 58 60 61 62 62 64 68 68 67 69 70 69 65 65 66 64 63 61 61 63 70 70 71 71 71 71 71 70 69 69
24 23 22 20 19 14 7 8 9 22 31 35 38 43 46 52 55 57 59 59 59 61 63 64 65 67 67 66 69 70 70 68 65 67 66 64 65 62 64 66 69 69 70 71 71 69 70 70 70
28 24 22 21 19 17 17 15 8 17 29 32 34 37 44 50 55 56 58 60 60 61 62 63 64 66 67 66 67 67 67 69 68 67 67 67 65 67 64 67 67 67 69 70 71 68 70 70 70
20 23 25 23 21 19 18 16 18 16 19 31 33 35 39 48 53 56 57 59 60 60 61 63 64 65 66 66 66 67 66 67 68 67 68 68 68 67 69 67 66 68 69 70 71 70 68 70 70
13 24 23 21 22 22 22 20 19 22 22 22 29 34 37 43 50 54 55 58 59 60 60 61 63 64 65 66 68 67 67 67 66 68 68 69 69 69 69 68 68 67 68 69 71 70 68 69 70

GFSSGP_sfc_30mbdewp_051.txt.gz
Dewpoint
67 64 64 59 58 55 49 51 54 51 52 53 51 51 55 56 56 55 62 65 67 67 68 70 72 72 72 72 72 72 72 72 72 72 73 72 72 71 71 71 71 71 71 70 70 70 70 69 71
62 61 62 63 56 50 49 54 54 54 55 53 54 53 55 56 58 59 60 63 65 65 65 67 73 73 73 73 73 72 72 73 72 73 72 72 71 72 72 71 71 71 70 70 71 71 70 70 69
62 64 62 59 54 49 52 56 54 54 53 55 54 55 59 58 58 60 63 64 61 60 61 71 73 73 73 73 73 73 73 73 72 72 72 71 71 72 71 70 70 71 70 70 69 70 69 69 70
60 62 64 58 53 51 52 56 56 55 53 55 56 58 61 61 59 61 61 61 57 58 63 72 73 73 73 73 72 72 72 72 72 72 72 72 72 72 72 71 71 70 70 70 69 69 69 69 70
59 63 57 56 55 54 53 58 59 58 56 57 56 58 60 60 61 61 60 58 56 59 64 69 73 72 73 73 73 72 72 72 72 72 72 72 71 71 71 71 71 70 70 70 69 69 69 69 69
62 61 55 50 52 55 56 57 59 62 63 58 58 59 61 62 60 60 59 58 56 58 61 68 73 73 72 72 73 72 72 72 72 71 71 71 71 71 71 71 70 70 70 70 69 69 70 70 71
60 58 53 52 52 51 57 58 60 62 61 59 60 58 61 62 61 59 58 57 57 57 61 65 68 71 72 73 73 72 72 72 71 71 72 72 71 71 70 70 70 69 68 68 69 69 70 71 71
59 55 51 49 49 54 57 60 62 61 59 60 60 58 60 61 61 58 58 56 56 57 58 62 65 67 67 70 72 72 72 71 72 72 72 71 70 70 70 70 69 68 69 69 69 69 70 71 71
58 52 51 49 51 54 57 59 60 63 59 58 59 58 61 62 61 58 57 55 56 57 57 59 61 64 68 69 71 72 72 72 72 71 72 71 64 67 68 70 69 68 68 68 69 69 70 70 71
55 48 49 51 49 56 55 56 57 57 56 56 57 59 61 61 61 57 56 54 55 56 55 56 59 64 67 63 69 69 68 66 66 65 69 71 65 65 64 67 69 69 69 69 69 69 70 70 68
50 47 48 49 49 53 55 56 57 56 54 55 56 60 61 62 60 57 55 55 54 56 53 58 63 65 66 65 67 66 67 65 68 66 67 64 62 63 65 65 65 65 69 68 68 69 70 70 70
46 47 46 52 51 54 58 60 55 55 60 55 58 61 61 61 59 57 55 54 55 55 54 58 60 67 66 64 67 66 64 61 62 64 65 66 68 64 66 66 62 65 68 62 66 60 62 65 67
44 45 51 53 52 52 55 56 55 55 56 57 59 61 60 59 58 57 55 54 55 55 54 58 60 66 68 68 64 60 60 60 62 65 66 67 68 66 67 64 67 66 65 63 64 60 63 59 59
37 41 49 53 53 53 51 53 54 56 55 57 59 60 59 58 57 56 55 54 55 55 55 58 61 64 67 68 63 63 62 64 61 62 65 67 69 69 66 65 67 68 67 64 65 65 60 59 58
33 36 38 51 51 55 53 52 53 54 56 56 58 59 58 57 56 56 55 54 55 56 56 59 62 65 66 68 66 67 65 60 63 64 68 67 69 69 68 67 64 68 65 65 62 60 61 57 62
29 32 37 44 48 49 50 46 48 54 55 56 57 57 57 57 56 56 55 55 56 56 58 60 60 63 65 65 66 64 62 63 66 66 67 68 69 69 69 66 63 65 65 67 60 61 57 59 60
16 22 28 31 45 46 46 47 55 54 54 55 57 57 56 56 56 56 56 56 57 57 59 60 60 62 65 66 66 64 64 65 67 67 68 69 69 69 70 69 68 68 65 66 63 59 57 59 57
8 15 20 26 39 43 44 51 58 51 53 55 56 56 56 56 56 57 56 56 57 57 59 61 61 63 66 66 66 64 64 64 65 65 69 69 67 69 69 68 67 68 62 68 69 62 62 61 57
13 9 16 22 33 42 44 48 59 50 51 54 56 56 55 56 56 57 57 56 56 57 59 61 63 66 65 64 64 63 62 63 64 66 67 69 67 68 69 67 68 67 64 67 64 62 61 57 56
15 14 18 20 30 42 44 45 47 49 50 53 54 56 55 55 55 56 57 56 56 57 59 63 65 68 66 64 64 63 63 62 62 62 67 68 68 69 66 69 69 69 67 67 65 64 59 55 58
17 15 17 25 29 35 42 43 43 50 49 52 53 54 55 54 55 56 57 56 56 57 59 63 66 68 68 64 64 63 64 62 62 65 66 68 69 69 68 68 69 68 70 66 67 66 64 59 55
17 17 14 17 28 30 36 36 43 46 48 50 52 52 54 54 55 56 56 56 56 57 60 64 66 68 69 68 61 64 62 60 59 62 62 66 68 69 69 69 69 68 66 69 66 67 64 65 57
18 17 13 11 14 22 29 33 38 43 49 47 50 52 52 54 54 55 56 57 57 57 60 62 67 69 68 69 65 63 64 60 60 59 67 65 70 69 68 69 69 69 68 68 69 68 67 60 65
20 18 17 13 10 9 21 30 32 39 41 46 47 51 52 53 53 54 56 57 57 58 59 62 68 70 70 70 68 66 64 62 57 59 63 63 65 67 68 69 70 69 68 70 69 69 68 67 62
22 20 17 16 11 7 9 23 30 33 42 42 44 48 51 52 53 54 55 56 59 59 60 63 67 70 70 69 68 67 67 66 65 65 61 61 60 61 69 70 71 70 70 69 70 71 68 68 66
22 20 16 16 14 9 6 10 21 31 35 46 51 49 49 52 53 54 55 57 59 60 62 63 67 70 71 69 69 68 68 63 60 63 61 61 58 59 71 70 69 70 70 69 70 70 69 68 68
22 22 20 15 16 15 10 6 7 19 27 34 39 44 49 50 52 54 55 57 59 60 62 63 66 70 70 67 69 70 69 66 60 61 67 65 64 60 63 68 69 69 68 70 70 68 70 70 70
24 26 21 19 15 16 17 13 7 8 17 25 35 39 44 49 51 53 55 56 58 59 61 63 65 69 70 68 69 69 70 71 67 68 69 67 66 66 64 65 66 68 68 69 71 68 70 69 68
7 15 22 23 18 14 17 17 17 12 12 17 26 34 40 43 48 51 54 57 58 59 60 62 64 66 68 69 69 67 68 69 70 69 70 70 68 69 69 68 68 68 68 70 72 71 68 69 70
-2 7 8 17 22 20 16 17 20 19 16 17 24 31 34 39 45 51 53 56 58 59 59 61 62 63 66 67 69 69 68 68 68 69 70 71 71 70 70 70 69 68 68 70 71 70 66 68 69

GFSSGP_sfc_30mbdewp_054.txt.gz
Dewpoint
69 65 64 63 57 57 52 53 58 52 52 55 53 55 55 56 54 56 64 67 67 66 67 71 72 73 73 73 73 73 73 72 72 72 73 72 71 72 72 72 71 71 70 70 71 69 69 71 71
62 61 62 62 57 51 50 53 54 54 52 53 54 55 55 55 59 61 64 66 66 66 67 69 72 73 72 72 72 72 72 72 73 72 72 72 72 72 71 71 71 71 71 71 71 71 70 70 71
68 63 61 60 54 50 52 57 55 57 54 52 58 61 58 56 59 60 64 64 65 65 67 71 73 73 73 73 73 73 73 73 73 72 72 71 72 71 71 71 71 70 70 70 70 69 69 70 71
62 61 64 58 53 54 54 59 60 54 55 56 57 58 59 58 59 61 63 64 63 64 69 73 74 73 73 73 73 73 73 72 72 72 72 72 72 72 72 71 70 70 70 70 70 70 70 69 70
58 63 58 55 55 59 57 61 59 56 58 58 59 58 58 61 61 60 61 62 58 65 68 72 74 73 73 73 73 73 73 72 72 72 72 72 71 71 71 71 69 70 70 69 69 70 69 70 70
59 61 56 53 54 57 57 58 59 61 62 61 59 59 60 61 60 58 61 60 62 63 65 70 73 73 73 73 73 73 72 72 72 72 72 72 72 72 71 70 70 70 70 69 69 70 70 70 71
57 59 55 55 54 56 56 61 58 60 61 60 61 58 61 60 59 59 57 60 60 61 66 69 71 72 73 72 72 72 72 72 72 72 72 72 71 71 71 70 70 69 69 69 69 70 71 70 69
55 57 53 55 52 54 59 60 61 59 59 63 62 58 59 60 60 59 57 57 57 61 64 66 68 69 70 72 72 72 72 72 72 72 72 72 71 70 70 70 70 69 69 69 69 70 71 71 70
53 54 52 53 52 58 62 60 59 59 61 60 60 60 60 60 59 58 56 56 58 58 60 62 65 67 71 71 72 72 72 72 72 72 72 71 69 69 69 70 69 68 69 69 69 70 70 71 71
52 52 50 53 54 56 60 57 58 58 57 58 58 60 60 59 58 57 56 56 57 55 57 59 63 67 69 66 72 72 71 70 69 69 71 70 69 68 66 69 69 68 69 69 70 71 67 67 69
48 49 48 51 53 57 57 55 55 55 54 56 59 60 60 58 58 56 55 56 56 54 54 59 67 66 66 69 70 70 70 69 69 69 69 70 68 66 65 69 68 66 69 69 69 70 67 67 69
44 46 47 48 53 55 58 62 58 59 62 62 60 60 60 58 57 56 54 55 54 54 58 63 64 70 68 67 69 67 69 69 67 68 68 70 69 66 67 69 69 67 69 69 68 70 68 70 68
40 43 45 50 54 54 60 59 60 60 61 60 60 60 60 58 57 56 54 54 54 53 57 64 69 67 68 70 68 67 67 64 67 66 68 68 69 68 67 66 64 69 67 65 64 67 70 70 69
38 40 42 48 51 53 55 58 60 58 60 58 59 60 60 58 57 57 55 54 54 54 59 63 67 70 70 69 70 68 66 65 65 65 70 71 69 69 69 70 68 67 65 67 63 65 65 63 65
30 34 34 39 51 51 52 50 52 59 60 58 58 59 59 58 57 56 55 54 54 55 58 60 68 67 68 67 68 69 64 66 67 68 68 71 70 70 70 68 68 67 69 70 67 65 59 65 64
25 28 30 35 49 51 51 46 49 59 63 57 58 58 58 58 56 55 55 54 55 55 60 60 59 66 68 67 68 66 67 67 68 69 69 72 71 69 71 69 70 70 66 64 61 61 62 63 64
22 20 28 31 42 48 49 48 57 62 63 57 57 56 57 58 56 55 54 55 56 59 63 61 63 65 67 68 67 69 68 66 65 69 69 72 70 70 71 69 69 64 67 68 66 64 60 63 61
18 15 20 25 30 42 44 49 58 59 60 55 56 56 56 56 56 55 54 54 57 60 63 62 64 67 67 69 69 68 65 67 69 68 71 72 72 71 70 70 69 69 66 63 67 66 60 64 61
19 15 9 17 24 41 44 51 51 52 53 55 55 55 55 56 56 56 55 55 58 58 62 65 65 69 68 67 67 66 65 66 66 69 70 71 70 71 69 71 69 69 69 64 69 65 62 63 59
24 20 13 11 19 33 50 52 53 48 56 57 54 54 54 55 56 56 55 55 57 59 62 65 66 69 68 68 68 67 65 67 68 66 71 70 69 70 72 70 69 67 69 69 68 68 66 59 63
19 18 14 14 19 27 31 49 51 50 52 59 52 53 54 54 55 57 56 55 57 59 62 65 67 69 68 67 68 69 68 68 65 70 70 70 70 70 71 70 71 71 70 69 69 68 67 64 61
17 17 16 14 16 22 30 31 50 54 55 57 55 53 53 54 55 57 56 56 56 60 62 65 68 70 68 69 65 65 64 64 62 69 68 70 71 70 72 70 71 69 70 69 70 69 68 63 64
16 18 17 16 13 18 27 29 32 52 54 54 59 53 53 54 55 56 57 57 56 60 62 64 67 70 68 69 67 65 66 64 66 63 70 71 71 72 71 71 72 71 71 70 70 69 68 70 65
17 16 18 17 12 9 14 22 26 38 49 50 55 57 55 53 54 56 58 58 58 60 61 65 67 69 70 69 69 67 65 66 64 63 68 70 71 71 72 71 72 72 71 70 71 70 70 70 69
17 16 15 15 13 9 8 9 18 29 47 53 52 54 56 54 54 56 57 58 58 58 61 64 67 68 70 70 68 70 67 66 68 66 67 66 68 68 71 72 72 72 72 71 71 71 72 71 70
18 18 16 13 13 13 13 8 10 16 34 50 52 56 58 53 53 55 57 58 59 59 61 63 68 68 69 70 68 69 69 66 67 67 63 65 64 66 71 73 72 72 72 72 73 72 72 71 71
21 19 19 16 15 14 13 12 13 12 21 40 49 52 57 56 55 54 57 58 59 60 61 64 67 69 70 69 70 68 70 68 64 65 66 67 65 66 72 72 73 73 73 71 72 71 71 71 71
17 20 20 18 16 16 14 15 13 11 17 31 46 46 52 57 61 57 56 57 60 60 62 63 67 69 70 70 70 69 68 69 68 64 65 65 68 66 73 73 72 72 72 72 72 71 71 71 72
14 15 20 24 22 17 16 16 20 23 16 22 45 49 45 53 58 56 63 57 59 61 62 63 65 69 70 71 70 69 69 68 67 68 64 70 68 71 69 71 71 72 71 72 72 71 71 72 71
11 9 3 7 22 24 20 16 19 25 18 15 16 26 50 54 60 62 55 59 58 60 61 63 64 67 70 71 70 69 69 68 67 65 70 69 72 71 73 71 72 70 71 72 72 72 69 70 71

GFSSGP_sfc_30mbdewp_057.txt.gz
Dewpoint
70 69 66 63 57 57 53 54 56 55 52 55 55 55 56 57 56 53 65 67 67 67 70 72 72 73 73 73 73 73 72 72 73 73 72 72 72 72 72 71 71 70 71 71 69 71 71 71 71
68 64 63 62 55 53 51 59 56 57 55 56 58 56 57 58 61 62 65 67 67 68 71 72 73 73 73 73 73 73 72 73 73 73 72 72 72 72 71 71 72 71 71 71 71 70 70 71 72
67 65 60 59 56 51 51 59 60 59 56 58 59 60 57 59 63 64 66 67 66 69 70 72 73 73 73 72 72 73 73 73 73 72 72 72 72 71 71 71 71 70 70 70 70 70 70 71 71
67 65 63 56 54 56 56 60 60 61 60 59 58 55 58 61 62 65 66 66 65 69 72 74 73 73 73 73 74 73 73 73 72 72 72 72 72 72 71 70 71 70 70 70 70 70 69 69 69
66 62 58 56 56 56 60 60 60 61 62 59 56 57 59 61 63 65 65 65 69 71 73 74 74 74 73 73 73 73 73 73 73 72 72 72 71 72 72 70 70 70 70 70 70 70 70 70 69
58 60 56 52 54 57 61 63 61 61 60 59 58 59 60 61 62 63 65 67 69 70 73 73 74 74 74 73 73 73 73 73 73 72 72 72 72 71 70 71 70 70 69 70 70 70 70 70 70
58 59 55 55 56 55 59 65 59 60 60 59 60 58 60 59 61 63 64 66 67 70 71 72 73 73 73 73 73 73 72 72 72 72 72 72 72 71 70 70 69 69 70 70 70 71 70 69 68
59 56 55 55 53 55 59 61 62 59 60 62 61 58 58 58 60 61 62 63 67 69 70 71 72 73 72 73 72 72 72 72 72 72 72 71 71 71 70 71 70 69 70 70 70 71 71 71 70
60 52 52 53 52 58 62 60 60 60 62 62 61 60 60 59 59 60 59 63 65 67 68 70 70 71 72 72 72 72 73 72 72 72 71 72 70 70 70 70 70 70 70 70 70 71 71 71 71
55 50 51 52 54 58 59 60 56 59 60 60 60 61 60 59 58 57 57 60 62 64 66 67 68 71 71 71 72 72 72 72 72 72 71 71 70 70 69 70 70 69 70 70 72 67 64 65 68
50 50 50 51 54 58 59 62 58 58 58 59 60 59 59 59 57 56 58 58 60 62 63 65 68 70 68 71 72 72 72 71 71 70 69 70 70 68 68 69 69 69 70 68 71 64 61 62 67
48 47 48 49 58 62 62 64 59 59 61 64 62 60 59 58 57 56 56 57 56 58 61 66 68 68 69 70 71 71 70 70 68 65 68 70 68 67 67 69 66 66 69 67 70 66 65 67 68
45 44 44 49 57 62 63 60 59 58 61 64 62 60 58 57 57 56 56 57 56 63 65 68 68 68 69 70 70 67 69 69 68 69 67 68 69 68 69 69 68 69 70 70 70 66 66 69 69
41 40 39 41 56 61 58 59 60 60 59 62 61 59 58 57 57 56 56 56 60 63 65 67 65 64 66 69 68 66 66 67 69 68 63 66 69 70 69 68 69 68 66 68 66 69 67 67 68
34 30 30 35 47 55 58 56 57 61 61 61 59 58 58 57 57 56 56 55 56 65 66 65 63 60 66 69 67 68 68 68 68 68 68 69 69 70 70 68 66 65 69 69 69 68 68 67 66
30 25 25 31 41 50 52 52 60 63 62 59 59 59 59 57 56 57 57 56 61 65 65 67 67 67 68 69 68 68 67 67 69 70 71 71 71 71 71 69 69 67 68 66 61 62 64 64 62
32 23 22 25 31 49 51 55 62 64 62 59 59 59 59 58 57 57 57 56 59 62 65 65 65 67 68 70 65 65 66 67 70 69 72 70 71 69 68 69 70 68 67 66 65 65 63 63 62
30 23 21 20 28 48 51 57 60 60 60 60 58 59 58 58 57 57 55 56 62 61 61 65 66 67 66 69 67 66 69 67 69 71 71 71 70 67 64 68 70 68 66 65 67 66 62 64 60
27 26 22 18 20 41 50 58 60 58 59 60 61 59 58 57 58 56 55 57 62 61 61 65 66 66 69 68 67 68 66 67 67 70 71 71 72 70 70 69 70 67 65 63 67 64 62 63 62
25 24 24 24 18 21 49 54 55 59 57 61 61 58 57 57 57 56 54 58 61 61 61 65 67 67 69 67 68 68 67 65 66 70 70 71 71 70 67 69 70 69 68 69 68 68 64 64 62
23 24 23 22 19 35 49 50 51 54 57 60 62 59 58 56 56 56 54 56 60 63 63 66 68 67 68 66 67 69 67 68 67 68 69 71 72 71 71 71 70 68 69 68 68 67 67 62 62
20 22 20 17 16 17 47 43 50 51 55 59 58 59 58 57 55 56 55 56 58 62 64 66 69 68 69 67 66 67 66 66 65 66 69 71 70 70 71 69 69 70 70 70 69 69 67 64 62
19 21 19 19 16 16 15 16 44 52 54 54 55 55 55 58 56 55 55 55 58 62 63 67 69 68 67 69 66 66 65 66 67 68 69 70 71 71 70 71 71 70 69 68 69 69 69 69 67
19 17 17 17 18 16 15 14 20 50 52 54 51 52 54 57 56 56 56 56 59 62 63 66 69 67 67 67 68 65 65 65 66 67 66 70 71 72 72 71 71 71 70 70 70 71 69 68 69
17 17 15 14 15 16 16 12 11 49 53 54 52 54 56 60 56 57 56 56 57 61 62 65 67 69 67 67 68 68 64 65 65 67 69 69 69 71 72 71 72 72 71 70 70 71 71 70 69
19 16 16 13 16 16 17 14 13 13 53 54 53 56 60 59 57 56 57 56 57 61 62 64 65 67 68 66 66 69 69 65 67 68 69 69 69 69 72 71 72 71 72 71 71 70 70 71 69
23 21 17 16 17 17 17 17 18 16 39 52 52 55 55 56 60 60 58 57 58 60 61 63 65 66 69 68 66 67 71 65 66 66 68 66 69 69 70 72 71 72 72 72 72 70 71 71 71
22 23 18 18 15 16 18 18 20 20 16 49 52 53 59 60 60 62 62 62 59 59 61 63 66 66 68 68 68 66 68 70 66 66 66 67 64 67 70 73 71 72 72 71 73 70 71 70 71
17 17 18 20 22 21 16 17 22 26 32 46 51 52 58 56 59 61 61 64 63 59 60 62 67 67 67 67 69 67 66 69 70 66 64 67 66 72 72 72 73 73 72 72 71 71 71 70 70
12 12 14 13 16 22 24 25 28 33 38 43 50 50 58 59 62 62 59 59 63 61 59 61 64 67 68 68 68 69 67 67 68 68 65 63 67 68 72 72 72 71 71 72 72 71 71 70 70

GFSSGP_sfc_30mbdewp_060.txt.gz
Dewpoint
70 69 68 63 57 57 53 54 60 56 56 55 54 54 56 59 57 53 64 67 68 68 71 73 73 73 73 74 73 73 72 73 73 72 72 73 72 72 71 71 71 72 69 70 71 71 71 71 72
69 67 64 63 54 52 52 59 58 58 57 57 57 58 58 58 61 63 65 68 67 69 72 72 74 74 73 73 73 72 72 73 73 72 72 72 72 71 71 72 72 71 71 70 69 71 70 71 72
67 64 61 59 56 52 53 57 59 60 60 58 58 58 59 61 62 63 67 67 67 70 72 72 73 74 73 73 73 72 73 73 73 73 72 72 71 71 71 71 70 70 70 70 70 70 70 71 71
66 66 63 55 53 56 56 57 61 61 62 59 57 56 59 64 63 65 67 67 69 70 71 73 72 72 72 72 72 73 72 73 72 72 72 72 72 71 70 71 70 70 70 70 70 69 70 70 71
67 63 57 56 56 57 60 61 61 60 61 60 58 57 60 63 65 66 66 68 69 71 73 73 74 74 73 74 73 73 73 73 73 72 72 72 71 71 70 70 70 70 70 70 70 69 70 70 71
60 60 56 53 54 59 61 63 61 61 61 59 58 58 59 64 65 65 66 69 71 72 73 74 74 74 73 73 73 73 73 73 72 72 72 72 72 70 71 71 70 70 70 70 70 69 70 70 69
58 59 55 54 54 57 60 61 61 60 58 58 60 55 60 63 65 65 69 70 71 73 73 73 73 73 73 73 73 73 73 72 72 72 72 72 71 71 71 70 70 70 70 70 70 70 69 68 69
59 57 55 55 53 56 62 61 62 60 60 61 59 55 57 62 64 67 68 69 71 72 72 72 73 73 73 74 73 73 73 72 72 72 72 71 71 70 70 71 70 70 70 70 71 71 70 69 69
61 56 52 51 52 56 63 61 62 63 61 60 61 58 59 62 63 65 66 68 69 70 72 72 72 72 72 73 72 73 72 72 72 71 71 71 70 70 70 71 70 70 70 70 70 71 71 71 70
59 55 54 52 57 59 61 61 58 60 60 60 61 59 59 61 62 63 65 66 67 68 70 71 72 72 72 72 72 72 73 72 72 72 71 70 70 70 70 70 70 70 70 71 71 67 69 68 68
54 54 54 53 58 57 56 58 62 58 58 60 59 57 58 59 61 62 64 65 66 68 69 69 70 71 71 72 72 72 72 72 71 70 70 70 70 70 70 70 70 70 70 71 69 65 64 67 68
51 51 50 51 59 59 59 62 60 60 60 63 60 59 58 59 58 61 62 64 65 66 67 68 70 70 69 72 72 72 71 71 70 70 69 70 69 68 69 68 67 68 68 65 69 65 65 68 69
47 48 50 50 61 59 57 57 58 59 64 64 62 59 58 58 57 60 60 61 63 64 66 67 69 69 70 71 71 71 71 71 69 67 69 69 68 68 68 68 67 67 69 67 68 65 65 67 68
45 43 41 60 60 61 59 60 60 59 63 63 61 59 59 58 56 58 58 58 61 62 65 68 68 69 70 70 70 69 70 70 69 68 67 68 70 69 68 68 68 69 69 70 68 68 66 66 68
43 38 32 48 61 60 59 58 58 59 62 63 61 58 58 58 56 57 57 58 59 64 66 67 66 68 69 69 69 66 67 68 69 67 64 68 70 69 67 68 69 68 69 68 66 68 67 67 67
33 31 26 39 59 59 54 52 60 60 62 61 60 58 57 58 57 56 57 62 63 64 65 65 64 65 68 68 68 69 68 68 68 68 68 68 70 70 70 68 68 66 69 66 65 67 67 66 64
32 31 29 24 39 58 55 57 60 62 62 60 59 58 57 58 57 57 57 62 64 65 65 64 62 67 68 67 68 67 68 69 68 69 70 71 70 70 69 69 69 68 67 67 64 65 65 64 63
30 30 26 23 22 50 54 56 61 62 61 59 58 58 57 58 57 57 58 63 65 64 65 65 65 67 68 68 65 67 68 68 70 70 71 71 69 68 68 69 68 68 66 64 65 64 62 64 62
30 28 26 27 27 25 52 58 60 62 61 59 59 58 57 59 59 57 57 63 64 64 64 65 65 67 68 67 65 67 66 67 68 71 71 70 69 66 67 69 69 66 64 62 67 63 61 64 62
30 29 26 26 26 29 55 57 60 60 60 60 59 59 58 58 58 58 56 60 62 62 63 65 65 66 67 67 67 67 67 67 67 70 71 71 70 70 68 68 69 67 67 65 68 66 65 63 62
30 29 27 25 26 52 55 54 57 58 58 61 61 61 61 58 57 58 57 60 60 60 64 65 66 67 67 66 68 68 67 67 67 69 70 71 71 70 69 70 69 68 69 68 68 67 64 57 61
28 27 24 24 19 20 48 44 53 57 57 60 56 59 60 60 58 57 57 59 59 60 65 66 66 67 67 66 66 67 66 65 65 67 69 71 71 70 70 71 70 68 69 68 67 69 66 63 60
27 26 22 20 18 17 25 18 44 55 55 59 53 54 57 59 58 57 56 60 60 60 63 67 66 67 67 66 64 66 66 66 65 67 68 69 71 71 71 69 70 70 70 69 68 69 69 67 65
26 21 18 19 18 14 17 15 46 51 54 58 59 60 60 58 57 57 56 59 61 61 62 67 67 66 67 66 65 64 66 65 66 66 67 69 71 71 70 69 70 70 69 68 69 69 67 68 68
20 17 15 14 13 13 18 16 14 50 51 57 58 59 59 57 56 57 56 57 60 61 63 67 67 66 67 67 67 65 65 65 66 67 67 68 70 70 71 71 71 70 70 70 69 70 70 69 68
20 16 15 13 13 16 18 15 15 33 51 54 57 57 55 55 56 57 56 56 58 61 62 66 66 66 66 66 67 68 65 65 66 67 68 68 69 70 72 71 71 71 70 70 70 70 69 70 69
22 20 19 16 18 15 17 19 22 33 31 54 53 53 54 55 58 58 56 56 59 60 61 64 66 66 65 65 65 67 69 66 65 68 70 69 69 69 72 71 71 71 71 70 70 69 69 70 71
21 23 19 19 14 13 17 19 19 34 41 47 53 52 53 59 60 60 57 56 59 61 61 63 65 66 66 66 65 65 67 69 66 66 67 69 69 69 70 71 71 71 71 71 71 69 70 70 70
11 13 19 20 22 19 17 18 32 36 39 42 52 53 55 59 60 61 60 59 61 62 61 62 63 64 67 67 66 64 65 67 69 65 65 66 67 68 69 71 71 70 71 71 72 70 69 70 69
13 18 16 15 15 21 24 22 32 36 36 34 40 53 58 59 61 61 61 62 60 61 61 62 63 64 64 68 67 66 64 65 68 69 65 65 66 69 70 72 71 71 71 71 70 70 70 70 69

GFSSGP_sfc_30mbdewp_063.txt.gz
Dewpoint
70 70 68 63 56 56 52 54 59 56 56 56 53 52 54 57 57 53 63 66 67 68 71 73 73 73 73 74 72 71 72 73 72 73 72 72 72 72 70 71 71 69 72 70 70 71 72 72 72
70 67 65 62 54 50 52 57 57 59 59 57 58 58 59 58 62 62 64 67 67 70 73 73 73 73 73 73 72 72 73 72 72 73 72 72 72 71 72 71 71 70 69 71 70 70 71 72 72
68 65 61 59 55 51 52 58 58 61 61 58 58 60 60 60 62 61 67 66 68 71 72 73 74 73 73 73 72 72 73 72 72 72 72 72 71 71 71 71 71 70 70 70 71 70 71 71 71
64 65 63 55 53 55 57 57 59 61 62 61 59 57 62 64 61 66 66 66 70 71 72 73 73 73 73 73 72 72 73 72 72 72 72 71 71 71 70 70 70 70 70 69 69 70 71 71 70
67 63 57 56 55 57 59 60 62 61 62 61 60 58 60 63 66 66 66 68 70 71 72 73 73 72 72 72 73 72 73 72 72 72 72 72 71 70 71 71 71 71 70 69 69 70 71 70 70
60 60 56 52 55 59 61 62 61 60 62 61 58 59 61 65 65 66 67 69 70 72 72 73 73 72 73 73 72 73 73 73 72 72 72 71 71 71 71 71 71 70 69 69 69 70 70 70 70
59 59 55 54 54 57 60 62 62 60 60 58 60 57 62 64 65 66 68 70 71 73 73 73 73 73 73 73 73 73 72 72 72 72 72 71 70 71 71 70 70 70 69 69 70 70 69 69 70
60 57 55 54 53 55 60 61 62 60 59 58 58 57 59 64 65 69 70 70 72 73 73 73 73 73 73 73 73 72 72 72 72 72 72 71 71 70 70 71 71 70 69 70 69 69 69 70 71
62 56 52 51 53 57 61 61 63 64 60 56 62 57 62 64 68 68 69 70 70 71 72 72 72 73 73 72 72 72 72 72 71 71 71 71 70 70 70 71 70 70 70 70 68 69 70 70 70
60 56 54 54 57 57 61 61 61 60 59 59 56 60 63 66 67 67 67 67 68 70 71 72 72 72 72 72 72 72 72 72 72 72 71 70 70 70 70 71 70 70 70 71 69 69 70 69 69
57 55 55 54 57 60 60 60 60 58 58 60 56 60 62 65 65 66 67 67 67 69 71 71 71 72 72 71 72 72 72 72 72 71 71 70 70 70 70 70 70 70 71 71 66 65 66 68 68
52 53 54 51 58 57 56 60 60 60 59 61 57 61 62 63 64 65 65 65 67 69 70 70 71 71 71 72 72 72 71 71 70 70 70 69 69 69 69 69 68 68 67 66 67 65 67 68 68
50 50 49 49 53 56 57 56 59 60 64 62 58 60 61 61 63 64 65 65 66 67 68 69 70 70 70 71 71 71 71 71 70 69 69 70 68 67 68 67 67 67 68 67 67 64 66 67 68
47 47 46 49 56 57 56 59 59 61 64 62 58 58 59 60 61 63 63 64 66 66 67 67 70 69 70 71 71 70 70 71 69 68 69 69 68 67 68 67 67 68 68 68 67 67 66 66 67
45 44 41 56 58 57 59 58 57 62 63 62 59 58 58 59 59 61 61 63 65 65 66 67 69 69 69 70 70 69 69 70 69 67 68 68 70 68 68 68 68 68 67 68 68 67 67 66 67
34 31 29 56 58 60 58 49 59 62 62 61 60 58 58 57 57 60 59 61 64 64 65 67 68 68 69 69 69 68 67 68 69 68 66 68 70 69 68 67 68 67 69 68 65 66 67 65 64
32 31 31 43 60 59 57 53 59 62 62 61 60 58 58 57 56 58 59 60 61 64 66 66 67 67 68 68 69 68 66 68 68 68 67 69 70 70 69 68 69 67 66 64 63 65 66 64 63
31 31 29 27 54 56 56 55 59 60 61 61 60 58 57 57 57 57 60 59 62 65 66 65 65 67 68 67 67 67 68 69 68 68 69 71 70 70 69 69 68 68 66 66 65 64 64 64 62
32 30 28 29 29 26 49 52 59 60 61 60 60 59 57 57 58 58 61 62 63 64 64 63 64 67 68 66 65 66 66 68 68 69 70 70 69 68 68 69 69 67 65 64 65 62 62 63 62
31 30 29 28 27 30 36 51 59 61 60 60 59 59 57 57 57 58 59 63 64 63 64 64 64 67 68 66 66 67 67 67 68 69 70 70 69 66 67 68 68 65 64 65 67 65 65 63 62
31 30 29 28 28 51 55 54 58 60 60 60 60 59 59 57 58 58 60 63 64 63 64 64 64 67 67 66 67 67 67 67 67 69 70 70 71 69 68 68 69 68 67 67 67 66 63 57 61
32 32 31 28 22 17 50 42 54 57 57 59 60 60 59 57 58 59 58 61 63 63 63 64 64 66 67 67 66 66 65 64 65 67 69 70 71 70 69 69 70 68 69 68 67 68 65 60 58
29 31 28 26 20 17 25 35 40 57 55 56 60 61 61 60 58 58 57 59 61 62 63 64 65 66 66 66 66 66 65 65 65 66 68 70 70 70 70 70 70 68 69 68 68 69 67 65 64
29 26 21 20 18 15 16 20 35 53 53 55 58 60 60 60 60 59 58 59 60 60 63 64 65 66 66 66 65 65 65 66 65 65 66 68 70 70 70 70 70 69 69 69 68 69 68 67 67
23 19 18 14 14 14 18 16 16 46 54 54 56 59 56 58 59 59 57 59 59 59 63 65 65 65 66 65 64 64 65 65 66 66 65 67 69 70 70 70 70 69 69 68 69 69 68 67 67
19 19 16 13 13 14 18 14 24 38 43 54 56 56 58 57 60 59 57 59 59 59 61 65 65 65 66 66 65 64 64 65 65 66 67 67 68 70 70 70 70 70 69 70 69 70 69 70 68
20 20 18 16 18 14 17 19 24 39 41 43 54 58 58 59 60 59 57 58 60 59 61 64 65 65 65 65 65 66 64 64 64 66 68 68 69 69 71 71 70 71 70 70 70 69 69 69 69
15 22 19 17 13 13 16 21 32 34 34 40 51 56 58 59 59 58 58 57 59 60 61 63 65 64 65 65 65 66 67 65 65 65 67 69 69 69 70 71 70 70 71 70 70 69 69 69 69
17 17 17 21 19 14 14 26 33 34 32 34 47 53 56 55 57 58 58 58 58 60 61 62 64 64 64 65 65 64 65 68 67 65 65 66 69 69 69 70 71 70 70 71 70 70 69 69 69
19 19 17 15 17 20 22 25 24 31 28 30 55 53 54 55 57 62 62 62 61 61 61 62 63 64 64 65 64 64 64 65 67 67 66 65 65 67 68 69 70 70 70 70 70 70 70 69 69

GFSSGP_sfc_30mbdewp_066.txt.gz
Dewpoint
70 69 67 63 55 55 52 55 59 56 57 56 53 52 53 55 54 53 63 65 67 68 71 72 73 73 72 72 71 72 72 71 72 72 72 72 72 71 71 70 70 72 70 70 71 71 72 72 72
70 68 65 62 53 50 51 57 57 59 59 56 58 58 59 57 62 61 64 66 67 70 72 73 73 73 73 72 72 73 72 72 73 72 72 72 71 72 71 71 70 70 70 70 70 71 72 72 72
69 66 61 59 55 50 52 57 58 59 61 58 59 61 61 60 61 62 66 66 69 72 73 73 73 73 73 72 72 72 72 72 73 72 72 72 72 72 72 71 71 70 70 70 70 71 71 71 71
65 65 63 55 52 55 57 58 59 60 62 62 61 59 63 64 60 66 66 68 71 72 73 73 73 73 73 72 72 73 72 73 72 72 72 71 71 71 70 71 70 70 69 70 71 71 71 71 70
67 63 57 56 56 58 60 60 61 61 62 62 60 58 59 63 66 65 66 70 71 71 72 73 73 73 73 72 72 72 72 72 72 72 72 72 70 71 71 70 70 70 69 70 70 70 70 70 70
61 60 55 52 54 59 61 61 62 61 62 62 60 58 61 66 65 65 68 70 71 71 72 73 73 72 72 72 72 72 72 72 72 72 71 72 71 70 70 71 70 69 69 70 70 70 70 71 71
59 58 55 54 54 56 60 64 61 59 60 58 60 57 63 64 65 66 69 70 71 72 72 73 72 72 73 72 73 72 72 72 72 72 72 71 71 70 70 70 70 69 69 70 70 70 70 71 71
61 58 54 54 52 55 60 61 64 60 59 60 60 57 60 64 66 68 69 71 72 73 73 73 73 73 73 73 73 72 72 72 73 72 71 71 71 70 71 71 70 69 69 70 70 69 70 71 71
63 56 52 51 53 56 61 60 63 64 59 56 59 60 62 65 67 68 69 70 70 72 72 72 72 72 73 73 72 72 72 71 71 71 71 71 70 70 70 71 70 70 69 68 68 70 69 70 71
60 56 53 55 57 58 60 60 62 60 58 57 61 63 64 67 67 66 66 65 66 68 71 72 72 72 72 72 72 72 72 71 72 72 71 70 70 70 71 71 70 70 69 68 69 69 70 70 70
59 55 55 55 59 60 59 60 62 59 58 58 60 62 65 66 66 65 65 65 66 68 70 71 72 72 72 72 72 72 72 72 72 71 70 70 70 70 70 70 70 71 71 67 67 66 68 68 69
54 53 55 54 58 59 59 60 59 60 59 60 61 63 65 65 65 65 65 66 68 68 69 71 71 72 71 72 72 72 71 71 70 70 70 69 69 69 69 69 69 69 67 68 66 65 67 68 68
51 52 51 52 52 57 59 59 60 59 63 59 62 63 64 65 66 66 67 67 68 69 70 71 71 71 71 71 71 71 71 70 69 69 69 69 69 68 68 68 67 68 67 68 65 66 67 67 68
48 49 48 46 48 55 55 57 59 62 61 60 62 62 63 64 65 66 66 65 66 68 68 70 70 70 71 71 71 71 70 70 70 69 68 69 69 68 67 67 67 68 68 68 67 66 66 66 67
46 43 39 39 58 57 60 58 57 63 60 60 61 61 62 63 64 65 65 65 66 67 68 68 70 69 70 70 70 70 70 70 70 69 68 68 69 68 68 68 68 68 68 68 69 68 67 66 66
35 32 31 51 57 59 55 49 60 64 61 59 60 60 61 61 63 64 64 64 65 65 66 68 69 69 69 70 69 69 69 69 70 69 67 67 69 70 68 68 68 68 69 68 66 66 66 66 64
32 32 31 31 58 59 55 52 59 63 62 58 58 58 59 60 61 62 62 64 65 65 66 67 68 68 69 69 69 69 68 68 68 69 68 67 69 70 69 68 68 67 67 65 64 66 66 64 63
32 31 29 29 55 57 55 54 59 62 62 61 59 57 58 58 58 61 61 63 64 64 66 67 68 68 68 68 69 68 67 67 68 68 68 68 70 70 69 69 68 67 66 65 65 64 65 64 63
34 31 29 29 36 38 31 42 56 60 62 61 60 58 58 57 57 59 59 61 62 64 66 66 66 67 68 67 67 67 66 67 68 68 69 70 70 70 69 69 68 68 64 64 65 62 63 64 62
33 31 30 29 30 28 37 47 56 58 61 61 60 58 58 57 57 57 59 59 62 64 65 65 65 67 68 66 66 67 67 68 68 69 70 70 70 67 68 69 68 67 64 67 66 64 65 63 62
32 31 30 28 30 43 53 51 56 60 61 61 61 60 59 58 57 57 60 60 62 63 64 64 64 66 68 66 67 67 67 67 67 68 69 70 70 68 68 69 68 67 64 67 67 65 63 59 62
35 33 31 30 26 18 49 29 52 57 59 59 60 60 59 58 58 57 58 62 63 63 64 64 64 66 68 67 66 65 65 65 66 67 69 70 71 70 69 68 69 68 68 68 67 68 65 60 59
34 31 30 28 25 19 25 41 33 55 56 58 60 60 60 59 58 58 59 63 63 63 64 64 64 66 67 67 66 66 65 65 66 67 68 69 70 71 70 69 70 68 69 68 68 68 66 64 63
29 27 21 20 19 16 17 32 17 50 53 54 58 61 61 60 58 59 59 62 63 63 63 64 64 65 67 67 66 66 65 65 65 65 66 68 70 70 70 71 70 70 69 69 68 69 68 67 67
27 24 19 15 16 14 17 17 23 37 39 44 55 59 62 61 60 59 58 60 62 63 63 64 64 64 66 66 66 66 65 65 65 65 65 66 68 69 70 70 70 69 69 69 68 69 68 67 67
22 21 18 13 14 14 18 15 27 35 37 38 52 58 60 61 61 60 59 58 60 61 62 63 64 64 65 66 65 66 66 66 66 66 66 66 67 69 70 70 70 70 70 69 69 70 70 69 68
18 19 19 17 18 15 17 24 26 33 31 34 38 55 58 59 60 60 59 59 59 60 61 63 64 64 65 65 65 65 65 65 66 66 67 67 68 69 70 70 70 70 70 70 70 69 69 70 69
20 19 17 17 14 13 17 29 31 26 27 33 43 52 56 58 57 59 60 58 59 60 61 63 64 64 65 65 65 65 65 65 65 66 66 67 68 69 70 70 70 70 71 70 70 69 69 69 69
18 17 17 20 18 14 18 27 25 25 27 30 54 59 54 59 60 60 61 58 60 60 60 62 64 64 64 65 65 65 65 65 65 65 66 67 68 69 69 70 70 70 70 71 70 70 69 69 69
20 19 17 18 19 17 23 22 19 20 24 33 50 60 60 60 62 62 61 62 60 61 61 61 63 64 64 65 65 65 66 67 65 64 65 66 67 69 70 70 70 70 70 70 70 70 70 69 69

GFSSGP_sfc_30mbdewp_069.txt.gz
Dewpoint
69 67 66 63 56 54 52 54 57 57 54 55 53 52 51 53 53 53 62 63 65 66 70 71 73 72 72 71 72 72 72 73 72 73 73 71 71 71 70 70 71 70 71 72 71 72 72 72 72
67 66 65 63 53 49 52 57 58 59 59 54 57 54 56 55 61 61 61 63 65 66 69 70 74 72 72 71 72 72 72 73 73 73 72 71 71 71 71 70 71 71 70 71 71 71 72 72 72
66 67 62 59 54 50 52 57 59 60 57 60 59 61 61 59 61 60 63 64 65 68 69 70 73 74 72 72 73 72 72 73 72 72 72 72 72 71 71 70 70 71 70 71 71 71 71 72 71
64 65 64 55 52 54 57 58 60 61 60 62 60 59 61 62 60 63 64 65 66 68 69 72 73 73 73 72 73 72 72 73 72 72 71 71 71 71 71 70 70 70 70 71 71 71 71 71 70
66 64 57 55 55 58 60 60 61 59 62 61 60 58 59 62 65 64 64 65 65 68 69 70 73 73 73 73 73 73 73 72 72 72 72 71 71 71 70 70 70 69 70 71 70 70 70 70 71
61 60 55 52 54 59 60 61 61 60 62 60 58 57 60 65 63 63 65 65 66 67 69 70 73 73 73 72 72 72 72 72 72 72 72 71 70 70 69 69 69 69 70 70 70 71 71 71 72
59 58 55 54 53 56 59 63 59 61 60 60 60 58 63 63 62 65 65 67 67 68 69 71 70 71 72 73 72 72 72 72 72 72 71 71 70 70 71 70 68 69 70 70 70 71 71 72 72
62 58 54 53 52 56 60 62 64 59 59 61 60 57 58 63 63 65 66 67 67 68 69 69 69 71 71 72 72 72 72 73 72 71 71 71 70 71 70 70 69 70 70 70 70 71 71 71 72
63 56 52 51 52 57 61 61 64 64 59 58 59 60 60 63 64 64 65 67 67 68 69 69 71 71 72 71 72 72 72 72 72 70 73 71 69 69 69 71 69 69 69 69 70 70 70 71 72
60 56 53 55 56 57 60 62 62 60 57 59 60 62 63 63 63 62 64 64 65 67 69 69 71 70 71 71 72 71 70 70 71 71 72 70 70 70 70 70 70 69 68 69 70 71 70 69 70
58 55 55 54 57 59 59 60 63 59 57 59 60 61 62 61 61 62 62 64 64 65 68 70 71 71 70 72 70 70 70 70 71 71 71 71 70 70 70 71 69 70 69 66 68 67 67 69 69
56 55 55 54 57 58 58 60 60 59 60 61 61 61 61 60 60 61 62 63 65 66 69 70 70 72 71 71 69 71 69 70 69 70 71 70 67 68 69 68 70 69 67 67 65 66 69 69 69
54 54 52 51 51 53 58 58 58 59 61 61 61 61 60 60 60 62 63 64 66 66 68 69 70 72 72 72 72 70 69 69 69 70 71 70 69 68 69 69 68 68 68 67 66 68 68 68 68
50 49 47 45 45 50 55 57 59 60 61 61 61 61 60 61 61 63 64 65 65 66 67 69 70 71 71 71 72 71 70 69 69 69 70 71 71 70 69 68 68 69 69 68 67 67 68 67 67
47 43 37 52 53 55 58 56 56 60 61 61 61 60 61 62 62 64 64 64 65 65 67 68 69 70 71 71 71 69 68 68 68 70 71 70 71 71 70 70 69 69 69 70 70 69 68 66 66
39 34 36 52 56 57 56 51 58 61 61 61 61 61 61 62 63 64 65 65 65 64 67 69 67 69 70 70 71 68 68 69 70 70 69 70 70 72 71 70 69 69 70 68 67 67 66 65 65
34 36 33 34 58 57 55 51 60 62 60 60 60 59 60 61 63 65 65 65 65 65 66 68 67 68 69 70 69 69 69 69 70 70 70 70 70 72 71 69 69 70 68 66 65 67 66 64 64
36 32 29 34 51 56 53 52 59 62 61 60 61 59 59 60 62 64 65 65 65 64 65 66 67 68 69 69 70 68 69 69 69 70 70 70 70 72 71 70 70 69 67 66 66 67 66 65 64
34 32 31 31 41 40 31 33 49 60 61 59 59 59 59 59 61 63 64 64 64 63 65 66 67 69 69 68 66 67 67 68 68 69 71 71 71 72 72 70 69 69 66 67 67 66 66 64 65
36 33 32 31 31 32 31 35 57 57 60 61 59 58 58 59 60 61 62 62 63 63 65 66 67 69 69 68 68 68 68 68 69 70 71 71 72 72 71 71 69 69 66 68 68 67 65 65 64
35 34 32 30 31 42 50 48 55 59 60 61 61 59 58 58 58 59 61 61 62 63 65 66 67 69 69 68 69 69 69 69 69 70 69 70 72 69 70 71 70 69 68 67 69 67 67 62 64
35 34 33 31 29 22 40 24 48 56 57 60 61 60 58 58 58 58 59 60 61 62 64 66 67 68 70 70 68 67 66 65 66 68 68 70 72 71 70 71 71 70 67 69 69 69 67 64 61
37 34 33 31 29 23 27 30 39 53 55 57 60 61 59 59 58 58 59 60 60 62 64 65 67 68 68 70 68 68 67 66 67 68 70 70 73 72 71 71 71 71 70 70 70 70 67 66 63
34 27 24 23 23 20 21 28 26 38 42 42 56 60 60 59 58 59 59 60 61 62 63 64 66 67 68 69 69 68 67 67 66 67 68 68 70 72 72 71 72 72 71 71 70 71 71 70 68
30 27 22 21 20 20 20 21 32 35 36 38 44 51 61 60 59 59 59 59 61 62 63 64 66 66 68 68 68 68 68 68 68 68 67 68 68 70 71 72 72 72 71 71 71 71 71 70 68
26 26 20 18 18 18 21 18 30 28 36 45 53 53 57 61 60 59 59 60 61 62 64 64 65 66 67 67 68 69 69 67 67 68 66 67 67 68 71 72 72 72 72 71 72 70 69 70 69
21 21 22 19 19 17 18 25 29 26 37 47 56 57 56 60 61 60 60 60 61 63 64 64 65 66 66 66 68 68 69 68 67 68 69 67 68 68 71 72 72 72 72 72 71 69 71 71 71
22 21 18 20 17 15 23 29 25 26 39 49 56 58 55 58 61 61 60 60 61 62 63 64 65 66 66 66 67 67 67 68 68 69 69 68 69 70 70 71 71 72 72 72 72 71 71 71 70
20 19 21 21 20 16 19 25 20 31 45 48 47 55 60 60 59 61 61 61 61 61 62 63 64 65 65 66 66 66 66 67 68 67 68 69 70 70 71 71 71 71 72 72 72 71 70 70 70
20 20 19 20 22 22 23 21 25 39 44 42 45 47 51 57 60 63 63 62 62 62 61 61 63 64 65 66 67 66 66 67 66 67 67 69 70 70 71 71 71 72 71 72 72 71 70 70 70

GFSSGP_sfc_30mbdewp_072.txt.gz
Dewpoint
68 64 64 62 56 52 51 55 58 54 53 54 52 51 50 51 52 53 59 59 63 64 67 70 73 72 71 73 72 72 73 73 73 73 71 71 71 70 71 71 70 71 72 72 72 72 72 72 72
62 64 65 61 53 47 52 58 57 58 55 53 53 51 53 56 59 58 58 61 63 63 64 67 73 72 71 73 71 72 73 73 73 72 72 71 72 71 71 71 71 71 71 71 72 72 72 72 72
64 66 61 58 50 48 52 58 58 57 55 54 57 56 59 58 59 57 59 61 62 63 64 70 73 73 72 73 72 72 73 72 71 72 72 72 71 71 70 70 71 70 71 71 72 72 71 71 72
64 64 62 56 52 55 56 59 58 58 61 60 58 58 60 62 57 59 60 60 62 63 64 73 74 72 72 72 72 72 73 72 72 71 71 71 71 70 70 70 71 70 71 71 72 72 70 70 71
64 62 57 54 54 58 59 60 60 57 59 60 58 57 58 59 61 60 60 60 61 62 65 70 73 73 72 73 73 73 73 72 71 71 71 71 71 70 70 70 70 71 71 71 71 71 70 70 71
61 59 54 51 54 58 59 60 61 59 60 59 58 58 60 61 60 60 61 61 61 61 64 69 73 73 73 72 73 72 72 72 72 71 71 70 70 69 70 70 69 70 70 71 71 70 70 71 72
60 58 53 51 54 56 59 61 58 58 59 59 58 57 60 59 59 60 61 61 61 62 64 67 69 72 73 72 72 72 72 72 71 71 71 70 70 70 70 69 70 70 70 70 70 70 71 72 72
61 56 51 50 53 56 60 60 59 59 58 60 59 57 57 58 60 61 62 61 61 62 65 65 64 65 67 70 72 72 72 72 71 71 71 71 70 70 69 71 71 70 70 71 70 70 71 72 71
62 55 49 50 53 57 59 59 62 61 58 58 58 58 57 59 61 61 61 61 62 63 64 61 64 68 70 70 72 72 71 71 70 71 70 69 64 65 66 70 70 70 70 70 70 70 72 72 71
58 54 50 52 53 57 61 61 60 59 58 57 58 58 59 60 61 60 60 60 61 62 62 61 65 66 68 69 69 66 66 64 65 66 67 65 66 69 66 69 69 69 70 70 71 69 69 68 67
56 52 52 51 54 55 59 60 62 59 56 57 58 58 58 59 59 59 59 59 60 62 60 63 65 67 67 69 64 63 64 65 68 68 66 67 65 64 63 66 66 66 68 65 67 66 66 66 64
55 54 54 51 51 54 55 58 58 59 59 60 60 59 58 58 58 58 58 59 60 62 61 63 66 67 67 66 62 64 64 65 65 67 68 67 64 64 64 64 66 65 63 64 64 66 68 68 66
54 53 52 50 47 48 53 56 57 59 61 60 59 58 57 57 58 58 58 60 61 61 63 63 66 68 69 66 64 64 65 63 65 66 68 66 65 66 65 66 65 64 64 64 66 66 66 66 65
49 50 48 45 42 45 53 55 56 59 60 59 58 57 56 56 57 58 59 60 62 61 64 64 66 69 69 66 67 66 65 65 65 65 68 69 66 68 67 66 65 65 64 65 65 66 65 63 63
46 44 44 45 45 49 54 55 56 60 60 59 57 56 56 56 57 58 60 60 60 60 62 64 65 67 68 67 68 65 65 64 65 66 69 69 68 70 69 67 66 65 67 68 67 66 65 62 62
41 41 39 46 46 51 54 51 58 60 60 59 57 56 57 57 57 59 60 59 60 59 62 65 64 66 67 66 68 66 66 65 66 66 66 69 69 68 68 65 65 67 66 65 64 64 62 61 61
35 34 36 44 49 51 53 50 58 61 60 59 60 57 57 58 58 60 59 61 61 61 63 64 65 66 66 68 66 66 67 66 66 66 66 69 68 67 67 65 66 69 65 64 62 63 62 61 60
28 33 36 35 49 49 49 50 58 60 59 59 60 58 57 57 58 59 61 63 63 62 63 64 65 66 67 68 68 66 66 66 67 67 67 69 68 69 68 66 68 66 63 63 63 64 63 61 60
29 34 35 34 46 42 38 34 50 57 59 59 59 58 58 57 58 59 63 64 63 62 61 63 64 67 67 66 65 65 65 66 66 67 69 70 69 70 70 67 67 66 63 65 67 64 63 59 61
34 33 33 32 32 35 30 29 47 50 56 59 60 59 58 57 57 58 62 62 61 61 60 63 64 68 67 64 64 65 65 65 66 67 69 68 69 70 69 68 67 66 63 66 66 65 59 59 61
33 31 33 32 31 32 35 35 48 52 54 59 59 59 58 57 57 59 61 61 60 60 60 63 65 67 67 64 66 69 68 69 70 68 67 68 70 70 69 70 65 69 65 62 66 65 64 56 60
30 33 33 33 30 27 31 30 41 52 54 59 60 58 57 58 58 58 59 60 59 59 61 63 66 68 68 68 66 66 64 62 63 65 65 68 70 69 69 70 70 70 65 65 66 66 64 64 55
32 35 33 32 32 28 24 27 41 46 51 57 60 60 57 58 58 58 58 59 59 60 61 63 67 68 67 69 66 67 67 63 65 64 69 68 71 69 69 70 70 70 67 68 67 69 67 62 56
36 32 31 30 29 25 24 24 30 37 40 42 56 59 59 58 58 58 58 59 59 60 61 62 66 68 69 70 70 68 66 65 62 65 69 66 69 69 69 69 70 70 68 69 68 69 69 65 63
35 29 22 20 20 19 23 23 33 35 40 44 46 46 59 58 58 58 58 58 59 59 61 62 65 68 69 69 69 69 68 68 67 67 63 65 65 65 69 70 70 69 70 68 67 70 67 69 64
32 28 19 17 16 16 23 20 28 36 46 54 55 50 49 59 58 58 59 59 59 60 61 62 64 67 68 68 69 69 69 67 67 66 62 64 64 65 67 70 68 69 69 68 68 67 66 66 67
30 27 23 18 19 16 19 30 28 35 48 51 56 54 53 58 58 58 59 59 60 61 61 63 64 67 68 67 68 69 70 69 65 65 67 65 65 64 69 68 67 68 69 70 70 67 68 67 68
23 25 22 19 15 15 18 24 26 36 47 50 53 57 57 57 59 59 60 60 60 61 62 63 64 66 67 67 67 68 68 69 68 68 68 66 64 67 66 69 69 68 69 71 71 66 68 68 66
20 19 21 19 18 14 17 22 27 41 47 49 50 51 54 58 61 62 63 60 61 61 62 62 63 64 66 66 66 67 67 67 69 68 68 68 67 67 69 69 69 69 68 70 71 69 67 70 68
22 22 22 18 20 20 19 22 36 42 45 45 44 45 46 48 50 53 56 58 62 61 61 62 63 63 64 65 66 67 67 67 66 68 67 68 68 68 69 70 70 70 69 70 70 69 66 67 67

GFSSGP_sfc_30mbdewp_075.txt.gz
Dewpoint
68 63 62 60 57 52 52 55 56 52 51 49 49 48 49 55 55 52 59 62 63 64 67 69 72 71 73 72 72 72 73 72 72 71 72 71 70 71 71 70 72 72 72 72 72 72 72 72 72
61 59 62 61 53 48 53 57 57 58 52 51 50 50 54 55 57 56 58 62 61 61 62 65 73 72 73 72 72 72 71 71 71 72 72 72 71 71 72 71 71 71 72 72 72 72 72 72 72
67 63 62 58 52 51 53 56 58 57 52 52 50 57 58 55 55 56 60 61 59 59 62 69 73 72 73 72 72 72 72 72 72 72 72 71 71 70 71 71 70 71 72 72 72 72 72 72 72
61 63 62 57 53 55 55 58 59 59 59 56 55 56 59 57 56 58 60 59 59 63 65 71 72 72 73 73 72 73 72 72 71 72 71 71 71 71 71 71 71 71 71 71 71 70 71 72 71
62 64 58 55 55 57 59 59 59 58 59 55 55 56 56 56 57 59 59 59 59 64 66 70 73 72 73 72 72 72 72 72 72 71 71 71 71 70 70 71 71 71 71 71 71 70 71 71 71
62 59 55 51 55 58 60 61 60 58 59 57 57 57 57 59 57 58 58 58 60 60 64 69 73 72 73 72 72 72 72 72 71 71 71 70 70 71 70 70 71 71 71 71 70 70 71 71 71
59 59 53 53 57 57 57 60 58 56 57 56 57 57 57 57 57 57 57 58 59 63 63 67 69 72 72 72 72 72 72 72 71 71 71 70 71 69 69 71 70 70 70 69 69 70 72 72 72
58 57 51 52 53 57 58 57 58 57 58 58 59 55 55 57 58 58 57 58 58 62 62 63 64 64 67 70 72 72 72 71 71 71 71 71 70 69 71 71 70 70 69 70 71 71 71 71 71
59 55 50 52 52 56 59 57 58 60 57 57 58 57 55 57 57 57 56 57 58 62 59 58 60 65 69 69 71 71 71 71 71 70 70 69 67 66 68 71 70 70 70 70 71 72 72 71 70
57 54 50 52 54 56 58 58 59 57 56 56 56 56 56 57 56 56 55 55 56 60 55 58 63 64 67 65 69 66 66 68 66 66 69 69 67 64 66 69 70 70 70 70 70 71 72 69 64
55 52 51 52 54 58 59 60 61 56 54 55 55 55 56 57 56 55 55 55 55 55 55 62 63 67 68 64 61 61 62 61 63 66 67 64 63 64 63 67 67 68 70 66 68 70 69 68 59
54 53 51 50 52 55 58 58 56 58 60 58 56 56 56 56 55 54 54 54 54 55 56 60 62 69 65 62 60 62 62 64 64 66 66 63 61 62 64 66 63 66 67 64 67 64 66 63 61
53 50 50 48 47 49 54 56 58 59 60 59 57 56 56 55 55 55 54 54 55 56 57 60 63 69 69 62 61 65 60 65 62 67 67 67 65 64 65 64 65 64 63 62 63 66 65 63 62
52 50 47 46 43 45 52 55 57 60 59 58 57 55 55 54 55 55 55 54 55 56 58 61 64 68 67 65 65 65 66 60 65 65 66 67 64 66 64 64 64 64 66 67 66 68 65 64 61
47 48 46 42 41 47 53 55 56 58 58 56 56 55 54 54 55 55 56 55 56 57 60 61 63 66 67 66 65 66 63 63 65 66 67 66 69 67 65 62 65 65 67 66 65 63 63 63 62
43 44 41 42 43 47 53 52 56 58 57 55 55 54 54 54 55 56 56 55 56 56 60 61 60 64 64 64 64 66 65 66 67 66 67 67 67 68 69 64 64 63 64 65 65 65 63 64 63
37 36 36 40 41 45 51 52 55 58 58 56 55 53 54 54 55 57 57 54 56 56 61 61 61 63 63 65 64 66 66 67 67 67 68 68 67 68 66 64 65 68 66 64 63 63 62 61 61
27 31 32 37 41 44 49 57 56 57 58 57 56 57 54 54 55 57 55 57 58 60 61 62 62 64 65 65 65 64 63 67 67 68 70 68 69 68 67 65 66 70 64 67 65 65 64 62 61
23 28 31 33 41 40 42 52 53 56 57 57 59 60 56 55 56 57 56 60 60 60 60 62 63 65 65 65 62 62 64 68 67 69 68 68 69 68 68 65 66 69 64 65 64 63 62 59 59
25 24 29 33 40 39 35 33 48 53 56 58 59 59 58 56 56 57 56 60 61 60 60 62 63 67 66 64 65 61 64 66 68 70 67 67 68 68 67 68 65 66 64 66 64 65 64 58 59
30 28 30 32 32 36 31 31 42 45 51 59 60 59 60 57 56 56 58 60 61 59 59 62 64 67 67 64 64 65 65 66 67 67 65 67 69 68 68 69 68 65 67 63 65 63 64 62 56
26 26 28 30 31 28 32 28 39 44 46 59 60 58 57 58 57 56 58 60 61 58 58 61 64 66 67 65 65 66 64 63 61 65 67 67 68 68 68 67 68 67 66 67 63 62 66 63 55
26 26 27 31 29 26 29 29 41 46 48 56 57 57 58 58 57 57 59 60 60 57 59 62 66 67 67 67 68 66 67 64 63 69 69 68 69 68 67 68 68 69 68 64 67 67 66 59 59
33 31 29 28 28 22 24 22 41 43 51 53 55 59 58 57 58 58 59 60 60 57 58 62 67 68 68 68 69 68 66 67 66 67 66 65 65 67 67 68 69 69 70 67 66 67 67 67 64
34 31 25 24 22 20 21 20 35 38 41 42 52 54 57 58 57 59 60 59 60 58 56 60 66 68 69 68 68 68 68 67 68 67 64 64 67 63 68 69 70 69 69 67 67 68 67 65 64
32 29 20 17 15 16 20 20 33 42 50 52 51 49 57 57 58 57 58 60 60 59 56 58 64 68 69 69 69 70 69 67 65 66 65 64 68 68 70 69 68 68 69 68 68 68 66 66 65
29 28 24 17 15 13 21 29 35 45 48 53 57 52 47 57 58 58 58 60 60 60 58 58 64 67 68 68 69 70 70 69 64 66 66 65 66 69 68 68 68 67 67 68 68 67 67 68 66
25 28 25 22 16 13 18 26 27 42 47 51 53 55 58 61 62 63 63 61 60 60 59 58 61 66 68 67 68 69 69 70 69 66 66 65 67 65 69 68 68 67 67 68 69 68 68 66 65
21 24 25 22 17 15 17 26 37 46 48 49 48 49 51 53 55 58 59 63 64 65 62 61 61 63 66 67 67 67 68 69 70 68 67 67 66 67 67 69 68 68 68 68 69 70 67 67 67
22 19 23 21 20 17 17 27 41 47 48 46 44 45 46 47 47 52 55 57 58 61 64 66 62 61 64 65 67 67 67 68 67 69 68 69 69 67 67 69 69 69 68 69 69 68 64 67 67

GFSSGP_sfc_30mbdewp_078.txt.gz
Dewpoint
68 63 63 63 55 55 55 55 60 56 48 48 49 53 54 54 52 54 61 64 64 66 69 71 73 73 71 72 72 73 72 72 71 72 71 71 72 70 71 72 72 72 72 73 72 72 72 72 72
62 59 60 60 55 51 53 57 56 56 55 49 54 55 54 53 56 60 61 63 64 66 67 68 73 73 72 73 73 72 72 71 72 72 72 72 72 72 71 72 72 72 72 72 72 72 72 72 72
68 61 62 59 52 53 54 57 56 55 55 50 56 57 54 53 57 59 63 62 62 62 64 70 73 73 72 73 72 72 72 71 72 72 71 71 71 71 71 71 71 72 72 72 71 72 72 71 72
64 63 62 59 54 56 55 57 58 57 56 57 55 53 53 55 58 59 59 58 59 63 65 72 72 73 72 72 72 72 72 72 72 72 71 71 71 71 71 71 71 72 72 71 71 71 72 71 71
62 63 59 55 55 57 57 58 57 57 56 58 55 52 53 57 58 59 58 60 63 64 67 71 73 73 73 72 72 72 72 72 72 71 71 71 71 70 71 71 72 71 71 71 71 72 71 71 71
60 62 55 53 56 57 58 61 59 57 59 56 53 53 54 57 57 58 60 63 65 63 65 69 73 73 72 72 72 72 72 71 71 71 70 71 71 71 71 71 71 71 71 71 71 72 72 71 71
60 59 54 55 55 56 58 61 57 57 56 55 56 53 54 56 56 58 62 62 62 64 67 69 70 72 72 72 72 72 72 71 71 71 71 71 70 71 71 71 71 70 70 70 70 72 72 71 71
59 60 55 54 53 54 58 58 57 56 58 58 57 53 53 56 55 57 59 61 62 63 65 66 68 68 69 71 72 72 71 72 71 71 71 71 70 71 69 71 71 70 70 70 71 72 71 71 70
59 55 52 53 53 55 58 56 57 59 59 59 58 54 55 56 55 56 58 63 63 64 64 62 66 69 71 71 71 72 71 71 71 71 69 70 69 68 69 71 71 71 71 71 71 71 71 70 69
61 53 51 53 55 56 58 56 57 57 57 56 57 54 55 54 54 55 56 62 61 61 60 64 68 68 68 64 70 69 69 69 69 69 71 70 69 68 69 71 71 70 71 71 72 71 70 70 67
61 53 52 54 55 57 57 58 60 59 55 55 54 54 54 53 53 52 54 56 53 58 63 66 69 68 67 67 70 69 69 69 68 68 70 69 67 68 68 71 69 70 70 69 71 72 70 69 68
54 53 51 54 56 56 57 59 55 60 59 57 55 54 54 53 53 51 51 53 54 62 63 66 69 64 66 66 64 67 66 65 67 67 67 68 69 69 69 69 69 70 70 65 69 70 68 65 63
56 56 52 48 56 57 57 56 58 59 59 57 56 55 54 53 53 51 51 53 54 59 63 68 68 70 70 66 67 65 64 66 66 67 68 67 64 69 69 67 68 65 69 68 69 67 67 63 64
52 54 48 46 46 49 53 58 58 61 58 57 55 54 54 53 53 53 52 54 54 54 63 68 68 68 66 67 64 66 64 66 66 68 70 70 65 68 67 67 68 69 67 70 66 69 64 66 63
46 51 47 44 43 48 55 55 56 59 57 58 55 54 54 53 54 54 54 54 55 55 63 66 68 68 68 67 68 64 68 67 65 68 71 71 69 70 67 68 66 66 69 69 68 69 68 64 65
40 43 43 42 40 47 53 53 57 58 56 55 55 53 54 53 54 56 55 55 56 56 62 63 64 65 68 66 67 67 68 68 68 69 71 68 68 69 63 68 66 67 68 69 64 68 64 66 62
36 38 38 40 39 47 50 54 57 57 55 54 54 53 54 54 55 56 56 56 55 60 62 60 64 64 66 67 68 67 67 67 70 70 71 70 69 69 70 67 63 66 69 69 64 66 64 66 65
31 34 37 42 40 42 51 51 57 57 54 54 54 53 54 54 56 56 57 55 55 61 63 62 64 67 67 66 69 68 69 69 69 70 70 71 70 69 70 68 69 70 69 66 66 65 64 65 62
28 28 31 41 43 39 52 56 58 55 55 55 54 57 54 54 56 57 56 56 56 61 62 64 67 68 68 66 66 65 67 68 68 70 70 69 69 70 70 70 68 70 67 64 68 67 65 66 64
23 22 25 41 44 50 49 51 57 56 55 55 55 59 57 56 56 57 56 58 59 61 63 65 67 69 68 67 68 67 68 69 70 70 71 71 70 70 70 68 67 69 69 67 67 67 65 65 62
18 18 26 38 44 46 43 50 55 56 55 57 57 59 59 57 56 57 57 61 60 62 63 65 68 69 68 68 68 68 67 68 65 68 69 71 71 70 70 70 70 64 69 68 67 67 66 65 58
19 24 27 36 35 30 36 34 44 49 55 57 57 57 59 59 57 58 60 62 61 64 64 66 68 70 68 70 66 65 66 66 68 69 70 71 70 70 69 70 71 70 67 67 69 66 67 65 63
24 25 27 34 32 28 27 27 37 45 55 57 57 56 58 58 58 57 57 60 63 62 61 66 67 71 68 70 69 67 66 67 69 69 68 69 70 69 69 69 70 69 68 66 68 68 68 69 66
29 28 23 27 31 24 26 26 44 49 51 56 58 57 60 58 58 57 57 61 62 62 58 65 67 70 71 70 70 69 67 68 66 69 64 69 69 69 69 68 71 70 68 69 65 68 67 69 70
28 29 22 23 25 23 23 25 40 52 54 54 53 58 61 63 60 58 57 61 62 59 59 66 69 70 70 70 70 71 69 69 67 67 66 68 68 68 70 72 72 70 71 70 69 69 70 67 68
27 27 23 20 19 18 21 21 38 48 57 58 51 53 58 59 59 61 58 61 61 60 61 66 69 70 71 71 71 71 71 69 70 69 69 66 65 69 70 70 72 72 70 70 70 70 70 70 67
27 27 28 20 19 16 24 37 44 49 52 55 56 56 60 63 63 64 62 62 63 61 61 65 70 71 71 71 72 72 71 71 68 67 70 69 68 70 70 70 71 71 70 71 70 68 69 68 69
28 29 25 24 20 20 25 34 39 45 49 53 52 52 54 58 61 62 64 64 64 63 60 64 69 70 71 70 71 72 72 73 72 72 68 70 70 69 67 70 70 71 70 70 70 70 68 69 68
28 31 27 24 23 21 25 35 43 47 50 50 49 49 49 53 56 60 60 61 65 66 66 67 68 70 70 70 71 71 71 72 72 72 70 69 69 70 66 59 62 70 70 70 70 69 68 68 68
24 25 25 24 25 23 35 38 48 48 48 47 48 48 46 48 51 55 56 57 58 62 63 64 68 68 69 69 70 70 71 71 72 72 71 71 71 71 70 65 67 70 70 71 70 70 69 68 69

GFSSGP_sfc_30mbdewp_081.txt.gz
Dewpoint
69 68 66 63 57 57 52 53 60 55 55 51 55 55 54 54 53 55 65 67 68 69 72 72 73 72 72 73 73 73 72 72 72 72 72 72 70 72 72 72 72 72 73 73 72 72 72 71 71
68 62 61 60 55 51 52 56 54 56 57 57 55 55 57 57 61 62 64 67 68 70 71 73 74 73 74 73 73 72 72 72 72 72 72 72 72 72 72 72 72 72 72 72 72 72 71 71 71
69 67 61 59 56 49 50 55 56 57 58 56 54 55 58 59 62 62 65 67 68 69 71 73 74 73 73 72 72 72 71 72 72 71 71 72 72 71 72 72 72 72 72 72 72 72 71 71 71
66 64 62 58 55 58 56 56 58 58 59 58 53 55 59 61 61 63 65 66 66 68 72 74 73 72 73 73 72 72 72 72 72 72 71 71 71 71 72 72 72 72 71 72 72 72 71 71 71
64 63 58 55 56 57 57 58 58 59 60 55 55 56 57 60 62 63 61 64 66 69 71 73 74 73 73 72 72 72 72 72 72 71 71 71 71 71 72 72 72 71 71 72 72 71 71 71 71
60 62 55 54 55 56 57 59 57 59 58 54 56 56 56 59 59 59 63 65 68 69 71 72 73 73 72 72 72 72 72 72 72 71 71 71 71 71 71 71 72 72 71 72 72 71 71 71 71
60 59 56 56 55 56 57 61 59 58 54 53 56 54 56 58 59 63 64 64 65 69 70 73 73 72 72 72 72 72 72 72 71 71 71 71 71 71 71 71 71 71 72 72 72 72 71 71 71
61 60 55 55 54 55 57 60 61 60 54 55 56 54 54 60 62 64 64 64 66 69 70 70 72 72 72 72 72 72 72 72 71 71 70 71 71 71 71 72 72 70 70 71 72 71 71 71 70
62 57 53 53 53 55 58 57 60 65 59 57 54 55 56 60 61 61 63 65 67 68 69 69 69 70 71 72 72 71 72 70 70 70 69 71 70 70 70 72 71 70 71 71 71 71 71 70 70
60 56 54 55 56 56 58 57 61 60 60 58 54 56 56 59 60 62 60 61 64 65 66 67 69 70 70 70 72 72 71 70 70 68 70 70 69 69 71 72 71 71 71 71 71 71 70 70 67
58 57 55 54 56 57 57 56 62 59 57 54 53 54 55 59 62 61 58 57 62 65 67 68 68 69 68 69 71 70 70 70 70 65 69 69 70 71 71 71 71 71 71 70 69 67 69 69 69
55 59 57 57 57 57 57 61 61 62 59 55 54 54 54 56 59 61 59 58 62 64 67 68 68 68 68 70 70 68 69 69 68 69 70 69 69 67 68 69 70 70 69 68 69 69 71 71 70
54 53 56 56 56 58 59 59 60 60 61 55 54 54 53 53 55 56 55 60 64 65 67 66 64 66 68 67 68 68 68 67 67 68 70 69 68 67 68 68 69 70 65 65 68 68 69 64 63
54 52 53 57 56 56 57 58 58 58 56 55 54 54 53 53 52 53 55 62 63 66 67 67 68 68 68 66 66 66 67 66 67 70 68 69 69 68 62 65 68 67 68 66 68 68 66 64 62
57 46 51 54 56 57 60 57 57 57 59 54 54 54 53 53 53 53 54 60 66 67 67 67 68 68 67 65 63 65 67 67 68 68 61 67 69 69 69 67 68 67 68 67 67 68 69 64 65
49 48 46 46 48 57 54 52 58 57 58 55 54 54 53 53 53 55 55 56 65 66 66 67 66 68 67 68 65 68 67 68 70 71 67 68 68 65 64 68 66 69 69 64 65 66 64 65 62
33 38 43 45 48 54 52 54 61 59 59 56 54 54 54 54 55 56 55 55 63 65 65 65 64 66 65 67 70 67 69 69 68 69 70 71 70 68 68 70 65 70 68 68 65 66 67 66 65
32 34 37 42 42 53 54 55 60 60 60 56 54 54 54 54 56 56 56 57 59 62 60 65 65 67 65 67 67 69 69 67 70 68 66 70 71 70 69 69 69 69 69 67 65 66 65 62 62
30 33 34 41 46 52 51 51 54 58 59 56 54 54 54 55 56 57 56 59 59 63 60 66 66 68 65 66 67 68 66 67 68 69 69 70 67 70 70 69 69 68 67 66 64 67 64 65 63
26 23 28 43 51 54 51 49 49 51 58 54 54 54 54 56 56 57 56 57 61 62 62 67 68 68 65 65 68 68 67 69 69 70 70 71 69 71 70 70 67 64 67 69 68 66 66 66 64
24 22 25 41 45 51 52 52 52 55 57 55 55 57 55 56 56 57 56 56 61 63 63 67 67 69 67 66 69 68 69 68 65 67 69 71 70 70 70 68 70 67 69 68 67 65 62 66 60
21 22 21 43 42 43 51 43 52 56 55 55 55 57 57 57 57 58 57 60 62 63 65 67 68 68 68 70 68 65 65 66 67 66 68 71 71 69 70 71 70 67 66 67 70 69 68 67 64
20 20 26 39 38 38 46 43 49 55 54 56 57 58 57 56 58 58 60 61 63 64 65 66 70 68 66 68 70 67 66 68 68 70 69 70 70 70 70 69 70 68 66 67 67 68 68 69 68
20 22 27 35 35 33 32 37 46 53 53 56 59 58 58 60 60 58 60 62 62 64 65 66 70 68 67 68 70 69 67 63 63 67 67 68 70 70 69 70 70 70 68 68 67 68 68 67 69
20 27 26 22 30 31 33 31 48 55 58 58 57 55 57 59 60 58 59 62 63 63 64 66 68 70 69 68 69 69 67 64 59 66 68 68 69 70 68 70 71 71 70 68 68 70 68 68 65
22 27 27 21 23 27 28 40 46 52 53 54 51 57 58 59 62 60 59 61 62 62 64 65 67 69 70 69 69 69 69 68 68 68 67 69 67 69 70 71 71 70 69 70 70 68 69 69 67
22 23 27 25 22 21 39 47 50 50 53 55 56 59 61 63 63 64 63 63 63 62 62 65 67 69 70 69 70 70 70 70 68 65 66 69 67 69 71 70 71 71 70 70 71 68 69 69 68
18 30 25 27 25 21 42 44 48 53 52 50 50 52 55 58 62 63 63 64 66 66 65 66 69 69 70 71 71 71 71 71 71 70 69 69 70 70 68 67 68 70 70 70 70 69 69 68 66
29 28 32 29 27 24 32 42 51 52 49 47 48 48 52 54 56 59 61 62 63 65 67 67 68 69 69 70 70 71 71 71 71 70 70 70 69 68 66 65 62 67 70 70 70 69 69 68 68
23 30 32 28 25 35 39 42 51 50 48 47 46 46 49 51 54 55 56 58 60 63 64 65 66 66 66 68 70 70 71 72 71 71 69 71 69 69 67 65 65 65 69 70 70 69 68 68 68

GFSSGP_sfc_30mbdewp_084.txt.gz
Dewpoint
70 69 67 63 57 54 52 53 58 55 54 53 45 50 50 52 54 53 65 68 69 70 72 73 73 71 72 73 73 72 73 72 72 72 71 72 72 72 73 73 73 73 73 72 71 71 71 71 70
69 66 64 60 54 50 50 55 57 57 55 59 56 56 57 58 62 64 66 68 69 71 72 73 73 73 74 73 73 72 72 72 73 73 72 71 72 72 72 72 72 72 73 72 72 71 71 69 69
68 64 61 58 55 47 49 56 57 60 57 55 57 59 60 61 64 65 67 69 70 71 73 72 74 74 73 73 72 72 72 72 72 71 72 71 71 72 72 72 72 72 72 73 72 71 71 70 70
64 65 63 57 54 54 55 56 59 57 56 57 57 58 61 63 63 66 68 69 70 72 73 73 73 72 73 72 72 72 72 72 72 71 72 71 72 72 72 72 72 72 72 72 71 71 70 71 70
64 64 58 56 56 56 58 58 60 57 58 57 58 58 59 63 66 67 67 68 70 72 73 73 73 73 73 72 72 72 72 72 72 72 71 71 72 72 72 72 71 72 72 72 71 71 71 69 71
61 62 56 54 55 56 58 60 59 58 57 58 58 58 60 64 65 65 66 68 70 72 73 73 73 73 72 72 73 72 72 72 71 71 71 72 72 72 72 72 71 72 72 72 71 71 71 68 70
59 59 56 56 54 53 56 61 59 56 57 56 57 58 61 62 62 65 67 68 70 72 72 73 72 72 73 72 72 72 72 71 71 71 71 71 71 71 71 72 72 72 72 71 71 71 71 71 71
62 60 56 56 55 55 57 60 62 55 55 57 59 57 59 59 64 65 66 68 69 71 72 72 72 72 72 72 72 72 72 71 71 70 71 71 71 71 71 72 72 72 72 71 71 71 71 71 71
65 58 53 54 53 55 60 58 62 64 56 55 56 58 59 63 64 63 65 67 68 70 71 72 71 72 72 72 71 72 71 71 70 70 71 71 70 71 71 72 71 71 71 71 71 71 71 70 70
59 55 54 56 56 56 59 60 61 60 56 55 55 60 63 64 63 62 65 66 67 68 69 70 70 71 71 71 71 71 70 70 70 70 70 70 69 70 71 72 71 71 71 71 70 69 69 69 67
60 56 57 57 55 57 58 60 62 59 58 55 55 59 61 61 62 63 65 66 67 68 68 68 70 70 70 71 71 71 70 70 67 68 69 69 69 71 71 71 71 71 71 70 70 69 69 69 68
52 58 59 56 56 57 58 62 59 62 59 55 56 60 60 60 61 62 63 64 66 66 67 69 69 69 68 70 70 70 69 69 66 67 69 69 69 69 69 69 70 70 68 68 69 68 69 70 70
57 56 60 58 57 57 61 61 59 61 61 56 56 59 59 60 60 59 60 63 65 66 67 68 68 68 68 69 69 69 69 69 68 70 70 69 67 66 67 68 69 70 66 65 68 68 68 65 64
56 54 62 60 57 60 59 60 59 61 60 55 53 58 60 60 61 58 60 63 65 67 67 66 67 67 69 69 68 67 68 67 68 69 69 68 67 68 67 66 68 69 68 66 67 68 67 64 63
51 50 56 56 58 59 60 57 57 59 59 54 52 53 55 58 60 57 63 64 66 67 66 66 68 68 66 67 67 67 67 68 69 68 68 69 69 68 65 66 67 67 67 68 67 68 66 64 65
52 49 46 53 57 59 56 53 58 60 55 53 53 53 53 53 56 61 62 64 66 66 66 68 67 66 65 64 67 67 68 69 69 67 67 68 70 68 68 67 67 69 70 67 67 65 64 65 63
47 45 46 51 56 58 56 56 61 60 58 54 53 53 53 53 55 61 64 65 66 66 66 66 67 66 66 65 68 67 69 69 70 69 69 69 69 64 67 69 67 70 69 64 65 65 66 65 64
26 36 42 47 55 57 57 56 59 60 59 55 53 54 53 54 54 60 64 65 65 66 66 66 66 65 67 68 68 68 68 69 69 69 69 70 71 70 69 68 67 70 68 67 65 66 67 64 63
29 28 33 47 55 55 55 54 56 58 61 57 54 54 54 55 55 57 63 65 65 65 65 64 65 65 66 68 67 67 65 66 69 69 66 68 69 70 68 69 68 67 66 66 66 65 64 64 64
28 27 27 51 53 51 54 55 56 58 60 59 55 54 54 56 55 55 59 62 63 63 65 65 65 65 65 66 68 68 67 68 69 69 68 69 69 70 70 69 67 67 66 67 68 66 65 65 65
25 26 26 44 52 53 52 51 51 53 54 60 57 54 55 55 56 55 57 59 62 62 66 66 66 65 65 66 68 69 69 67 67 68 69 70 70 71 69 68 68 67 69 67 67 64 64 63 61
21 25 24 45 42 40 50 35 52 51 51 58 56 55 56 55 58 57 57 59 61 62 67 67 67 66 66 68 66 67 66 65 65 66 68 70 70 70 69 69 69 67 67 66 69 69 68 66 63
19 21 22 35 41 45 44 42 47 53 55 55 56 57 57 57 58 57 56 60 61 63 66 66 67 66 67 69 68 66 66 67 68 68 67 70 70 70 70 70 68 66 66 67 67 68 67 69 66
18 22 36 40 38 36 41 42 46 52 54 56 58 58 58 58 59 59 59 61 61 63 65 68 67 66 66 68 69 68 66 66 67 68 67 69 70 70 70 70 69 69 68 68 66 67 68 67 68
18 23 24 27 31 31 35 44 41 53 56 57 57 57 59 58 60 59 60 61 62 63 65 68 67 66 66 66 68 69 67 64 65 67 67 68 69 69 69 70 69 68 68 67 68 69 68 68 65
17 23 26 22 27 29 35 38 46 56 58 59 59 59 55 58 62 59 61 62 63 63 65 66 68 67 67 67 68 69 68 66 63 66 68 67 69 69 70 70 70 70 70 69 68 69 68 68 69
17 21 26 25 26 23 44 47 50 54 53 54 55 58 59 63 64 64 64 65 64 64 65 65 68 68 68 68 68 69 69 68 67 68 67 67 69 69 68 70 70 70 69 69 70 68 68 69 68
17 26 24 27 23 23 43 45 46 51 50 51 52 54 56 58 60 63 64 65 66 66 67 66 66 68 69 69 69 69 69 69 67 68 65 67 68 69 70 70 70 70 70 69 70 69 68 68 67
22 24 32 29 28 24 36 43 53 50 49 49 50 52 53 56 57 58 61 65 66 67 67 67 67 67 67 69 69 70 70 70 69 69 69 70 69 69 69 68 67 68 69 71 70 69 69 68 67
28 28 29 27 27 38 40 45 51 50 50 48 48 49 52 54 55 57 57 61 64 64 66 66 66 66 66 67 68 69 70 70 70 70 70 70 69 68 68 66 65 64 67 69 70 69 69 68 67

GFSSGP_sfc_30mbdewp_087.txt.gz
Dewpoint
70 69 67 63 56 54 51 53 57 54 52 45 40 43 47 51 53 52 66 68 70 71 73 73 73 71 72 72 72 72 71 71 70 72 72 72 73 73 73 72 72 72 72 71 71 70 70 71 70
69 67 64 60 53 48 50 56 54 55 55 44 41 55 56 57 63 64 66 68 70 72 73 73 73 73 73 73 71 72 72 72 72 71 72 72 72 73 72 73 73 72 72 71 71 70 69 69 69
67 64 61 58 51 47 49 57 58 60 54 42 55 60 61 62 64 65 68 69 71 72 73 72 73 73 73 72 72 72 72 72 72 72 71 72 72 72 72 73 73 73 72 71 71 70 69 69 68
65 65 64 56 52 53 53 58 59 59 57 58 60 59 62 65 64 67 68 70 72 72 72 73 73 73 72 72 72 72 71 71 71 71 71 71 72 72 72 72 72 72 71 71 71 71 71 70 69
65 64 58 56 53 55 57 59 61 59 58 58 59 59 60 65 67 68 69 70 71 72 73 73 73 73 72 72 72 72 72 71 71 71 71 72 72 72 72 71 72 72 72 71 71 70 70 70 70
61 62 56 52 55 56 59 60 60 59 58 58 59 59 61 66 67 68 69 70 72 73 73 73 73 73 72 72 72 72 72 72 72 71 71 72 72 72 71 72 72 72 71 71 71 69 70 70 70
59 59 55 55 55 55 56 61 60 58 57 57 59 58 63 65 66 67 69 71 72 73 72 72 73 72 72 73 71 72 71 71 71 71 72 72 72 71 72 72 71 72 71 71 71 70 70 71 71
62 60 56 55 53 53 58 60 58 57 56 59 59 59 60 64 65 67 67 70 71 72 72 72 72 72 72 72 72 72 71 71 71 71 71 72 71 72 72 71 72 72 71 70 70 70 69 69 70
65 58 54 55 53 55 59 58 60 62 57 57 58 60 62 64 66 65 67 69 70 71 72 71 72 72 72 72 72 71 71 70 70 71 72 71 71 71 72 71 71 71 71 70 71 71 71 71 70
60 55 55 56 55 56 60 59 60 56 56 58 59 61 63 64 64 64 64 66 68 69 70 71 71 71 71 71 72 71 71 70 70 71 70 69 70 71 72 71 71 71 71 70 70 69 69 68 68
59 55 58 55 56 59 59 60 62 55 55 57 58 61 62 62 62 63 64 65 66 69 70 70 70 71 71 71 71 70 69 69 69 69 69 69 70 71 71 71 71 71 71 70 70 70 69 68 67
52 57 59 56 58 59 59 61 59 59 58 58 61 62 62 61 62 64 65 66 66 67 68 69 70 70 70 71 70 70 69 67 66 68 68 69 69 69 69 69 69 70 68 67 68 68 69 70 69
54 58 60 56 58 59 61 60 59 60 62 60 62 62 61 62 62 65 66 66 67 66 67 68 69 69 68 70 69 69 69 68 67 68 69 69 67 66 67 68 69 69 67 65 67 68 68 65 66
57 58 59 58 56 60 59 58 60 60 60 59 60 60 61 61 63 64 64 65 66 66 67 68 68 68 68 69 69 68 69 68 68 69 69 68 66 66 67 67 68 69 68 66 66 68 66 64 64
57 54 56 58 58 59 60 57 56 60 58 58 59 59 60 60 60 60 62 64 66 66 67 67 67 68 68 68 68 68 68 67 69 68 69 68 68 67 65 66 68 67 67 68 68 68 65 64 64
52 55 52 55 58 59 57 53 59 60 58 57 58 59 59 60 60 58 62 65 66 67 66 67 68 67 67 67 67 67 67 69 68 66 68 69 69 68 68 67 67 68 69 67 66 66 64 64 63
44 46 47 54 60 59 57 56 58 59 59 53 55 57 59 59 60 61 63 65 66 66 66 67 67 66 65 67 67 67 68 69 69 67 69 68 69 68 68 67 67 69 69 64 66 65 65 65 63
29 38 46 50 56 58 55 55 58 60 59 54 52 53 55 56 58 62 63 66 66 66 66 67 66 65 65 68 68 69 68 69 69 69 69 69 71 66 69 69 66 70 68 67 65 65 66 64 63
29 28 27 48 55 55 53 54 58 59 60 54 53 54 53 54 60 62 64 65 65 66 66 66 65 67 67 67 67 67 66 67 68 69 68 68 70 70 68 67 68 68 67 66 66 66 63 64 64
29 28 38 54 56 54 54 53 57 59 60 57 54 54 54 54 60 63 64 64 65 65 65 65 65 66 67 66 67 67 67 67 68 69 68 68 69 69 69 68 67 67 66 66 67 67 65 65 65
26 26 27 48 53 54 54 52 54 57 59 60 60 57 55 54 57 62 63 64 64 64 65 65 65 65 66 67 68 68 68 67 67 68 69 69 70 69 70 69 68 67 69 66 67 65 64 62 62
24 24 27 50 48 44 51 41 51 54 55 57 60 58 56 54 56 61 63 63 63 63 65 65 66 64 65 68 67 66 65 65 66 67 68 69 70 70 69 68 69 67 67 67 68 70 68 65 63
24 22 22 43 43 45 48 41 44 52 51 53 59 58 56 57 55 58 61 62 62 64 65 65 66 64 65 67 67 66 66 66 67 67 66 69 70 70 70 68 68 67 66 67 67 67 67 68 66
22 20 31 39 40 38 41 41 43 51 50 53 59 57 57 57 57 57 59 62 63 64 66 67 66 65 67 67 67 66 66 67 66 67 66 68 70 70 70 70 68 67 66 67 66 68 67 67 68
20 23 23 34 36 35 39 41 41 53 54 56 57 58 58 59 59 58 60 61 62 63 66 66 66 65 67 68 68 67 66 66 66 66 66 67 68 69 70 70 69 69 68 68 67 67 68 67 64
19 18 20 27 31 33 41 38 45 55 58 58 60 60 59 61 61 60 60 61 63 63 65 66 66 65 66 67 68 68 68 66 65 67 68 68 68 69 70 70 70 69 68 67 68 69 69 68 68
21 21 24 25 26 26 43 48 52 53 53 56 58 59 59 61 64 62 62 62 63 64 64 66 67 66 66 66 67 68 68 66 64 64 67 68 68 69 69 70 70 69 69 68 69 68 67 68 68
18 25 22 26 23 23 43 45 43 52 51 53 55 56 57 59 60 63 64 65 65 65 66 66 68 67 67 68 67 68 69 68 67 68 67 67 67 68 69 70 70 70 70 69 69 69 68 67 67
22 25 29 28 28 26 38 41 51 52 51 52 53 53 56 57 58 60 62 66 67 67 67 67 67 68 68 68 69 69 69 69 69 68 67 66 66 68 69 69 70 70 70 70 70 69 69 68 67
21 22 30 23 29 37 38 41 50 50 50 51 51 52 54 56 57 58 60 62 65 66 67 68 67 66 67 68 68 69 69 70 69 69 69 70 70 69 68 69 68 68 68 69 69 70 69 68 67

GFSSGP_sfc_30mbdewp_090.txt.gz
Dewpoint
70 69 67 63 54 54 51 53 56 48 45 44 40 41 44 54 53 46 66 68 70 72 72 72 72 70 71 71 73 71 70 71 72 72 72 72 72 72 72 72 72 72 72 71 70 70 70 71 71
69 67 64 60 52 47 50 56 54 56 51 42 40 50 57 58 63 64 66 69 71 72 73 72 72 73 72 72 72 72 72 71 71 72 72 72 72 73 72 72 71 71 71 70 70 70 70 69 68
67 65 61 57 52 47 49 55 58 56 45 39 48 61 61 61 64 65 68 70 72 72 72 72 73 73 72 72 72 72 72 72 71 71 72 72 72 72 72 72 70 70 71 71 70 70 69 69 70
65 65 64 53 50 52 54 56 59 59 43 47 60 59 63 65 63 67 69 71 72 72 71 73 73 72 72 72 72 71 72 72 72 71 71 72 72 72 72 72 72 72 71 70 71 70 70 70 70
65 64 58 54 52 55 59 60 61 59 57 58 59 59 60 66 67 68 70 72 71 71 73 73 73 72 72 72 72 72 71 71 71 71 72 72 72 72 71 72 72 71 71 71 70 70 70 70 71
61 63 55 52 53 55 59 61 61 59 59 59 59 59 62 67 67 68 70 71 72 72 73 73 72 72 72 72 71 71 71 71 71 71 72 72 72 72 72 72 72 71 71 71 69 70 70 70 69
59 59 55 55 55 55 58 61 59 58 58 58 60 58 63 66 67 69 71 72 73 72 72 72 72 72 72 71 71 71 71 71 71 71 72 72 72 72 72 72 72 70 71 70 69 69 70 70 71
61 61 56 55 53 55 59 60 60 57 57 60 61 57 60 65 67 69 71 72 72 72 72 72 72 72 72 71 72 71 71 71 71 71 71 72 72 71 71 72 72 71 70 70 70 69 70 70 71
64 58 54 54 53 55 59 58 59 61 57 58 60 61 63 66 67 68 69 70 71 72 71 71 72 71 72 72 71 70 70 71 71 71 72 71 71 71 72 72 71 71 70 69 70 70 70 69 71
59 56 55 57 55 57 58 57 58 57 57 58 61 63 65 65 65 66 66 67 69 70 71 71 71 71 71 72 71 71 71 71 71 70 69 70 71 72 72 71 71 71 70 70 69 70 70 69 70
59 55 58 56 56 59 60 60 59 57 56 57 60 62 64 64 64 63 65 67 67 69 70 70 71 71 71 71 71 70 69 69 70 69 69 69 71 71 71 71 71 70 70 70 69 69 69 68 67
53 57 58 56 58 60 58 61 56 58 57 59 61 62 63 63 63 62 63 65 66 68 69 70 70 70 70 71 70 69 68 67 68 68 69 69 69 69 69 69 70 69 67 68 68 68 69 69 70
55 59 57 59 58 59 61 59 56 58 59 61 62 62 62 62 62 63 64 65 67 67 68 69 69 69 69 70 69 69 69 66 67 68 69 69 68 66 68 68 69 70 65 66 67 68 68 65 66
57 59 56 58 59 60 59 59 58 58 61 61 61 61 61 61 63 64 65 64 66 66 67 68 69 69 68 69 69 69 69 68 68 69 69 68 66 66 67 66 68 68 68 67 67 68 66 65 65
56 56 57 56 59 58 59 57 57 59 61 60 60 61 61 62 63 64 65 65 66 66 67 68 68 68 68 69 68 68 68 68 68 69 69 68 67 66 65 66 67 67 67 68 68 66 65 64 64
54 54 52 56 58 59 57 53 58 61 60 60 60 60 61 62 63 64 64 65 66 66 67 67 67 68 68 68 68 67 67 68 68 67 69 69 69 68 67 67 67 69 69 66 66 66 65 64 64
48 47 49 54 58 58 57 53 59 60 58 58 59 59 60 61 60 61 63 65 66 66 67 67 67 67 67 67 68 67 68 69 68 67 69 68 69 67 68 68 67 69 68 65 66 66 66 65 64
42 44 47 50 53 58 56 54 58 59 58 58 58 59 59 60 60 59 62 65 66 66 67 67 67 66 65 67 68 68 69 69 69 67 69 68 69 66 68 69 67 70 68 67 66 65 66 64 63
33 38 34 47 56 56 55 55 56 58 58 56 57 58 58 59 61 61 63 65 66 66 66 66 66 65 67 67 67 67 66 68 68 69 68 69 70 70 68 68 68 68 67 66 66 67 65 65 66
29 28 49 55 57 55 54 54 55 58 59 55 54 55 56 58 59 62 63 65 65 65 66 66 65 66 67 67 67 66 66 67 68 69 68 68 69 70 68 68 67 67 67 66 67 66 65 64 65
27 27 32 48 55 56 52 53 55 57 59 60 58 54 54 55 59 62 63 64 65 65 65 66 65 66 66 67 68 68 68 67 67 68 68 69 70 69 70 69 68 67 68 66 67 65 65 63 64
24 26 31 51 49 44 53 43 52 55 56 58 60 57 54 55 60 62 63 63 64 65 65 66 66 66 66 67 67 66 65 65 65 67 68 69 70 69 70 68 69 68 67 67 67 69 68 65 64
26 25 25 50 46 47 49 42 40 54 54 56 58 60 55 55 60 62 62 63 64 64 65 65 66 65 66 68 67 66 65 66 67 67 66 68 70 70 70 68 69 67 67 67 67 68 68 68 66
25 23 35 42 43 40 43 44 39 51 52 54 57 59 58 55 58 62 63 64 64 64 65 65 65 64 65 67 67 66 65 66 66 67 66 67 70 70 70 70 68 67 66 66 67 69 67 66 68
22 19 23 33 36 32 40 44 39 53 56 55 55 58 59 56 57 61 62 63 63 63 65 66 65 64 65 66 67 66 66 67 66 66 66 66 68 69 69 70 69 68 68 68 67 68 68 66 65
19 18 21 27 33 33 43 38 41 54 57 59 58 59 59 60 58 60 62 63 63 63 65 66 65 65 65 67 67 67 67 66 66 67 67 68 68 69 69 70 70 69 69 68 68 68 69 69 68
22 16 20 25 26 32 41 46 51 54 55 58 59 59 61 62 61 60 62 63 64 64 64 66 66 65 66 67 68 68 68 66 65 65 67 68 69 69 69 70 70 70 69 69 68 68 68 68 68
22 25 22 25 23 23 42 43 39 52 53 55 56 57 59 60 62 64 63 63 64 65 65 66 66 66 66 66 67 68 68 67 66 66 65 67 68 69 69 69 70 70 70 69 69 69 68 68 68
25 27 27 27 27 28 34 38 51 51 53 54 54 56 57 59 60 61 62 66 65 65 66 67 68 68 67 68 67 67 68 68 68 67 67 67 67 66 67 69 69 70 70 70 69 69 69 68 68
22 22 29 24 29 36 36 34 50 51 52 53 54 55 56 58 58 60 61 63 66 66 67 67 68 67 68 68 68 68 69 69 69 69 69 69 68 69 68 69 69 69 70 70 70 69 70 69 68

GFSSGP_sfc_30mbdewp_093.txt.gz
Dewpoint
69 67 66 64 54 54 52 53 56 44 42 42 40 38 48 56 53 40 63 67 68 68 69 71 71 71 71 73 72 70 71 73 72 72 72 72 73 72 71 71 72 72 70 70 71 71 71 71 71
67 66 63 61 51 48 51 55 45 45 43 41 42 45 55 58 62 62 65 68 69 68 69 67 73 72 72 72 72 72 71 72 72 72 72 72 72 72 72 71 71 71 71 71 70 69 69 68 67
65 65 61 56 51 48 50 56 56 54 43 41 54 59 61 61 62 64 66 69 69 70 67 71 73 73 72 72 72 72 72 71 72 72 72 72 72 72 71 71 71 71 71 71 70 70 70 70 70
63 65 64 52 48 53 53 56 58 47 40 50 58 59 62 64 62 66 68 69 68 67 67 73 72 73 72 73 72 72 72 71 72 72 72 72 72 72 71 71 72 71 71 71 70 70 70 70 69
65 64 53 52 51 54 58 59 59 45 40 52 59 59 60 65 67 67 68 68 66 65 71 71 73 72 72 72 72 71 71 71 71 72 72 72 72 72 72 71 71 71 71 70 70 71 71 71 71
62 63 55 51 51 55 59 61 60 58 55 57 58 58 60 66 66 67 68 68 64 69 68 70 72 71 72 71 71 71 71 72 71 72 72 72 71 71 70 71 71 71 70 70 70 71 70 70 70
60 59 55 52 54 54 58 61 58 58 58 58 59 55 61 65 66 68 69 68 65 68 69 70 69 72 71 71 71 71 71 72 72 72 72 72 71 71 71 71 71 71 70 69 69 70 70 71 69
61 60 56 55 53 54 59 60 59 58 58 60 57 54 59 64 67 69 69 67 66 69 69 70 71 71 69 70 71 71 71 71 72 72 72 72 71 70 71 71 71 70 70 69 70 70 70 71 70
63 58 54 54 53 56 60 58 59 59 57 59 60 56 61 66 66 66 67 66 66 68 69 70 69 70 71 70 70 70 70 71 72 72 73 72 70 70 70 71 71 70 69 69 70 70 70 71 72
58 56 55 56 55 57 59 57 57 56 57 60 61 63 65 65 65 64 64 65 65 67 69 70 69 70 70 70 70 71 71 71 71 71 72 71 71 71 70 71 71 70 69 70 70 70 70 69 71
59 56 58 56 56 58 57 58 57 56 55 58 59 61 63 63 63 63 61 64 65 67 68 69 70 71 71 71 70 69 69 69 70 70 71 72 71 71 70 70 69 68 69 66 67 67 67 68 67
54 57 58 56 58 59 57 58 55 55 57 58 60 62 63 62 62 61 59 64 65 66 67 68 69 71 71 70 68 68 68 68 67 69 70 70 69 70 70 69 69 68 67 68 69 68 70 69 69
56 57 57 57 58 59 60 56 56 58 58 60 62 62 61 60 59 58 58 63 64 65 67 67 68 70 71 70 69 68 68 67 67 69 70 69 67 69 70 70 70 69 67 68 69 69 67 66 66
57 57 57 58 59 58 57 57 56 60 59 59 60 60 60 60 60 58 59 61 63 64 65 66 67 69 70 69 70 70 69 69 68 68 68 69 67 69 69 69 69 69 68 68 70 68 67 65 66
58 55 57 57 58 58 59 56 56 61 59 58 58 59 60 61 61 60 58 59 63 64 65 66 67 68 69 69 70 69 69 68 69 69 70 68 69 69 69 68 68 68 70 70 70 67 67 65 64
55 54 52 56 57 61 59 53 58 62 60 57 58 59 60 61 61 62 61 61 64 64 66 67 65 67 68 69 70 69 69 69 68 69 69 70 71 70 70 68 68 71 69 68 67 66 66 64 64
51 49 51 54 57 59 57 53 59 62 59 56 58 58 59 60 62 63 62 63 64 66 66 66 67 68 68 70 69 69 70 69 69 70 70 71 71 70 70 69 69 71 67 67 67 67 67 66 65
47 47 49 51 55 57 56 56 60 62 60 57 57 58 59 59 61 63 63 63 65 66 67 67 67 69 69 69 70 69 69 71 70 69 70 70 70 69 71 70 69 71 69 68 68 68 68 67 66
47 46 45 47 55 54 53 56 58 59 58 58 57 58 59 60 60 62 63 64 65 66 67 67 68 69 68 68 68 68 67 70 70 69 71 71 72 70 71 69 70 70 69 68 70 68 68 65 66
33 39 37 53 55 55 55 55 57 58 57 57 57 58 58 59 60 60 62 63 64 66 67 68 68 69 69 69 68 68 69 68 69 70 70 71 71 72 70 70 70 70 68 69 70 69 65 64 66
28 29 48 47 54 54 52 51 53 57 59 57 58 57 58 58 59 61 61 63 64 65 67 68 68 69 68 69 69 69 69 69 69 70 69 69 71 70 72 70 69 70 69 67 69 69 68 63 66
27 28 38 52 48 45 51 43 49 54 57 58 56 56 56 58 59 60 61 62 63 64 67 68 68 68 68 70 68 68 66 66 66 68 69 70 71 70 71 71 71 71 70 70 70 70 69 68 66
29 26 33 50 47 47 47 43 45 54 54 57 58 56 54 55 58 60 61 62 63 64 66 67 68 68 67 69 69 67 67 67 68 68 70 71 72 71 70 71 71 71 68 70 71 71 71 69 67
29 33 39 45 43 35 44 42 39 51 53 54 57 59 58 55 57 60 62 63 64 64 65 66 68 68 69 69 69 69 68 66 68 68 68 68 70 71 71 70 71 71 69 70 70 71 70 69 69
24 21 28 29 32 23 40 44 39 51 55 55 55 58 60 56 57 61 62 63 64 64 65 65 67 68 68 68 69 69 69 69 66 67 68 67 69 70 70 71 71 69 70 70 70 71 71 69 67
24 22 24 25 29 30 42 35 39 54 57 59 59 56 59 58 57 59 62 64 64 64 65 65 65 67 68 67 68 69 70 68 68 68 69 68 69 70 71 71 70 71 71 70 71 69 69 71 69
22 18 24 29 31 29 38 44 51 55 57 59 57 57 59 59 58 59 62 64 64 64 65 65 66 67 67 67 67 68 69 69 68 70 70 70 71 69 71 70 69 71 71 70 70 68 70 71 70
23 22 20 22 25 25 39 41 39 51 55 57 58 59 61 61 60 62 62 63 64 65 65 67 67 67 68 67 68 67 68 69 70 69 68 69 70 71 71 71 71 71 71 71 71 70 70 70 69
24 23 26 25 27 23 27 35 51 52 55 56 57 59 59 61 62 63 64 65 65 66 66 66 68 67 68 68 68 68 68 68 70 69 70 70 70 70 70 71 70 71 71 71 71 71 70 70 70
24 28 29 18 29 37 32 33 51 53 55 56 57 58 59 60 61 62 64 65 65 65 66 66 68 69 69 68 67 67 69 68 69 70 70 71 70 70 70 70 70 70 69 71 71 70 68 69 69

GFSSGP_sfc_30mbdewp_099.txt.gz
Dewpoint
65 64 62 61 58 53 44 42 43 41 40 40 38 42 48 51 48 48 57 59 60 61 66 69 71 70 72 71 72 73 73 73 73 73 72 72 72 72 71 72 72 72 72 71 71 71 67 68 70
61 61 62 57 53 43 43 41 41 41 41 39 45 51 50 48 53 55 58 59 61 62 64 63 72 72 71 70 71 72 72 72 73 73 73 72 72 72 72 71 71 71 71 69 68 68 69 69 71
64 65 61 54 50 44 40 41 41 41 40 42 51 56 50 52 54 56 59 63 63 66 61 70 72 72 72 72 72 72 71 72 72 73 72 72 71 72 71 71 71 70 70 71 71 71 70 70 70
60 62 57 54 51 46 42 43 40 40 46 50 54 51 51 55 56 57 60 64 63 63 64 70 72 71 72 72 72 71 71 72 72 72 72 72 72 71 72 71 71 70 70 71 71 71 70 71 70
62 57 53 53 49 47 47 42 40 43 50 54 54 48 52 56 58 61 62 63 59 61 63 68 72 72 72 71 71 71 72 72 72 72 72 72 72 72 71 71 71 71 71 71 71 72 72 70 70
59 60 50 49 49 48 48 44 46 53 54 54 52 50 55 58 60 60 63 59 59 63 63 66 72 72 71 72 71 72 71 72 72 72 71 72 72 72 72 71 71 71 71 71 71 70 69 69 69
58 59 54 50 50 48 50 47 48 49 48 53 53 52 55 58 59 58 56 56 55 62 63 63 66 70 72 71 72 72 72 72 71 71 71 71 72 72 72 71 70 70 70 70 71 71 69 68 68
60 60 54 53 48 49 52 50 44 45 48 52 53 53 54 58 59 58 56 55 59 60 60 61 67 68 66 68 71 72 72 72 72 71 71 72 71 72 72 71 71 70 70 69 70 71 70 69 69
60 58 53 53 48 50 53 52 53 56 54 54 54 53 56 58 58 56 55 56 59 62 57 61 62 65 65 65 70 71 72 72 72 71 71 69 67 66 69 71 70 70 70 70 70 71 72 71 71
57 56 54 55 49 52 54 53 54 54 54 54 50 54 57 58 57 55 54 54 56 55 55 60 62 65 65 61 69 66 68 68 67 68 69 70 68 68 64 68 70 70 70 71 71 71 72 72 68
57 55 56 54 53 54 54 54 54 54 52 50 53 55 57 57 56 54 53 53 55 55 55 61 66 60 58 63 63 66 66 63 68 69 70 69 62 63 62 66 66 67 69 68 69 69 66 62 63
53 55 56 54 54 54 53 54 52 50 51 52 55 55 56 55 54 53 52 53 56 56 56 61 65 63 60 60 60 62 60 62 68 67 65 64 61 62 63 63 62 64 64 64 63 63 65 63 62
53 56 55 55 53 54 54 51 50 53 53 54 55 55 55 54 53 53 53 55 57 55 57 62 67 67 64 60 59 62 60 60 63 64 64 62 64 64 63 64 63 62 65 65 62 61 62 62 61
56 55 54 56 55 57 52 51 51 52 52 53 54 54 54 53 52 53 53 55 57 55 58 63 64 66 67 63 63 62 60 60 61 62 65 65 65 67 65 65 65 61 65 65 62 63 60 61 58
56 54 55 57 55 55 54 50 51 52 52 53 53 53 53 53 53 53 53 57 56 56 59 63 63 64 67 66 64 62 60 60 64 65 67 67 66 68 65 64 63 63 64 65 63 61 60 56 56
56 55 54 57 54 57 55 52 52 52 52 51 51 52 51 51 52 51 55 57 57 57 60 61 61 62 64 67 67 66 63 63 64 64 65 68 69 67 66 63 65 63 64 60 60 57 57 56 57
54 52 52 55 56 58 56 54 56 52 51 50 50 50 51 52 51 52 55 56 58 59 61 60 61 62 65 65 66 67 66 66 64 64 66 68 67 68 68 66 66 68 63 60 59 57 60 58 56
48 52 51 54 57 56 55 55 59 58 58 49 50 50 51 49 51 53 54 56 58 61 62 61 61 65 67 65 65 67 67 66 66 66 69 68 67 68 69 65 65 69 64 61 63 66 59 60 59
51 52 52 54 56 54 55 54 58 59 57 57 50 50 50 50 52 54 55 56 58 61 62 62 66 66 68 67 63 65 65 64 64 69 67 68 67 68 68 67 66 66 67 67 63 63 64 56 58
43 49 50 55 55 52 55 55 58 59 56 58 56 50 50 51 54 55 55 55 56 59 62 63 66 69 69 67 68 68 66 66 66 68 67 67 67 68 67 67 66 68 65 66 66 66 63 56 59
35 47 48 51 55 54 54 54 56 59 58 59 60 54 50 50 52 54 55 54 57 60 61 63 64 69 68 69 68 68 68 68 66 68 67 67 67 68 69 69 70 66 70 66 66 63 64 60 58
32 49 52 54 49 50 54 46 53 56 56 59 57 54 50 52 53 53 55 55 55 60 63 64 65 67 68 66 68 66 67 65 66 68 68 69 68 67 67 68 68 69 68 69 67 64 67 66 57
34 36 53 54 47 47 49 43 49 53 54 56 57 54 53 53 53 57 54 55 55 59 62 64 66 66 67 67 69 66 65 66 65 68 68 69 68 67 66 68 68 69 67 67 70 68 68 62 65
36 31 32 44 44 43 42 40 45 48 52 55 57 57 55 55 56 58 53 56 57 59 63 63 67 67 67 68 68 67 67 66 67 66 67 65 68 67 67 68 68 69 69 69 68 68 68 70 68
36 30 29 30 41 34 40 38 40 47 52 56 56 58 55 55 52 55 54 57 59 60 62 64 67 68 68 68 67 66 67 68 67 67 64 67 68 69 69 68 69 68 70 68 68 69 69 68 67
33 30 29 28 28 32 41 36 40 43 47 48 54 56 56 54 56 53 56 58 59 61 60 63 67 68 68 67 67 67 67 65 64 66 67 64 67 64 70 68 68 68 68 68 68 66 66 66 66
26 31 31 31 30 35 35 43 47 43 45 50 53 52 56 55 56 55 55 59 64 62 62 64 68 68 67 67 67 69 69 68 67 68 68 67 68 70 67 67 67 67 67 68 68 66 65 69 68
20 26 29 27 27 29 33 34 34 48 50 50 51 53 55 56 55 55 60 61 63 64 68 67 67 67 68 67 67 68 68 68 66 67 67 68 68 71 69 66 66 66 66 67 69 67 66 66 67
18 19 25 26 23 22 29 33 40 47 50 53 53 54 54 56 57 58 58 61 64 66 67 67 69 68 68 69 68 68 66 67 67 66 65 66 67 69 68 69 68 67 67 67 69 69 68 68 67
16 15 18 20 25 22 22 38 46 50 52 55 58 61 62 62 60 60 60 64 65 67 66 66 67 66 67 69 69 69 67 66 67 66 66 66 68 68 69 69 69 68 68 68 69 68 66 67 67

GFSSGP_sfc_30mbdewp_105.txt.gz
Dewpoint
63 63 64 65 58 57 40 39 39 48 49 49 51 51 52 51 52 53 64 66 67 69 71 71 72 71 71 72 73 73 72 73 73 72 72 71 71 71 71 72 71 71 70 68 69 71 71 70 71
54 54 64 63 54 46 39 41 45 52 52 52 52 55 55 55 57 60 62 65 68 70 70 70 72 71 71 72 72 72 73 73 72 72 72 72 72 72 72 71 70 70 69 69 69 71 70 70 70
59 63 60 56 51 45 40 40 41 53 50 51 52 53 55 55 59 61 63 65 66 67 71 72 72 72 72 72 72 72 72 73 72 72 72 72 71 72 71 72 71 71 71 71 71 70 70 70 71
59 62 59 50 50 50 42 39 51 52 52 52 53 54 56 60 60 62 63 66 68 70 72 73 72 72 72 72 72 72 72 72 72 72 72 71 71 70 70 71 71 72 72 71 70 70 69 70 70
56 58 55 53 52 43 41 40 53 51 51 52 56 57 58 59 61 61 64 66 68 70 72 72 73 72 72 71 71 72 72 72 72 72 72 71 71 71 71 71 72 72 72 71 70 69 69 69 70
58 56 53 50 50 41 42 45 54 52 50 55 57 57 58 61 60 64 66 66 68 69 71 72 72 72 72 72 72 72 72 72 72 72 72 72 72 72 72 71 72 70 70 69 69 69 68 69 69
58 57 54 51 41 41 42 49 53 54 50 54 58 57 58 59 63 65 65 65 67 69 71 71 72 72 72 72 72 73 72 72 72 72 73 72 72 72 72 71 71 71 69 69 68 68 68 68 68
62 60 56 53 41 41 42 52 53 50 49 57 57 55 55 60 63 64 65 65 65 67 69 70 71 71 72 72 72 72 72 72 72 72 73 72 72 71 71 72 72 71 71 70 69 68 68 67 67
64 55 53 54 45 43 53 54 54 53 51 56 55 56 57 59 61 62 62 63 63 65 67 69 69 70 71 72 72 72 72 72 72 72 72 72 71 71 70 72 71 70 71 71 70 70 69 69 69
60 57 54 57 57 52 48 52 53 53 51 54 56 56 58 58 59 59 60 61 63 65 66 67 68 69 70 70 72 72 72 71 70 70 70 70 70 70 70 71 70 69 70 70 71 70 71 68 70
61 56 59 56 57 61 50 52 54 52 53 55 54 54 56 53 55 56 56 62 63 64 65 65 66 67 66 70 71 71 71 70 70 68 69 70 70 69 70 66 65 63 56 58 64 71 68 63 66
56 59 58 59 62 60 53 53 52 53 53 55 55 55 54 51 51 52 58 61 62 61 62 65 65 65 67 70 70 70 70 65 64 69 70 70 67 66 68 60 58 62 66 60 63 69 70 70 69
56 57 61 61 59 60 54 52 53 53 53 53 53 52 52 51 51 53 56 62 63 61 62 65 67 67 66 68 68 69 69 64 64 70 70 68 69 68 65 59 61 66 68 69 67 68 67 67 64
57 58 61 60 63 63 55 54 52 53 54 54 53 51 51 51 51 53 55 62 63 63 63 65 66 66 69 66 67 67 68 67 69 68 68 69 70 68 67 64 65 68 69 68 67 60 63 64 61
58 56 58 62 62 60 56 52 51 53 54 53 53 52 51 51 53 55 55 62 65 64 64 64 65 66 66 66 66 66 66 68 69 66 61 68 67 65 65 67 67 69 69 68 63 62 64 65 63
52 55 52 59 61 59 56 49 54 55 53 53 52 52 51 52 54 56 54 57 65 65 64 63 62 65 65 65 67 66 66 66 67 68 68 70 68 66 67 68 68 68 70 69 69 68 66 64 62
54 50 50 55 61 61 54 51 54 54 52 51 51 51 51 51 53 56 55 58 64 64 64 64 64 65 67 68 70 67 66 68 68 68 69 68 71 69 70 70 68 71 70 64 67 65 64 63 63
47 48 51 52 56 56 55 53 56 57 51 50 50 51 51 50 53 57 57 61 62 64 63 66 66 65 68 66 68 67 66 68 70 69 69 70 70 70 69 71 67 64 69 68 68 66 68 66 61
51 52 50 54 56 54 55 54 56 59 58 56 51 51 50 50 52 57 59 61 60 62 62 68 65 67 66 65 67 67 64 67 68 68 70 68 68 70 70 70 63 56 69 69 68 67 67 66 67
50 48 51 53 53 51 52 55 57 58 58 58 58 57 53 50 51 57 59 60 60 63 64 68 67 67 68 68 69 69 67 69 69 69 70 70 67 69 70 71 69 69 69 70 69 67 69 66 64
49 49 50 49 53 53 52 54 54 56 59 59 58 59 59 56 52 57 59 60 61 64 66 68 68 68 69 69 69 68 68 69 68 69 69 70 70 69 69 69 68 67 67 62 65 71 69 68 67
45 51 51 50 48 44 53 46 53 55 54 56 58 57 58 58 56 56 58 59 61 63 66 68 68 69 69 70 67 67 65 65 67 68 68 68 70 70 69 66 67 67 61 56 62 71 71 69 68
50 52 50 48 48 48 49 48 51 55 52 52 54 56 58 59 56 55 55 59 61 65 65 67 68 68 69 68 69 68 66 66 69 69 67 64 67 70 69 71 71 68 67 69 69 68 70 70 69
51 50 51 50 49 42 46 48 49 51 49 50 54 56 58 60 60 57 56 58 62 64 67 68 68 68 70 69 68 67 67 68 67 67 68 69 69 69 70 70 70 69 65 63 66 71 70 71 70
49 48 42 41 39 38 45 46 47 52 55 53 54 55 57 60 60 59 56 58 59 61 65 69 69 68 70 69 68 67 68 68 67 65 66 69 68 67 68 69 70 69 67 64 69 69 69 70 70
48 42 38 35 38 41 48 45 45 52 54 56 56 56 58 60 61 60 56 60 62 62 65 67 70 69 69 70 69 69 69 69 69 70 68 67 66 69 70 70 70 69 70 70 70 68 69 69 68
31 34 38 40 43 40 46 48 51 53 54 54 56 57 57 59 59 61 61 62 64 67 67 69 69 69 70 69 70 68 70 69 68 69 70 71 70 67 69 68 66 67 70 70 70 68 68 68 66
21 29 27 36 36 35 44 45 46 46 51 53 54 54 54 56 57 61 63 64 67 67 67 69 70 70 70 69 70 70 69 70 69 69 68 68 67 67 68 65 64 67 70 69 69 70 70 69 64
20 24 27 34 33 34 38 41 45 47 49 52 52 53 54 55 57 61 63 65 64 66 66 65 67 69 70 70 69 69 69 70 69 69 70 69 67 64 63 63 68 70 70 69 69 69 69 67 68
20 18 19 19 25 32 31 45 53 52 52 51 53 55 56 55 56 62 63 65 63 63 65 62 65 67 69 70 70 69 70 68 69 68 68 69 69 68 68 70 71 70 70 69 70 70 69 69 68

GFSSGP_sfc_30mbdewp_108.txt.gz
Dewpoint
65 64 66 67 57 55 44 46 49 49 49 50 49 53 51 53 51 48 65 67 68 70 72 72 72 71 71 72 72 72 73 72 73 72 72 71 71 71 72 72 72 70 70 71 71 71 71 70 69
55 57 65 59 51 41 45 50 50 51 54 55 55 55 55 56 61 64 65 68 69 71 71 72 72 71 72 73 73 72 72 72 72 72 72 71 72 72 72 72 69 69 69 71 71 70 70 70 69
57 64 57 54 50 45 44 51 51 52 54 53 55 56 57 58 63 63 66 68 70 70 70 72 72 72 72 72 73 73 73 73 72 72 72 72 72 71 71 70 71 71 71 71 70 70 70 71 70
58 62 59 49 48 52 43 53 51 52 54 56 56 56 59 61 61 64 67 69 68 70 72 72 71 72 72 72 72 73 73 72 72 72 72 71 71 71 71 71 72 72 71 70 70 70 70 71 71
54 59 53 52 51 45 50 52 52 54 57 56 57 56 59 62 64 65 67 68 70 72 72 72 72 72 72 72 72 72 72 72 72 72 71 71 71 71 71 72 72 72 71 71 69 69 70 70 70
58 57 51 48 48 41 51 53 53 56 57 58 57 57 59 63 65 66 68 69 71 71 72 72 73 72 72 72 72 73 72 73 73 72 72 72 72 72 71 71 71 72 72 69 69 69 69 69 70
58 55 52 52 41 41 49 52 53 56 56 56 57 57 59 63 65 66 68 69 70 71 71 72 72 72 72 72 72 73 72 73 73 72 72 72 72 72 71 71 70 69 68 68 68 68 68 68 68
61 57 52 53 40 41 50 54 54 55 56 57 58 56 57 63 64 66 67 68 69 71 71 71 72 72 72 72 72 72 72 72 72 72 72 72 72 71 71 72 71 70 69 68 68 68 68 67 67
64 54 53 53 43 44 53 53 53 56 57 54 56 57 60 63 64 64 65 66 68 69 70 71 71 71 72 72 72 72 72 72 72 72 72 72 71 71 71 72 71 71 70 69 69 68 68 68 69
59 53 53 57 57 55 55 55 51 55 55 55 53 59 61 63 62 63 63 64 66 67 69 69 70 71 72 72 72 72 72 72 73 73 72 71 70 70 71 71 70 71 70 70 71 70 71 70 69
59 55 58 56 57 57 58 55 53 54 54 52 54 59 60 61 61 62 62 64 65 67 67 68 69 70 70 71 71 72 71 70 70 70 70 70 70 70 66 65 64 63 63 59 64 65 72 66 67
57 59 59 58 58 60 59 57 53 56 55 54 54 58 59 59 60 61 62 64 65 65 66 66 67 68 69 71 71 70 70 69 68 69 70 69 68 69 61 59 61 60 64 62 62 63 68 70 70
57 58 59 61 61 60 60 58 54 55 56 54 56 56 57 58 57 61 62 63 62 63 64 66 65 66 69 70 70 70 69 63 67 69 70 68 64 67 62 60 63 65 67 68 68 67 68 69 67
58 59 60 61 60 61 60 58 54 55 55 53 55 54 54 53 59 61 61 61 61 63 65 67 66 66 68 68 68 69 69 63 69 69 68 69 65 67 64 61 64 65 68 68 68 67 63 64 65
58 57 60 60 61 60 61 55 53 54 53 53 53 51 51 54 59 61 62 61 61 64 65 65 66 69 68 67 67 68 68 68 68 65 68 69 68 67 65 65 67 68 69 69 68 67 65 65 64
55 56 53 58 59 58 62 52 53 53 52 52 51 51 52 55 59 62 62 62 63 64 64 64 65 66 66 67 67 66 67 68 68 63 69 69 66 65 66 66 67 65 62 71 70 68 67 65 64
54 48 50 57 59 60 59 53 54 54 53 51 52 51 52 54 55 61 64 63 63 64 63 62 64 65 68 69 68 68 68 68 68 68 70 69 69 69 70 69 69 70 70 67 68 65 65 64 62
42 47 52 52 55 58 55 55 56 55 52 52 52 51 53 54 54 61 64 63 64 63 62 63 64 68 67 68 68 67 68 69 68 69 69 70 67 69 70 69 66 64 68 69 69 67 68 66 62
46 51 51 54 55 53 54 54 58 57 54 53 51 50 52 54 54 60 63 63 64 64 64 64 65 67 66 67 67 64 66 68 68 70 70 68 69 70 69 70 66 67 68 70 69 68 68 65 66
51 51 51 52 55 51 51 52 54 58 58 58 55 51 51 54 55 60 61 62 63 63 64 65 65 66 66 67 68 68 67 69 68 69 70 70 68 69 70 69 68 68 67 65 67 70 68 67 65
49 48 50 49 52 54 52 50 52 57 59 58 58 58 56 53 57 59 58 59 62 64 66 66 65 67 69 69 68 68 69 69 67 69 69 69 71 70 70 68 68 67 66 58 65 70 70 66 67
46 51 50 50 48 44 52 44 53 56 56 57 57 58 58 56 58 59 59 59 63 64 66 66 67 68 69 68 67 66 65 65 67 67 68 68 66 70 70 67 68 67 60 64 67 68 71 69 66
50 51 50 50 48 49 49 45 51 56 54 55 55 57 58 59 58 58 59 59 63 65 66 67 68 68 69 68 67 66 66 65 68 68 67 66 66 70 71 65 69 67 67 68 69 70 70 70 68
51 50 49 48 47 42 45 45 47 52 53 54 55 57 57 58 57 59 59 60 61 64 67 68 67 67 69 68 68 67 66 66 67 67 67 67 68 69 69 70 70 69 67 65 65 70 70 70 70
50 45 40 39 39 38 48 46 45 52 53 53 53 57 58 59 60 58 58 60 61 63 66 67 67 67 68 68 68 67 68 67 66 66 67 68 68 67 67 69 70 68 66 60 67 69 68 69 69
47 40 37 32 37 41 49 45 45 52 52 53 53 56 58 59 60 59 58 61 62 65 65 66 67 66 69 68 67 67 69 68 67 67 67 68 67 67 68 69 70 70 69 68 70 69 69 69 68
46 38 40 40 43 41 45 48 49 50 54 53 54 55 57 59 60 60 60 62 63 65 67 67 67 67 69 68 67 68 68 69 69 69 69 68 68 69 68 69 67 67 69 70 70 69 68 68 67
40 39 35 38 36 37 42 43 42 44 49 54 56 55 57 59 60 61 62 64 66 66 67 70 69 68 69 69 69 68 69 69 69 70 69 69 69 69 69 68 66 65 67 69 69 69 69 68 68
21 26 29 34 37 36 39 40 45 42 46 54 55 56 57 57 58 62 65 67 67 66 67 67 68 69 69 69 70 68 70 70 70 68 68 68 67 66 68 65 63 66 69 69 69 69 69 67 66
20 19 24 22 22 35 37 36 46 47 48 52 54 55 55 56 58 63 64 64 64 64 63 63 66 68 69 70 70 70 70 69 69 69 69 68 67 66 63 64 68 70 70 70 69 68 70 68 68

GFSSGP_sfc_30mbdewp_111.txt.gz
Dewpoint
66 68 67 67 55 51 45 48 49 46 46 48 50 50 51 56 50 43 64 66 66 66 71 72 72 72 72 73 72 72 72 71 72 72 71 72 72 71 71 72 71 72 71 71 71 71 70 70 70
60 57 64 59 48 46 48 51 49 52 54 53 54 54 56 55 62 64 63 67 67 70 72 72 72 71 72 72 72 72 72 71 71 71 71 72 72 71 72 69 68 69 71 71 71 71 70 69 71
58 64 58 53 50 44 48 51 54 54 54 54 56 57 57 59 63 63 66 68 70 71 71 71 71 72 72 72 72 72 72 71 72 72 72 72 71 69 69 70 70 70 71 70 70 71 71 70 70
56 63 58 49 47 50 49 52 54 54 55 56 57 57 60 62 62 65 68 70 70 70 71 72 71 72 72 72 72 72 72 72 72 72 72 72 72 71 72 72 71 71 70 70 70 71 71 71 70
55 59 52 50 50 48 52 53 55 55 56 56 57 57 59 63 65 67 68 69 69 70 72 71 72 72 72 72 72 72 72 72 72 72 71 71 71 71 72 72 72 72 71 70 70 70 70 71 70
58 57 50 48 47 45 52 54 57 57 57 58 58 58 60 64 65 67 68 69 71 71 72 72 72 72 72 72 72 72 72 72 72 72 72 71 71 72 71 72 72 71 70 69 69 69 69 70 71
57 54 52 51 41 48 52 56 56 57 55 56 58 58 62 63 65 67 69 70 71 72 72 72 72 71 72 72 72 72 72 72 72 72 72 72 72 72 72 70 69 68 68 68 68 68 68 69 70
60 57 52 53 41 45 52 55 57 56 56 58 59 57 59 63 66 68 69 70 71 71 71 71 71 72 72 72 72 72 73 73 72 72 72 72 72 71 71 72 70 69 68 68 67 67 68 68 68
63 53 51 52 45 50 54 54 57 57 57 57 57 59 61 65 67 67 67 69 69 70 71 71 71 71 72 72 72 72 72 72 72 72 72 72 71 71 71 71 70 70 70 69 68 68 68 68 70
58 53 53 57 57 56 56 54 55 55 54 55 57 60 63 64 65 65 65 66 67 69 70 71 71 71 72 72 71 72 72 73 72 72 71 71 70 70 71 71 72 71 68 68 71 70 71 66 66
58 55 57 55 57 57 57 55 55 54 53 55 57 60 62 63 63 64 64 65 66 68 70 69 70 71 71 72 71 71 71 72 72 72 70 70 70 69 66 65 64 64 64 60 63 64 66 70 68
56 58 58 56 57 57 58 60 54 54 54 56 58 61 62 62 62 62 63 64 66 67 68 69 69 70 70 71 71 71 70 69 69 69 69 69 69 67 63 61 60 61 65 66 67 67 66 67 69
57 59 60 60 60 59 60 58 56 54 54 58 59 60 61 61 62 62 63 64 66 66 66 68 68 68 70 70 70 70 69 68 68 69 70 68 68 67 62 62 65 65 67 67 66 66 66 64 65
58 58 60 60 60 59 58 57 58 56 54 57 59 59 59 60 61 62 63 64 64 64 65 66 66 67 69 69 69 69 68 64 68 69 69 68 65 67 65 63 66 67 68 68 68 67 66 64 65
59 57 60 60 60 60 61 55 55 56 54 54 56 57 58 59 60 61 63 62 63 64 65 66 65 66 68 68 69 69 69 65 68 68 69 68 67 67 64 65 66 67 65 69 69 68 67 66 66
56 55 52 58 60 60 59 52 55 56 53 53 55 55 57 57 61 61 62 61 63 65 65 66 67 67 67 67 67 68 67 68 67 65 69 68 67 67 66 66 67 66 59 69 67 66 66 67 64
51 45 50 55 60 58 58 54 56 56 53 53 54 51 55 59 60 61 62 61 64 65 65 65 66 67 66 67 67 67 67 69 67 65 69 68 66 66 69 69 68 68 69 69 68 67 66 64 62
39 48 51 52 56 57 55 55 57 55 54 53 53 52 56 59 60 61 61 62 64 64 63 64 66 68 69 68 68 68 68 68 67 68 69 68 69 70 70 68 66 67 69 69 69 67 69 65 62
48 51 50 53 57 54 53 54 56 58 56 52 52 52 54 57 60 62 63 62 63 63 63 64 67 67 67 66 65 66 66 67 68 70 70 70 69 70 69 68 62 67 69 67 70 69 67 64 65
49 50 50 53 55 54 53 53 55 57 58 58 52 52 53 54 60 62 62 62 63 63 63 64 66 66 66 67 66 67 68 68 68 69 69 70 69 70 69 69 68 68 64 65 69 70 67 67 68
50 48 48 48 53 53 52 50 54 57 59 59 58 54 54 54 59 62 62 62 63 62 64 64 66 65 66 68 68 68 69 68 68 68 69 69 70 70 69 69 67 66 63 61 67 69 68 66 67
44 51 51 50 48 44 52 44 52 54 55 57 58 57 54 54 59 61 61 62 62 63 65 65 66 66 68 68 66 66 65 65 66 67 68 68 67 70 70 68 67 64 60 65 68 69 70 68 66
47 52 50 49 47 48 49 45 49 55 52 53 57 58 56 55 59 60 59 61 62 64 65 65 67 68 68 67 66 65 65 65 67 67 67 67 66 69 71 67 68 66 67 68 69 70 69 70 66
51 50 50 48 47 41 46 45 44 52 52 52 57 58 58 57 58 59 58 60 62 64 66 66 66 68 68 67 67 66 65 65 67 66 66 66 67 68 70 70 68 68 68 66 67 70 70 69 68
48 45 37 36 37 38 47 45 43 50 54 55 56 57 58 59 58 58 59 59 63 64 66 66 66 66 68 67 67 67 66 66 66 66 66 67 67 67 68 70 70 68 66 65 64 68 68 69 69
47 40 32 28 35 40 49 43 45 52 55 58 58 58 59 60 58 59 59 59 62 64 66 66 66 66 68 67 67 68 67 67 67 67 66 67 68 67 68 68 70 69 68 65 69 69 68 69 68
46 41 40 40 43 39 44 46 48 50 49 53 55 54 58 59 61 59 59 61 62 63 65 66 66 66 68 67 67 67 68 68 67 68 67 67 69 68 68 69 69 69 70 69 69 69 67 68 67
42 42 37 39 35 36 40 42 41 48 50 53 53 54 57 59 61 60 60 61 63 65 65 66 67 66 67 68 67 67 67 68 68 69 68 68 68 69 66 69 67 66 67 69 70 69 69 67 67
31 36 31 36 38 36 36 35 44 41 46 52 53 54 57 59 60 61 62 64 64 66 67 67 67 67 67 69 68 68 68 69 69 69 68 68 69 68 67 68 66 64 66 68 69 69 69 68 66
27 25 29 26 25 38 38 33 50 46 47 53 56 55 56 58 60 62 63 66 65 66 67 67 68 69 69 69 69 69 69 70 69 69 68 68 67 66 65 66 65 66 69 70 69 68 69 68 67

GFSSGP_sfc_30mbdewp_114.txt.gz
Dewpoint
66 69 67 66 51 49 46 47 48 45 46 48 51 51 52 57 52 43 63 65 65 65 69 68 69 69 71 73 72 72 72 72 71 71 71 71 71 72 72 71 71 71 71 71 71 70 70 71 71
64 62 65 59 47 44 47 51 47 50 50 50 55 56 56 55 63 63 61 66 65 69 71 69 71 71 72 73 72 72 71 72 72 71 72 72 72 72 69 69 70 71 71 71 71 71 71 70 71
57 58 58 52 48 46 47 52 54 53 54 54 56 58 57 57 63 62 66 68 69 71 71 72 72 72 72 72 72 72 70 71 71 72 72 71 71 70 69 70 70 71 71 71 71 71 70 70 71
57 62 58 49 48 49 51 53 55 55 56 57 57 56 60 63 62 65 69 69 70 70 71 71 71 71 72 72 72 72 71 72 72 72 72 72 71 72 71 71 71 70 70 71 71 71 71 71 71
57 59 51 50 49 49 53 54 55 55 56 57 57 57 59 63 66 68 68 69 69 70 71 71 72 72 72 72 72 72 72 72 72 72 71 71 71 71 72 71 71 70 70 70 71 71 70 71 71
58 56 49 47 46 51 53 56 56 57 58 58 58 58 60 65 66 67 69 69 70 70 71 71 71 71 72 72 72 72 72 72 72 71 71 71 72 71 72 72 72 69 69 70 70 70 70 71 71
58 53 51 46 48 50 53 57 56 56 56 57 59 58 62 63 66 68 70 70 71 72 71 71 72 71 72 72 72 72 72 72 72 72 72 72 72 72 70 69 69 67 68 68 68 69 69 70 71
60 56 52 50 48 49 55 57 58 56 56 59 59 56 59 63 68 69 70 71 71 71 71 71 71 71 72 72 72 72 72 72 72 72 72 72 72 72 72 72 69 68 67 67 67 68 69 69 70
62 53 50 51 45 53 56 56 57 58 57 57 58 60 62 66 68 68 68 69 70 70 71 71 71 71 72 72 72 72 72 72 72 72 73 72 71 72 71 70 70 70 69 68 68 68 68 70 70
58 52 52 58 57 56 57 55 56 56 55 57 60 63 65 66 66 66 66 66 68 69 70 71 71 71 72 72 72 72 72 72 72 72 71 70 70 71 72 72 71 69 67 68 69 69 71 68 66
58 54 56 56 58 58 57 56 56 55 53 56 58 62 64 65 65 65 66 67 67 69 70 70 70 71 71 71 71 71 72 72 72 71 70 70 70 68 66 65 64 62 65 64 65 65 66 67 68
55 58 58 58 60 57 57 60 54 54 53 57 60 63 64 64 64 63 63 65 66 68 69 70 70 71 71 71 71 71 70 70 70 70 70 69 69 65 62 60 60 62 66 66 67 67 67 66 67
56 57 59 62 61 59 59 58 57 54 56 59 61 62 63 63 63 63 63 65 66 67 68 69 70 70 70 71 70 70 69 68 68 69 69 69 69 66 61 64 65 66 67 67 67 66 66 64 65
58 58 60 61 60 60 58 57 58 56 57 59 61 61 62 62 62 63 63 64 65 66 67 68 68 69 70 70 69 69 68 67 68 69 69 68 68 67 63 63 66 67 68 69 68 67 66 65 65
59 55 58 60 59 58 61 54 54 57 58 58 59 61 61 62 62 62 63 64 65 65 66 67 67 67 68 69 69 69 68 64 68 69 69 69 65 66 65 64 67 67 64 69 68 68 68 67 66
57 56 52 58 61 60 58 52 56 60 57 57 59 59 60 60 61 62 63 64 64 64 65 66 66 66 68 68 68 69 69 65 68 67 69 69 68 67 66 66 67 66 66 69 68 67 66 66 64
50 47 52 54 59 59 57 54 58 58 55 57 58 58 59 59 60 62 63 63 63 64 65 65 65 66 67 68 67 68 68 67 67 65 69 67 66 66 67 68 68 69 69 69 69 68 67 64 63
42 48 51 52 56 56 53 53 59 58 55 54 56 56 58 58 60 62 62 62 63 65 65 65 66 67 67 68 68 68 67 68 68 66 69 67 66 69 70 68 65 69 69 69 69 68 68 65 63
49 51 50 53 56 53 52 53 57 56 58 54 53 53 55 57 60 61 62 62 64 64 64 65 67 67 67 67 66 66 66 67 67 69 69 69 69 70 69 67 63 69 67 68 70 69 66 67 66
50 50 50 53 55 52 53 51 56 56 57 58 55 53 55 58 60 61 61 62 63 63 63 65 66 67 66 66 66 66 67 68 68 69 70 70 70 70 69 67 66 68 64 68 70 69 67 68 68
50 46 49 48 53 53 52 49 53 57 58 59 59 55 55 58 60 61 62 61 63 63 63 65 66 66 67 66 67 68 69 68 68 69 69 70 70 70 69 69 68 67 62 66 69 69 67 66 66
42 50 50 51 48 43 52 42 51 53 55 57 59 55 54 56 60 61 62 62 62 63 63 64 66 65 67 68 66 66 65 65 66 67 68 69 68 70 69 68 67 65 60 67 69 70 69 67 65
37 52 51 50 47 48 49 45 48 53 52 54 58 58 54 54 59 61 61 62 62 62 64 64 66 66 68 67 66 66 65 65 67 67 67 68 67 69 70 68 69 65 67 68 69 69 69 68 64
52 49 49 48 47 41 47 45 46 50 49 53 56 58 56 54 58 61 61 62 62 63 65 65 66 66 67 67 67 65 65 65 66 66 66 67 67 68 70 70 66 68 68 67 68 70 70 69 66
49 43 38 38 39 37 48 45 43 52 55 55 56 58 58 55 58 60 60 60 61 64 65 65 65 66 67 67 66 66 65 65 66 66 66 67 66 67 68 69 69 69 68 66 63 69 68 69 69
46 39 34 29 33 38 48 41 43 49 53 55 56 58 59 57 58 59 59 60 61 63 65 65 66 66 68 67 66 67 67 66 66 66 67 67 67 68 68 68 70 70 68 65 64 69 69 69 69
46 41 41 40 42 40 43 46 48 52 53 56 57 58 58 60 59 59 59 59 62 63 65 65 66 66 67 67 67 67 68 67 67 67 67 67 68 69 68 68 70 70 70 69 69 69 68 68 67
45 44 38 40 32 33 38 41 40 49 50 56 57 57 58 60 60 59 60 60 62 64 65 66 66 65 66 67 67 67 67 68 68 68 68 68 68 68 68 68 69 69 68 69 70 70 69 68 67
35 39 35 38 38 33 32 32 45 47 50 55 55 56 56 58 60 60 60 61 62 64 65 66 66 66 66 67 67 67 67 68 68 69 69 68 68 69 68 67 68 67 66 68 69 69 69 68 68
34 35 34 30 27 39 37 34 50 48 49 53 53 54 57 57 59 61 61 63 63 64 65 65 66 66 67 68 68 68 68 69 69 69 69 68 68 67 66 67 67 65 66 69 69 69 69 69 68

GFSSGP_sfc_30mbdewp_117.txt.gz
Dewpoint
63 68 66 66 53 49 45 43 47 44 46 49 51 50 50 55 48 46 60 61 61 64 68 68 69 69 71 72 72 73 72 70 70 71 71 71 71 71 71 71 71 72 71 71 71 71 71 72 72
65 65 64 59 49 41 46 50 46 44 47 52 54 55 54 55 61 60 60 61 61 64 68 67 70 69 70 72 72 72 72 72 72 72 72 72 71 69 70 71 71 71 71 71 71 71 71 72 72
57 59 58 52 49 44 46 50 50 51 50 52 56 57 55 56 60 58 62 62 63 67 66 67 71 72 71 72 72 71 71 71 72 72 71 71 70 69 69 71 71 71 71 71 69 69 70 71 72
57 62 58 51 48 50 50 52 53 53 54 57 54 52 59 60 59 63 64 64 65 67 66 69 72 72 72 72 72 71 72 72 72 72 70 70 72 71 71 71 70 71 71 71 71 70 71 71 71
57 60 53 50 48 50 53 54 54 54 56 55 53 53 55 64 66 65 65 64 65 66 67 66 72 71 72 72 72 72 72 72 72 71 71 71 71 71 70 71 70 70 71 71 70 70 71 71 70
59 57 49 46 47 51 53 55 55 55 57 56 54 55 59 66 65 65 65 65 65 65 68 69 71 72 72 72 72 72 72 72 72 71 71 72 71 71 71 71 69 70 70 70 70 71 71 72 70
58 54 51 47 49 50 53 56 54 54 55 56 57 53 61 63 66 66 66 67 65 67 67 69 69 70 71 72 72 72 72 72 72 72 72 72 70 70 69 68 68 69 69 69 69 70 71 71 70
60 57 50 48 48 49 55 56 56 54 56 57 56 53 55 62 66 65 66 65 68 68 68 70 69 70 70 71 72 72 72 72 72 72 71 71 71 71 70 70 69 68 68 68 69 69 70 71 71
61 54 50 49 48 52 56 55 56 58 55 56 59 56 59 64 65 64 64 66 68 68 68 69 69 71 72 72 71 72 72 71 72 72 73 72 70 69 68 70 69 68 68 67 68 69 70 70 70
58 53 53 58 57 56 55 54 56 54 54 57 60 62 64 65 64 63 62 64 66 66 68 68 69 70 71 71 72 72 71 72 72 72 72 71 70 71 70 70 70 69 68 70 69 70 70 68 67
59 52 56 58 60 60 57 55 56 52 52 55 56 61 63 64 64 62 61 63 64 66 67 69 70 71 72 71 70 70 70 71 72 71 71 71 71 67 66 65 65 65 66 65 65 66 66 68 68
54 57 56 56 57 59 57 57 54 54 52 55 57 61 63 62 62 61 61 62 63 66 67 69 69 71 72 70 71 70 69 69 68 70 71 70 66 66 64 61 63 66 67 68 68 67 67 66 67
54 58 59 58 56 55 58 56 56 54 56 58 61 62 61 62 61 61 62 62 63 64 66 68 69 71 71 71 70 71 68 66 68 70 71 71 69 67 64 66 67 68 69 69 68 67 66 67 64
58 59 60 61 60 58 57 56 58 54 57 59 60 60 61 61 61 60 62 62 62 63 65 67 69 70 71 70 71 70 68 67 68 69 70 71 69 68 66 65 68 69 69 69 69 68 67 67 63
58 58 59 60 59 58 58 54 54 56 57 59 59 60 61 61 61 61 62 62 62 63 65 67 67 69 70 70 70 70 69 67 68 69 71 70 69 68 69 66 68 67 66 71 70 69 69 66 62
55 54 51 58 59 61 56 52 55 58 57 58 58 60 60 61 61 62 62 62 63 63 66 67 64 66 68 69 70 69 68 67 68 69 70 71 69 70 69 68 68 67 69 71 70 69 66 65 63
52 45 52 55 59 59 55 53 57 60 57 54 57 59 59 60 61 62 62 63 63 64 65 66 66 66 67 70 69 69 70 67 69 68 70 70 70 69 69 69 69 71 71 71 69 70 68 64 63
43 47 52 52 56 54 56 54 57 59 57 55 57 58 59 59 60 61 62 63 63 65 66 66 66 67 69 69 70 69 69 69 68 68 70 69 68 70 72 70 69 71 71 70 69 70 69 66 65
40 47 48 53 56 55 52 53 55 58 57 56 57 58 57 58 59 61 62 63 63 64 65 66 66 68 68 68 68 67 67 68 69 68 71 70 71 72 72 69 67 70 70 72 71 69 70 68 68
42 44 49 53 55 53 53 51 56 58 57 56 56 57 56 57 59 60 62 62 63 64 65 66 67 69 69 68 68 68 68 68 68 70 71 71 71 72 71 70 68 71 68 71 72 71 67 68 69
43 36 48 48 53 53 51 49 52 58 58 58 59 56 54 56 58 60 61 61 63 63 65 66 68 69 69 69 69 70 70 69 69 70 70 71 71 72 71 71 70 70 68 69 72 71 70 66 67
30 45 48 51 49 44 51 43 50 54 56 56 57 57 55 55 58 59 60 61 62 63 65 66 68 69 69 69 68 67 65 65 67 68 70 70 71 72 71 71 70 70 65 70 71 71 70 70 66
26 50 50 50 48 47 48 47 47 53 53 54 55 55 57 55 56 58 60 61 61 63 64 65 68 69 68 69 68 65 66 66 68 69 68 70 70 71 71 71 70 68 67 71 72 71 72 69 65
50 49 48 49 47 42 43 45 43 50 50 52 54 53 54 56 55 58 59 61 62 62 64 64 66 68 69 70 69 69 65 66 67 68 68 68 69 69 71 72 70 71 70 70 71 72 72 71 68
48 43 34 34 38 34 48 46 45 50 50 50 51 53 56 56 55 57 60 61 61 62 63 64 65 67 68 69 68 69 68 68 67 66 67 68 68 68 69 72 70 70 71 70 69 71 72 71 70
43 34 22 22 29 37 48 43 42 49 50 52 53 54 58 55 54 57 60 61 62 62 63 64 64 65 68 68 68 69 69 67 67 68 68 68 68 69 70 70 71 71 71 70 69 68 70 70 70
45 39 37 39 43 38 43 45 45 50 50 54 55 56 58 56 55 56 59 61 62 62 63 64 64 65 67 67 68 69 69 69 68 69 69 69 70 69 70 70 70 71 71 70 70 67 70 70 70
45 43 38 41 29 28 36 41 40 48 51 53 54 56 57 58 57 57 59 60 62 63 64 65 65 65 66 67 68 68 68 70 70 70 70 70 70 70 71 70 70 71 71 71 71 71 71 71 69
41 40 40 41 40 29 29 29 45 47 50 54 55 56 57 58 58 59 60 61 62 63 64 66 66 66 66 67 68 68 69 69 70 70 70 71 71 71 70 70 70 70 70 70 71 71 71 70 70
39 37 36 32 32 38 38 29 51 50 50 55 56 57 58 60 60 60 61 61 62 63 64 65 67 67 67 67 69 69 69 70 70 70 71 71 71 71 70 70 69 69 70 69 70 70 69 69 69

GFSSGP_sfc_30mbdewp_120.txt.gz
Dewpoint
62 65 63 65 52 42 40 42 45 44 46 48 49 47 48 53 49 48 56 58 62 64 66 67 69 70 71 71 72 71 70 71 72 72 72 71 71 72 71 72 72 72 71 71 71 72 72 72 71
61 63 62 58 45 37 41 45 44 46 48 51 51 50 50 53 54 55 56 59 63 61 62 66 70 70 71 72 72 72 71 72 72 72 72 71 71 71 72 72 71 71 71 71 71 71 72 72 72
59 61 57 52 44 39 41 46 45 48 50 53 54 54 52 53 54 55 56 58 59 61 61 67 70 70 72 72 72 72 71 72 71 71 71 69 69 69 71 71 72 71 69 70 70 71 71 72 71
57 62 58 50 43 48 45 48 49 49 50 54 53 52 55 55 55 57 58 58 60 62 61 69 71 71 72 72 71 71 72 72 71 70 71 72 72 72 71 71 71 71 71 71 71 71 71 71 70
56 57 50 49 46 48 48 50 51 51 52 53 49 48 55 60 58 59 59 59 60 60 62 64 71 72 72 72 71 72 72 72 72 72 71 71 71 71 71 70 71 71 71 70 71 71 70 70 70
57 54 47 47 47 49 51 53 53 53 54 52 48 51 56 61 58 58 58 59 58 59 60 65 71 72 72 72 71 72 72 71 71 71 71 71 71 71 71 70 71 71 70 70 71 72 72 70 69
56 52 47 44 47 48 52 54 52 52 52 50 52 51 56 58 58 59 59 59 58 61 62 64 66 70 72 72 72 72 71 71 72 71 70 71 71 70 69 69 70 70 70 70 71 71 71 71 70
57 53 47 46 46 48 53 54 53 51 53 55 52 48 54 59 60 60 60 59 61 61 63 64 64 65 66 68 71 72 72 71 71 71 71 71 70 69 69 69 69 69 69 70 70 71 72 71 71
60 52 46 46 45 51 53 52 54 55 52 51 54 49 55 60 60 60 59 60 62 61 62 63 64 67 69 68 70 70 71 71 71 70 71 69 63 64 66 69 68 68 68 68 69 70 70 71 71
57 52 52 55 56 55 53 52 53 50 51 54 54 55 58 59 60 58 57 58 59 59 59 62 64 65 67 66 69 69 67 65 66 66 66 63 64 67 66 69 70 70 71 71 71 71 69 68 62
57 54 56 57 58 58 56 53 54 50 49 52 53 56 57 57 58 58 57 57 58 59 60 62 64 66 66 66 66 67 65 65 67 67 64 65 64 64 63 64 64 64 66 62 64 65 63 65 62
53 55 55 57 58 58 55 54 53 51 52 52 52 56 57 58 58 56 56 57 58 59 61 63 64 67 67 66 64 63 64 64 63 66 67 67 62 64 62 60 63 64 62 64 65 63 66 65 63
52 54 57 56 55 56 55 55 54 53 53 52 54 56 57 56 57 56 56 57 58 59 61 62 65 68 68 67 64 63 63 62 64 65 68 65 63 63 62 64 63 64 64 64 65 64 64 63 61
54 56 58 58 57 56 53 54 55 53 54 53 55 55 56 56 56 57 56 57 58 59 61 63 65 68 68 66 66 64 63 63 64 65 66 68 63 65 64 65 64 64 65 65 64 64 63 60 60
56 56 58 59 58 57 58 54 54 54 55 54 54 54 55 56 57 58 56 56 57 59 62 63 65 67 68 68 68 65 63 63 64 65 69 68 67 67 68 65 64 64 66 69 67 65 63 59 59
52 51 49 57 57 58 58 51 57 56 55 54 53 53 55 57 58 58 58 55 57 59 62 63 62 65 67 67 68 65 64 64 65 66 67 69 69 69 68 65 64 67 69 66 63 61 60 60 59
44 38 46 54 58 57 56 53 57 59 56 56 56 53 54 57 59 59 59 58 57 59 62 63 62 64 67 69 67 66 67 66 66 66 66 69 68 69 67 64 66 70 68 67 64 63 61 60 58
32 38 43 46 56 56 52 53 57 58 57 55 55 52 51 55 57 59 59 59 58 60 62 63 64 65 67 68 69 66 65 65 65 66 66 68 67 69 70 65 68 69 66 66 66 66 65 62 60
34 36 38 51 55 54 52 52 56 58 58 56 54 54 51 53 56 59 60 60 60 61 63 65 65 67 67 67 65 64 64 65 65 65 69 69 69 70 71 65 66 68 67 69 69 67 67 63 66
33 33 38 51 55 53 51 51 52 57 56 56 55 57 53 51 54 58 59 60 59 61 63 65 66 68 69 67 67 64 63 64 64 65 67 68 69 70 69 69 66 69 66 70 69 69 63 63 65
31 31 32 42 52 52 50 48 50 55 57 57 57 57 55 52 53 57 59 60 60 61 62 64 66 67 68 67 67 67 69 67 67 67 66 67 68 69 70 70 68 69 68 65 70 69 68 61 66
24 32 33 47 44 40 49 35 48 52 56 56 56 56 56 52 53 54 57 59 59 61 63 63 66 67 68 68 67 67 64 61 64 66 66 67 68 68 69 69 69 70 67 68 68 68 70 69 62
20 33 34 44 42 43 44 42 37 49 54 54 56 56 55 52 52 54 56 58 59 61 62 63 66 68 68 69 67 65 63 62 64 64 67 67 69 69 67 70 70 70 66 68 71 70 71 67 65
32 36 42 45 42 35 33 41 36 47 48 51 54 55 55 54 52 54 55 57 59 60 62 63 66 68 67 69 67 66 64 64 64 65 65 65 66 66 69 69 71 70 68 68 69 71 70 70 68
35 31 28 29 30 27 42 38 38 43 48 49 52 54 55 54 53 53 55 56 59 60 62 63 65 67 67 69 68 66 65 65 65 65 64 66 65 65 67 69 70 68 70 70 69 71 70 69 68
31 26 20 20 18 23 44 36 36 46 46 48 53 55 55 54 54 53 54 57 59 60 62 63 64 66 66 67 66 67 67 67 65 65 66 65 66 66 66 67 68 68 70 69 70 67 67 67 68
30 34 27 24 24 25 27 37 41 44 45 46 48 49 50 51 53 54 54 57 59 61 62 63 64 65 65 66 67 68 69 68 65 67 69 67 69 70 69 69 69 68 68 68 69 67 67 68 69
40 39 30 26 24 22 22 31 33 39 44 47 49 51 53 53 54 55 55 57 60 61 62 63 64 64 65 65 66 67 67 69 68 68 69 67 68 70 70 70 70 69 69 70 70 67 68 68 67
36 37 35 31 30 25 26 28 38 41 47 48 50 52 54 58 57 56 56 58 60 61 61 64 64 64 64 65 65 66 66 67 68 68 69 70 71 71 71 71 70 70 70 70 71 69 68 68 68
25 30 29 28 26 30 28 37 46 47 48 49 50 55 55 58 58 58 58 59 60 61 61 64 64 64 65 65 66 67 67 68 67 68 68 70 71 71 71 71 70 70 70 70 70 70 67 67 67

GFSSGP_sfc_30mbdewp_123.txt.gz
Dewpoint
57 65 62 62 58 47 37 39 41 42 44 47 48 46 46 49 48 48 55 60 62 63 64 68 71 69 69 70 70 71 71 71 72 71 71 72 72 72 72 72 72 71 71 72 72 72 72 72 72
59 62 61 57 51 38 39 41 41 44 47 50 49 51 46 48 51 53 55 59 59 62 62 64 71 70 69 70 70 71 71 71 72 71 71 71 71 72 71 71 71 71 71 71 72 72 72 72 72
62 60 57 51 45 38 39 41 44 47 50 52 50 51 49 50 52 53 56 58 58 60 61 68 71 72 71 71 71 71 72 71 71 71 68 69 71 72 71 70 70 70 71 71 71 72 71 71 72
56 58 58 51 43 42 41 43 47 48 50 51 49 49 50 52 52 54 55 56 56 62 64 70 71 72 71 72 71 71 71 71 71 71 72 71 71 72 72 71 71 71 70 72 72 71 71 70 70
55 55 50 46 43 42 44 47 48 47 49 49 47 50 51 54 54 55 56 56 58 60 62 66 72 72 72 71 71 71 72 72 72 72 72 71 71 70 71 71 71 71 71 71 70 70 69 70 71
54 54 51 45 45 45 47 49 48 50 49 48 48 51 53 54 54 55 55 56 56 56 61 64 71 72 71 71 71 71 71 71 71 71 71 71 71 71 70 71 71 70 71 72 72 71 69 69 70
53 49 53 44 44 46 48 49 50 48 47 46 48 50 53 53 54 54 54 55 55 56 59 62 65 70 71 71 71 71 70 71 71 71 71 71 71 70 70 71 71 71 71 71 71 72 71 70 68
56 51 46 47 41 46 50 50 49 47 48 48 50 49 50 53 54 54 55 55 59 59 61 62 61 64 65 68 71 71 71 71 71 71 71 70 69 69 69 70 70 70 71 70 71 72 71 71 70
56 53 50 48 48 49 51 50 52 49 48 48 49 49 53 54 54 54 54 56 56 59 61 61 63 67 68 66 69 71 71 71 71 70 71 70 63 65 68 69 69 69 69 69 70 70 71 72 71
54 54 52 54 53 52 52 50 50 48 47 48 49 54 55 55 54 53 53 55 56 56 61 65 63 62 64 64 68 66 68 68 65 63 64 61 65 64 65 70 71 70 71 71 70 69 69 70 68
56 53 53 53 55 58 56 52 51 48 49 47 49 53 53 54 53 52 53 54 54 54 60 60 61 65 64 64 67 65 62 61 63 64 62 61 61 63 60 65 65 64 68 65 67 67 66 62 60
52 54 54 53 56 54 53 57 51 50 54 50 51 52 53 54 53 52 52 53 53 55 58 60 61 64 65 63 61 63 63 60 61 63 63 64 60 62 61 61 63 62 59 62 63 60 62 62 60
53 53 55 55 54 51 52 52 56 51 51 49 51 53 53 54 53 52 52 54 54 56 58 59 65 67 67 63 62 62 60 60 61 63 63 61 60 63 62 63 61 63 59 60 60 61 62 61 61
52 51 54 55 53 55 49 52 57 51 51 49 51 51 52 53 52 53 52 53 55 56 58 60 64 68 64 66 65 62 61 62 62 64 64 66 62 63 63 63 61 60 61 60 60 63 62 58 59
50 50 56 57 57 56 52 52 53 53 52 51 50 50 50 52 52 53 53 54 55 57 59 61 63 65 65 65 64 62 59 59 60 66 67 65 64 67 64 62 64 60 64 65 63 64 61 57 56
45 46 47 54 56 56 57 51 57 56 52 51 51 49 50 52 52 53 53 53 56 58 60 62 61 64 65 67 66 61 62 60 65 65 64 66 67 67 68 62 61 64 65 61 59 60 59 57 56
39 38 43 50 56 55 55 54 58 61 55 53 53 48 49 53 54 54 53 53 56 59 61 62 62 65 67 66 64 64 63 64 66 64 64 66 66 67 67 63 64 68 61 61 62 59 58 58 55
28 32 35 43 54 55 52 53 57 59 58 59 52 51 48 51 54 54 54 54 55 59 61 61 62 65 66 65 68 67 64 64 63 65 68 66 65 67 69 64 66 70 61 65 69 68 61 60 57
30 33 32 44 53 52 50 50 54 55 56 55 55 53 47 50 52 55 55 55 55 59 61 62 62 66 66 64 62 64 62 64 63 66 67 67 66 68 69 64 67 69 68 69 65 66 65 62 61
28 29 31 44 51 51 47 48 50 56 54 52 59 54 49 49 51 54 54 54 56 58 61 62 63 66 67 64 66 66 63 65 64 65 66 66 67 68 67 69 65 69 65 67 67 69 68 60 61
25 27 28 34 48 49 47 44 48 51 56 54 56 57 51 49 51 53 53 54 56 58 61 63 64 67 68 68 65 67 69 67 62 63 64 66 67 68 68 68 68 68 68 67 67 68 66 68 61
20 25 27 30 40 36 48 34 45 48 52 55 53 56 54 51 49 51 53 55 55 58 60 63 65 66 67 68 66 64 64 61 60 63 66 65 66 67 67 68 68 69 68 69 66 65 69 67 65
19 24 26 29 33 35 36 39 33 43 50 52 53 53 57 52 51 51 52 54 55 58 60 61 65 67 67 68 68 66 65 64 65 66 68 66 67 67 66 67 68 69 67 67 70 69 68 68 63
17 23 28 33 33 31 30 33 31 42 47 51 53 55 55 52 52 50 53 55 57 57 60 61 65 67 68 68 67 68 66 65 66 64 66 64 64 66 66 67 69 69 68 68 68 69 69 69 69
18 22 23 25 24 24 32 32 30 40 47 46 51 54 56 56 52 51 52 54 57 57 60 61 64 66 67 68 66 67 66 65 66 67 64 62 64 65 69 68 69 68 70 69 69 69 70 69 67
20 21 20 21 19 34 35 29 35 45 44 43 48 52 55 55 53 51 52 53 59 59 59 61 63 65 66 67 67 67 66 66 64 66 63 63 63 63 67 69 68 68 69 68 69 68 67 66 65
25 23 22 21 20 18 31 34 34 42 38 43 46 50 53 54 54 55 52 52 58 59 59 62 63 65 65 66 66 67 67 66 64 67 67 67 66 66 68 68 68 68 68 68 68 68 66 66 68
27 41 29 21 19 20 21 25 32 39 35 41 45 49 53 54 55 56 53 53 55 57 61 61 63 65 65 64 65 66 66 67 67 69 69 67 68 70 69 69 69 69 69 69 69 68 68 67 67
28 26 33 32 32 28 24 33 48 37 41 46 47 47 49 50 52 53 60 55 56 59 60 62 63 64 65 64 65 65 65 66 67 67 68 69 69 70 70 70 70 70 70 70 71 71 70 68 68
28 33 32 23 27 32 31 36 46 41 37 48 50 49 52 53 55 57 55 57 58 59 60 62 63 63 64 64 66 66 66 65 65 66 66 70 70 70 71 71 70 70 70 70 70 71 68 68 67

GFSSGP_sfc_30mbdewp_126.txt.gz
Dewpoint
63 57 64 62 57 55 37 39 40 46 44 46 49 46 45 48 49 49 61 63 64 62 67 71 70 69 69 69 68 71 72 72 72 72 72 72 72 72 72 72 72 72 72 72 72 72 72 72 72
52 56 60 59 52 41 38 42 42 43 50 53 49 47 48 49 53 58 59 61 60 62 66 69 71 70 70 71 71 71 72 72 72 72 72 72 72 71 71 72 72 72 72 72 72 72 72 72 72
62 62 59 57 51 43 39 41 43 47 52 53 47 48 48 50 53 54 57 59 59 60 64 70 72 70 70 71 71 71 72 72 71 71 71 72 72 71 71 71 71 71 72 72 72 72 72 72 72
56 56 59 50 46 40 41 43 44 48 52 51 47 46 49 53 53 54 56 57 63 67 66 72 72 71 70 71 71 71 71 71 71 71 70 72 72 72 71 71 71 72 72 72 72 71 71 71 71
56 60 55 48 45 42 43 45 45 47 46 47 47 46 50 52 54 55 55 63 68 65 67 70 73 72 71 71 71 71 71 71 72 72 71 71 71 71 71 71 71 71 71 70 69 71 71 71 71
52 59 51 48 42 42 45 47 48 47 46 48 48 49 50 52 53 54 58 64 68 67 64 69 72 72 71 71 71 72 72 72 72 72 71 72 72 71 71 71 71 71 72 72 70 69 69 70 70
53 57 51 51 48 44 46 53 49 45 45 44 51 48 50 51 52 57 58 58 64 63 62 67 69 71 71 71 71 71 71 71 71 71 72 72 71 71 71 71 71 71 71 71 71 71 69 68 67
54 57 54 52 51 45 47 50 48 46 45 51 53 48 48 52 53 55 56 56 62 63 60 63 67 68 68 70 70 71 72 71 71 72 71 71 69 70 71 72 71 71 71 72 72 71 71 70 69
54 56 51 54 52 55 49 49 46 45 43 50 53 49 51 51 53 54 54 56 64 65 63 60 63 67 69 70 71 71 71 71 71 71 70 71 67 68 69 71 70 70 70 70 71 72 72 71 71
54 55 54 57 56 50 49 53 45 44 44 50 51 51 51 51 52 53 55 56 57 64 66 64 68 68 67 65 71 71 70 69 68 69 71 70 68 69 68 70 69 69 70 70 70 71 71 72 68
54 53 57 54 53 52 53 55 55 47 45 47 51 51 51 51 52 52 54 52 59 63 61 64 64 67 66 67 69 70 71 68 65 65 65 65 64 65 65 69 69 70 70 69 70 69 69 69 70
50 54 53 53 53 53 46 55 56 54 55 55 51 51 51 51 51 50 54 56 59 62 63 63 67 62 64 67 69 69 66 63 64 67 66 67 66 66 65 68 68 68 68 69 65 66 64 62 64
51 53 53 54 52 50 51 49 57 54 55 51 50 51 50 53 52 51 52 55 55 60 60 63 68 64 65 69 68 64 63 62 64 64 66 66 65 64 65 64 66 66 60 65 64 65 64 62 61
54 53 54 54 53 51 47 54 54 52 47 47 49 50 53 54 52 52 53 53 54 59 61 65 66 68 67 67 69 67 65 63 65 65 66 66 65 67 65 67 66 63 67 64 64 67 67 63 60
53 51 54 55 56 56 51 56 55 59 59 46 47 49 53 52 51 51 52 54 54 59 62 67 66 67 68 66 64 66 66 65 66 68 67 66 67 68 69 67 65 66 66 65 63 65 65 62 61
41 48 49 54 55 55 53 52 56 57 61 49 47 48 51 51 50 52 52 53 57 59 62 66 63 67 66 65 66 67 60 68 68 68 67 67 68 68 68 65 65 64 67 66 65 65 64 61 60
39 38 44 51 55 55 52 52 59 60 60 54 50 48 50 51 52 51 53 53 56 61 62 63 66 66 68 67 68 67 67 65 65 67 68 69 68 68 70 70 68 67 68 67 68 65 63 60 59
31 35 40 49 53 53 52 53 52 57 59 58 58 57 51 51 52 52 51 53 56 61 63 64 67 69 67 70 69 65 66 68 67 67 69 68 68 67 70 69 70 71 71 68 64 71 65 62 61
28 34 40 49 50 47 50 50 55 54 55 59 59 55 53 52 54 54 52 54 57 61 63 64 67 68 67 68 67 66 67 67 67 65 70 69 68 69 70 71 69 68 63 70 66 71 70 68 63
27 29 28 41 46 43 41 46 51 55 54 54 50 52 58 51 54 54 53 53 55 61 62 65 67 68 67 68 68 68 67 66 68 70 69 68 69 69 70 69 71 69 62 63 67 65 69 69 69
26 24 26 36 47 45 42 41 42 51 55 54 55 60 60 60 54 53 54 54 56 61 63 65 68 68 70 69 68 69 69 67 66 68 68 68 68 68 68 70 70 69 69 71 63 61 68 61 61
18 22 24 28 31 32 44 36 39 45 54 54 53 58 57 59 53 53 54 54 56 61 63 65 68 69 69 69 69 66 66 65 65 67 69 68 67 68 68 68 69 70 70 70 71 72 65 57 65
19 21 23 26 27 28 39 40 34 44 47 52 53 54 56 57 51 53 50 55 56 60 62 67 69 70 69 69 69 67 66 67 66 64 68 69 69 69 68 69 69 70 71 70 70 71 71 70 68
17 16 19 25 27 27 29 31 27 38 47 52 52 53 55 56 56 52 52 55 57 59 60 66 68 69 69 69 68 69 66 68 62 68 65 67 68 69 69 69 71 71 71 71 70 71 72 71 71
16 14 17 21 23 25 33 25 31 45 44 52 55 53 54 55 56 52 53 53 57 60 60 64 68 69 69 69 70 69 70 67 67 68 67 67 67 68 69 70 70 71 71 72 71 71 72 71 71
20 15 15 18 23 27 35 34 41 47 50 51 53 56 52 55 56 53 54 55 57 60 61 63 68 69 69 70 70 70 69 68 68 68 67 66 66 65 67 70 71 70 71 72 71 71 70 70 70
18 22 20 18 19 18 23 36 43 41 39 37 44 51 53 54 56 54 53 56 58 60 63 63 68 68 70 69 70 70 69 69 67 69 70 68 68 68 70 70 70 71 71 71 71 70 69 70 69
19 28 29 23 20 18 20 36 42 40 41 46 45 48 53 55 56 58 57 56 59 61 63 64 68 68 68 68 69 69 68 70 69 70 69 69 69 70 70 70 71 71 71 71 71 70 69 70 69
25 23 28 27 31 28 26 40 44 42 42 48 52 55 53 53 55 59 59 59 61 60 62 64 67 67 68 67 69 68 69 70 70 69 70 70 70 71 71 71 72 71 71 71 71 72 72 69 69
22 24 29 27 25 28 33 33 43 43 39 52 48 53 56 56 58 61 61 61 63 65 62 64 66 67 67 67 68 68 69 70 69 70 71 70 70 72 73 73 73 73 72 72 71 71 71 70 70